Wetterdaten: Montag, 18.03.2024
Datum Zeit Temp. 2m Temp +5 cm Feuchte A. Luftdruck Regen Wind Richtung Richtung Sonnenschein UV Solar Taupunkt Windchill Windben
18.03.2024 00:00 7,7 C 7,2 C 92 % 1019,2 hPa 0,0 l/m 6,4 km/h (2 Bft) S-SO 157 0 min 0,0 UV-I 0 W/m 6,5 C 7,7 C 11,3 km/h (2 Bft)
18.03.2024 00:01 7,7 C 7,2 C 92 % 1019,2 hPa 0,0 l/m 8,0 km/h (2 Bft) S-SO 157 0 min 0,0 UV-I 0 W/m 6,5 C 6,4 C 12,9 km/h (3 Bft)
18.03.2024 00:02 7,7 C 7,2 C 92 % 1019,2 hPa 0,0 l/m 8,0 km/h (2 Bft) SO 135 0 min 0,0 UV-I 0 W/m 6,5 C 6,4 C 11,3 km/h (2 Bft)
18.03.2024 00:03 7,7 C 7,2 C 92 % 1019,2 hPa 0,0 l/m 4,8 km/h (1 Bft) S 180 0 min 0,0 UV-I 0 W/m 6,5 C 7,7 C 8,0 km/h (2 Bft)
18.03.2024 00:04 7,7 C 7,2 C 92 % 1019,2 hPa 0,0 l/m 4,8 km/h (1 Bft) S 180 0 min 0,0 UV-I 0 W/m 6,5 C 7,7 C 6,4 km/h (2 Bft)
18.03.2024 00:05 7,6 C 7,2 C 92 % 1019,3 hPa 0,0 l/m 4,8 km/h (1 Bft) S 180 0 min 0,0 UV-I 0 W/m 6,4 C 7,6 C 6,4 km/h (2 Bft)
18.03.2024 00:06 7,7 C 7,2 C 92 % 1019,2 hPa 0,0 l/m 4,8 km/h (1 Bft) S 180 0 min 0,0 UV-I 0 W/m 6,5 C 7,7 C 4,8 km/h (1 Bft)
18.03.2024 00:07 7,7 C 7,2 C 92 % 1019,2 hPa 0,0 l/m 3,2 km/h (1 Bft) S 180 0 min 0,0 UV-I 0 W/m 6,5 C 7,7 C 4,8 km/h (1 Bft)
18.03.2024 00:08 7,6 C 7,2 C 92 % 1019,1 hPa 0,0 l/m 3,2 km/h (1 Bft) S 180 0 min 0,0 UV-I 0 W/m 6,4 C 7,6 C 3,2 km/h (1 Bft)
18.03.2024 00:09 7,7 C 7,2 C 92 % 1019,1 hPa 0,0 l/m 3,2 km/h (1 Bft) S 180 0 min 0,0 UV-I 0 W/m 6,5 C 7,7 C 3,2 km/h (1 Bft)
18.03.2024 00:10 7,6 C 7,2 C 92 % 1019,2 hPa 0,0 l/m 1,6 km/h (1 Bft) S 180 0 min 0,0 UV-I 0 W/m 6,4 C 7,6 C 3,2 km/h (1 Bft)
18.03.2024 00:11 7,7 C 7,2 C 92 % 1019,1 hPa 0,0 l/m 3,2 km/h (1 Bft) S 180 0 min 0,0 UV-I 0 W/m 6,5 C 7,7 C 4,8 km/h (1 Bft)
18.03.2024 00:12 7,6 C 7,2 C 92 % 1019,1 hPa 0,0 l/m 3,2 km/h (1 Bft) S 180 0 min 0,0 UV-I 0 W/m 6,4 C 7,6 C 4,8 km/h (1 Bft)
18.03.2024 00:13 7,7 C 7,2 C 92 % 1019,0 hPa 0,0 l/m 1,6 km/h (1 Bft) S 180 0 min 0,0 UV-I 0 W/m 6,5 C 7,7 C 3,2 km/h (1 Bft)
18.03.2024 00:14 7,7 C 7,2 C 92 % 1019,0 hPa 0,0 l/m 3,2 km/h (1 Bft) S 180 0 min 0,0 UV-I 0 W/m 6,5 C 7,7 C 4,8 km/h (1 Bft)
18.03.2024 00:15 7,7 C 7,2 C 92 % 1019,1 hPa 0,0 l/m 3,2 km/h (1 Bft) S 180 0 min 0,0 UV-I 0 W/m 6,5 C 7,7 C 4,8 km/h (1 Bft)
18.03.2024 00:16 7,7 C 7,2 C 92 % 1019,0 hPa 0,0 l/m 3,2 km/h (1 Bft) S 180 0 min 0,0 UV-I 0 W/m 6,5 C 7,7 C 4,8 km/h (1 Bft)
18.03.2024 00:17 7,7 C 7,2 C 92 % 1019,0 hPa 0,0 l/m 3,2 km/h (1 Bft) S 180 0 min 0,0 UV-I 0 W/m 6,5 C 7,7 C 3,2 km/h (1 Bft)
18.03.2024 00:18 7,7 C 7,2 C 92 % 1019,0 hPa 0,0 l/m 3,2 km/h (1 Bft) S 180 0 min 0,0 UV-I 0 W/m 6,5 C 7,7 C 4,8 km/h (1 Bft)
18.03.2024 00:19 7,7 C 7,2 C 92 % 1018,9 hPa 0,0 l/m 3,2 km/h (1 Bft) S 180 0 min 0,0 UV-I 0 W/m 6,5 C 7,7 C 3,2 km/h (1 Bft)
18.03.2024 00:20 7,7 C 7,2 C 92 % 1019,0 hPa 0,0 l/m 4,8 km/h (1 Bft) S 180 0 min 0,0 UV-I 0 W/m 6,5 C 7,7 C 4,8 km/h (1 Bft)
18.03.2024 00:21 7,7 C 7,2 C 92 % 1019,0 hPa 0,0 l/m 3,2 km/h (1 Bft) S 180 0 min 0,0 UV-I 0 W/m 6,5 C 7,7 C 6,4 km/h (2 Bft)
18.03.2024 00:22 7,7 C 7,2 C 92 % 1019,0 hPa 0,2 l/m 1,6 km/h (1 Bft) S 180 0 min 0,0 UV-I 0 W/m 6,5 C 7,7 C 3,2 km/h (1 Bft)
18.03.2024 00:23 7,7 C 7,2 C 92 % 1018,9 hPa 0,0 l/m 3,2 km/h (1 Bft) S 180 0 min 0,0 UV-I 0 W/m 6,5 C 7,7 C 4,8 km/h (1 Bft)
18.03.2024 00:24 7,7 C 7,2 C 92 % 1018,9 hPa 0,0 l/m 8,0 km/h (2 Bft) S-SO 157 0 min 0,0 UV-I 0 W/m 6,5 C 6,4 C 9,7 km/h (2 Bft)
18.03.2024 00:25 7,7 C 7,2 C 92 % 1018,9 hPa 0,0 l/m 4,8 km/h (1 Bft) S-SO 157 0 min 0,0 UV-I 0 W/m 6,5 C 7,7 C 8,0 km/h (2 Bft)
18.03.2024 00:26 7,7 C 7,2 C 92 % 1018,9 hPa 0,0 l/m 3,2 km/h (1 Bft) S-SO 157 0 min 0,0 UV-I 0 W/m 6,5 C 7,7 C 6,4 km/h (2 Bft)
18.03.2024 00:27 7,7 C 7,2 C 92 % 1018,9 hPa 0,0 l/m 3,2 km/h (1 Bft) S-SO 157 0 min 0,0 UV-I 0 W/m 6,5 C 7,7 C 4,8 km/h (1 Bft)
18.03.2024 00:28 7,7 C 7,2 C 92 % 1018,9 hPa 0,0 l/m 4,8 km/h (1 Bft) S-SO 157 0 min 0,0 UV-I 0 W/m 6,5 C 7,7 C 6,4 km/h (2 Bft)
18.03.2024 00:29 7,7 C 7,2 C 92 % 1018,9 hPa 0,0 l/m 3,2 km/h (1 Bft) S-SO 157 0 min 0,0 UV-I 0 W/m 6,5 C 7,7 C 4,8 km/h (1 Bft)
18.03.2024 00:30 7,7 C 7,2 C 92 % 1018,9 hPa 0,0 l/m 3,2 km/h (1 Bft) S-SO 157 0 min 0,0 UV-I 0 W/m 6,5 C 7,7 C 6,4 km/h (2 Bft)
18.03.2024 00:31 7,7 C 7,2 C 92 % 1018,9 hPa 0,0 l/m 6,4 km/h (2 Bft) S-SO 157 0 min 0,0 UV-I 0 W/m 6,5 C 7,7 C 12,9 km/h (3 Bft)
18.03.2024 00:32 7,7 C 7,2 C 92 % 1018,9 hPa 0,0 l/m 4,8 km/h (1 Bft) SO 135 0 min 0,0 UV-I 0 W/m 6,5 C 7,7 C 12,9 km/h (3 Bft)
18.03.2024 00:33 7,7 C 7,2 C 92 % 1018,9 hPa 0,0 l/m 6,4 km/h (2 Bft) SO 135 0 min 0,0 UV-I 0 W/m 6,5 C 7,7 C 8,0 km/h (2 Bft)
18.03.2024 00:34 7,7 C 7,2 C 92 % 1018,9 hPa 0,0 l/m 4,8 km/h (1 Bft) SO 135 0 min 0,0 UV-I 0 W/m 6,5 C 7,7 C 6,4 km/h (2 Bft)
18.03.2024 00:35 7,7 C 7,2 C 92 % 1018,9 hPa 0,0 l/m 4,8 km/h (1 Bft) S-SO 157 0 min 0,0 UV-I 0 W/m 6,5 C 7,7 C 6,4 km/h (2 Bft)
18.03.2024 00:36 7,7 C 7,2 C 92 % 1018,9 hPa 0,0 l/m 3,2 km/h (1 Bft) S-SO 157 0 min 0,0 UV-I 0 W/m 6,5 C 7,7 C 6,4 km/h (2 Bft)
18.03.2024 00:37 7,7 C 7,2 C 92 % 1018,9 hPa 0,0 l/m 4,8 km/h (1 Bft) S-SO 157 0 min 0,0 UV-I 0 W/m 6,5 C 7,7 C 9,7 km/h (2 Bft)
18.03.2024 00:38 7,7 C 7,2 C 92 % 1018,9 hPa 0,0 l/m 6,4 km/h (2 Bft) S-SO 157 0 min 0,0 UV-I 0 W/m 6,5 C 7,7 C 9,7 km/h (2 Bft)
18.03.2024 00:39 7,8 C 7,2 C 92 % 1018,8 hPa 0,0 l/m 8,0 km/h (2 Bft) S-SO 157 0 min 0,0 UV-I 0 W/m 6,6 C 6,5 C 9,7 km/h (2 Bft)
18.03.2024 00:40 7,7 C 7,2 C 92 % 1018,9 hPa 0,0 l/m 9,7 km/h (2 Bft) S 180 0 min 0,0 UV-I 0 W/m 6,5 C 5,2 C 17,7 km/h (3 Bft)
18.03.2024 00:41 7,8 C 7,2 C 92 % 1018,8 hPa 0,0 l/m 9,7 km/h (2 Bft) S 180 0 min 0,0 UV-I 0 W/m 6,6 C 5,4 C 14,5 km/h (3 Bft)
18.03.2024 00:42 7,8 C 7,2 C 92 % 1018,9 hPa 0,0 l/m 6,4 km/h (2 Bft) S 180 0 min 0,0 UV-I 0 W/m 6,6 C 7,8 C 17,7 km/h (3 Bft)
18.03.2024 00:43 7,8 C 7,2 C 92 % 1018,9 hPa 0,0 l/m 8,0 km/h (2 Bft) S 180 0 min 0,0 UV-I 0 W/m 6,6 C 6,5 C 9,7 km/h (2 Bft)
18.03.2024 00:44 7,8 C 7,2 C 92 % 1018,9 hPa 0,0 l/m 6,4 km/h (2 Bft) S-SO 157 0 min 0,0 UV-I 0 W/m 6,6 C 7,8 C 9,7 km/h (2 Bft)
18.03.2024 00:45 7,8 C 7,2 C 92 % 1018,9 hPa 0,0 l/m 8,0 km/h (2 Bft) S-SO 157 0 min 0,0 UV-I 0 W/m 6,6 C 6,5 C 11,3 km/h (2 Bft)
18.03.2024 00:46 7,8 C 7,2 C 92 % 1018,9 hPa 0,0 l/m 6,4 km/h (2 Bft) S-SO 157 0 min 0,0 UV-I 0 W/m 6,6 C 7,8 C 9,7 km/h (2 Bft)
18.03.2024 00:47 7,8 C 7,2 C 92 % 1018,9 hPa 0,0 l/m 4,8 km/h (1 Bft) S 180 0 min 0,0 UV-I 0 W/m 6,6 C 7,8 C 8,0 km/h (2 Bft)
18.03.2024 00:48 7,8 C 7,2 C 92 % 1018,9 hPa 0,0 l/m 6,4 km/h (2 Bft) S 180 0 min 0,0 UV-I 0 W/m 6,6 C 7,8 C 9,7 km/h (2 Bft)
18.03.2024 00:49 7,8 C 7,2 C 92 % 1018,8 hPa 0,0 l/m 4,8 km/h (1 Bft) S 180 0 min 0,0 UV-I 0 W/m 6,6 C 7,8 C 8,0 km/h (2 Bft)
18.03.2024 00:50 7,8 C 7,2 C 92 % 1018,8 hPa 0,0 l/m 6,4 km/h (2 Bft) S 180 0 min 0,0 UV-I 0 W/m 6,6 C 7,8 C 9,7 km/h (2 Bft)
18.03.2024 00:51 7,8 C 7,2 C 92 % 1018,8 hPa 0,0 l/m 6,4 km/h (2 Bft) S 180 0 min 0,0 UV-I 0 W/m 6,6 C 7,8 C 11,3 km/h (2 Bft)
18.03.2024 00:52 7,8 C 7,2 C 92 % 1018,7 hPa 0,0 l/m 9,7 km/h (2 Bft) S-SO 157 0 min 0,0 UV-I 0 W/m 6,6 C 5,4 C 14,5 km/h (3 Bft)
18.03.2024 00:53 7,8 C 7,2 C 92 % 1018,8 hPa 0,0 l/m 6,4 km/h (2 Bft) S-SO 157 0 min 0,0 UV-I 0 W/m 6,6 C 7,8 C 8,0 km/h (2 Bft)
18.03.2024 00:54 7,8 C 7,2 C 92 % 1018,7 hPa 0,0 l/m 6,4 km/h (2 Bft) S 180 0 min 0,0 UV-I 0 W/m 6,6 C 7,8 C 8,0 km/h (2 Bft)
18.03.2024 00:55 7,8 C 7,2 C 92 % 1018,8 hPa 0,0 l/m 4,8 km/h (1 Bft) S 180 0 min 0,0 UV-I 0 W/m 6,6 C 7,8 C 8,0 km/h (2 Bft)
18.03.2024 00:56 7,8 C 7,2 C 92 % 1018,8 hPa 0,0 l/m 6,4 km/h (2 Bft) S 180 0 min 0,0 UV-I 0 W/m 6,6 C 7,8 C 8,0 km/h (2 Bft)
18.03.2024 00:57 7,8 C 7,2 C 92 % 1018,8 hPa 0,0 l/m 6,4 km/h (2 Bft) S 180 0 min 0,0 UV-I 0 W/m 6,6 C 7,8 C 8,0 km/h (2 Bft)
18.03.2024 00:58 7,8 C 7,2 C 92 % 1018,7 hPa 0,0 l/m 8,0 km/h (2 Bft) S 180 0 min 0,0 UV-I 0 W/m 6,6 C 6,5 C 11,3 km/h (2 Bft)
18.03.2024 00:59 7,8 C 7,2 C 92 % 1018,7 hPa 0,0 l/m 8,0 km/h (2 Bft) S 180 0 min 0,0 UV-I 0 W/m 6,6 C 6,5 C 11,3 km/h (2 Bft)
18.03.2024 01:00 7,8 C 7,2 C 92 % 1018,8 hPa 0,0 l/m 6,4 km/h (2 Bft) S 180 0 min 0,0 UV-I 0 W/m 6,6 C 7,8 C 9,7 km/h (2 Bft)
18.03.2024 01:01 7,8 C 7,2 C 92 % 1018,7 hPa 0,0 l/m 6,4 km/h (2 Bft) S-SO 157 0 min 0,0 UV-I 0 W/m 6,6 C 7,8 C 9,7 km/h (2 Bft)
18.03.2024 01:02 7,8 C 7,2 C 92 % 1018,8 hPa 0,0 l/m 6,4 km/h (2 Bft) S 180 0 min 0,0 UV-I 0 W/m 6,6 C 7,8 C 9,7 km/h (2 Bft)
18.03.2024 01:03 7,8 C 7,2 C 92 % 1018,6 hPa 0,0 l/m 6,4 km/h (2 Bft) S 180 0 min 0,0 UV-I 0 W/m 6,6 C 7,8 C 9,7 km/h (2 Bft)
18.03.2024 01:04 7,8 C 7,2 C 92 % 1018,7 hPa 0,0 l/m 11,3 km/h (2 Bft) S-SW 202 0 min 0,0 UV-I 0 W/m 6,6 C 4,4 C 16,1 km/h (3 Bft)
18.03.2024 01:05 7,8 C 7,2 C 92 % 1018,7 hPa 0,0 l/m 12,9 km/h (3 Bft) S 180 0 min 0,0 UV-I 0 W/m 6,6 C 3,5 C 16,1 km/h (3 Bft)
18.03.2024 01:06 7,8 C 7,2 C 92 % 1018,6 hPa 0,0 l/m 8,0 km/h (2 Bft) S 180 0 min 0,0 UV-I 0 W/m 6,6 C 6,5 C 9,7 km/h (2 Bft)
18.03.2024 01:07 7,8 C 7,2 C 93 % 1018,6 hPa 0,0 l/m 8,0 km/h (2 Bft) S-SO 157 0 min 0,0 UV-I 0 W/m 6,7 C 6,5 C 11,3 km/h (2 Bft)
18.03.2024 01:08 7,8 C 7,2 C 92 % 1018,6 hPa 0,0 l/m 6,4 km/h (2 Bft) S-SO 157 0 min 0,0 UV-I 0 W/m 6,6 C 7,8 C 8,0 km/h (2 Bft)
18.03.2024 01:09 7,8 C 7,2 C 92 % 1018,6 hPa 0,0 l/m 6,4 km/h (2 Bft) S-SW 202 0 min 0,0 UV-I 0 W/m 6,6 C 7,8 C 9,7 km/h (2 Bft)
18.03.2024 01:10 7,8 C 7,2 C 92 % 1018,7 hPa 0,0 l/m 8,0 km/h (2 Bft) S 180 0 min 0,0 UV-I 0 W/m 6,6 C 6,5 C 11,3 km/h (2 Bft)
18.03.2024 01:11 7,8 C 7,2 C 92 % 1018,6 hPa 0,0 l/m 6,4 km/h (2 Bft) S 180 0 min 0,0 UV-I 0 W/m 6,6 C 7,8 C 9,7 km/h (2 Bft)
18.03.2024 01:12 7,8 C 7,2 C 92 % 1018,6 hPa 0,0 l/m 6,4 km/h (2 Bft) S-SW 202 0 min 0,0 UV-I 0 W/m 6,6 C 7,8 C 9,7 km/h (2 Bft)
18.03.2024 01:13 7,8 C 7,2 C 92 % 1018,6 hPa 0,0 l/m 6,4 km/h (2 Bft) S-SW 202 0 min 0,0 UV-I 0 W/m 6,6 C 7,8 C 8,0 km/h (2 Bft)
18.03.2024 01:14 7,8 C 7,2 C 92 % 1018,6 hPa 0,0 l/m 4,8 km/h (1 Bft) S 180 0 min 0,0 UV-I 0 W/m 6,6 C 7,8 C 9,7 km/h (2 Bft)
18.03.2024 01:15 7,8 C 7,2 C 92 % 1018,6 hPa 0,0 l/m 4,8 km/h (1 Bft) S 180 0 min 0,0 UV-I 0 W/m 6,6 C 7,8 C 9,7 km/h (2 Bft)
18.03.2024 01:16 7,8 C 7,2 C 92 % 1018,6 hPa 0,0 l/m 6,4 km/h (2 Bft) S 180 0 min 0,0 UV-I 0 W/m 6,6 C 7,8 C 11,3 km/h (2 Bft)
18.03.2024 01:17 7,8 C 7,2 C 92 % 1018,6 hPa 0,0 l/m 6,4 km/h (2 Bft) S 180 0 min 0,0 UV-I 0 W/m 6,6 C 7,8 C 9,7 km/h (2 Bft)
18.03.2024 01:18 7,8 C 7,2 C 92 % 1018,6 hPa 0,2 l/m 4,8 km/h (1 Bft) S 180 0 min 0,0 UV-I 0 W/m 6,6 C 7,8 C 8,0 km/h (2 Bft)
18.03.2024 01:19 7,8 C 7,2 C 92 % 1018,6 hPa 0,0 l/m 4,8 km/h (1 Bft) S 180 0 min 0,0 UV-I 0 W/m 6,6 C 7,8 C 6,4 km/h (2 Bft)
18.03.2024 01:20 7,8 C 7,2 C 92 % 1018,6 hPa 0,0 l/m 6,4 km/h (2 Bft) S 180 0 min 0,0 UV-I 0 W/m 6,6 C 7,8 C 9,7 km/h (2 Bft)
18.03.2024 01:21 7,8 C 7,2 C 92 % 1018,5 hPa 0,0 l/m 6,4 km/h (2 Bft) S 180 0 min 0,0 UV-I 0 W/m 6,6 C 7,8 C 8,0 km/h (2 Bft)
18.03.2024 01:22 7,8 C 7,2 C 92 % 1018,6 hPa 0,0 l/m 6,4 km/h (2 Bft) S 180 0 min 0,0 UV-I 0 W/m 6,6 C 7,8 C 8,0 km/h (2 Bft)
18.03.2024 01:23 7,8 C 7,2 C 92 % 1018,5 hPa 0,0 l/m 4,8 km/h (1 Bft) S 180 0 min 0,0 UV-I 0 W/m 6,6 C 7,8 C 6,4 km/h (2 Bft)
18.03.2024 01:24 7,8 C 7,2 C 92 % 1018,5 hPa 0,0 l/m 4,8 km/h (1 Bft) S 180 0 min 0,0 UV-I 0 W/m 6,6 C 7,8 C 6,4 km/h (2 Bft)
18.03.2024 01:25 7,8 C 7,2 C 92 % 1018,5 hPa 0,0 l/m 4,8 km/h (1 Bft) S 180 0 min 0,0 UV-I 0 W/m 6,6 C 7,8 C 6,4 km/h (2 Bft)
18.03.2024 01:26 7,8 C 7,2 C 92 % 1018,5 hPa 0,0 l/m 3,2 km/h (1 Bft) S 180 0 min 0,0 UV-I 0 W/m 6,6 C 7,8 C 4,8 km/h (1 Bft)
18.03.2024 01:27 7,8 C 7,2 C 92 % 1018,6 hPa 0,0 l/m 4,8 km/h (1 Bft) S 180 0 min 0,0 UV-I 0 W/m 6,6 C 7,8 C 6,4 km/h (2 Bft)
18.03.2024 01:28 7,8 C 7,2 C 92 % 1018,5 hPa 0,0 l/m 6,4 km/h (2 Bft) S 180 0 min 0,0 UV-I 0 W/m 6,6 C 7,8 C 6,4 km/h (2 Bft)
18.03.2024 01:29 7,8 C 7,2 C 92 % 1018,5 hPa 0,0 l/m 3,2 km/h (1 Bft) S 180 0 min 0,0 UV-I 0 W/m 6,6 C 7,8 C 6,4 km/h (2 Bft)
18.03.2024 01:30 7,8 C 7,2 C 92 % 1018,4 hPa 0,0 l/m 4,8 km/h (1 Bft) S 180 0 min 0,0 UV-I 0 W/m 6,6 C 7,8 C 6,4 km/h (2 Bft)
18.03.2024 01:31 7,8 C 7,2 C 92 % 1018,6 hPa 0,0 l/m 4,8 km/h (1 Bft) S 180 0 min 0,0 UV-I 0 W/m 6,6 C 7,8 C 6,4 km/h (2 Bft)
18.03.2024 01:32 7,8 C 7,2 C 92 % 1018,4 hPa 0,0 l/m 3,2 km/h (1 Bft) S 180 0 min 0,0 UV-I 0 W/m 6,6 C 7,8 C 4,8 km/h (1 Bft)
18.03.2024 01:33 7,8 C 7,2 C 92 % 1018,5 hPa 0,0 l/m 4,8 km/h (1 Bft) S 180 0 min 0,0 UV-I 0 W/m 6,6 C 7,8 C 8,0 km/h (2 Bft)
18.03.2024 01:34 7,8 C 7,2 C 92 % 1018,5 hPa 0,2 l/m 6,4 km/h (2 Bft) S 180 0 min 0,0 UV-I 0 W/m 6,6 C 7,8 C 8,0 km/h (2 Bft)
18.03.2024 01:35 7,8 C 7,2 C 92 % 1018,5 hPa 0,0 l/m 4,8 km/h (1 Bft) S 180 0 min 0,0 UV-I 0 W/m 6,6 C 7,8 C 6,4 km/h (2 Bft)
18.03.2024 01:36 7,8 C 7,2 C 92 % 1018,4 hPa 0,0 l/m 4,8 km/h (1 Bft) S 180 0 min 0,0 UV-I 0 W/m 6,6 C 7,8 C 4,8 km/h (1 Bft)
18.03.2024 01:37 7,8 C 7,2 C 92 % 1018,4 hPa 0,0 l/m 4,8 km/h (1 Bft) S 180 0 min 0,0 UV-I 0 W/m 6,6 C 7,8 C 6,4 km/h (2 Bft)
18.03.2024 01:38 7,8 C 7,2 C 92 % 1018,5 hPa 0,0 l/m 3,2 km/h (1 Bft) S 180 0 min 0,0 UV-I 0 W/m 6,6 C 7,8 C 4,8 km/h (1 Bft)
18.03.2024 01:39 7,8 C 7,2 C 92 % 1018,3 hPa 0,0 l/m 4,8 km/h (1 Bft) S 180 0 min 0,0 UV-I 0 W/m 6,6 C 7,8 C 4,8 km/h (1 Bft)
18.03.2024 01:40 7,8 C 7,2 C 92 % 1018,4 hPa 0,0 l/m 3,2 km/h (1 Bft) S 180 0 min 0,0 UV-I 0 W/m 6,6 C 7,8 C 4,8 km/h (1 Bft)
18.03.2024 01:41 7,8 C 7,2 C 92 % 1018,4 hPa 0,0 l/m 3,2 km/h (1 Bft) S 180 0 min 0,0 UV-I 0 W/m 6,6 C 7,8 C 4,8 km/h (1 Bft)
18.03.2024 01:42 7,8 C 7,2 C 92 % 1018,4 hPa 0,0 l/m 6,4 km/h (2 Bft) S 180 0 min 0,0 UV-I 0 W/m 6,6 C 7,8 C 8,0 km/h (2 Bft)
18.03.2024 01:43 7,8 C 7,2 C 92 % 1018,4 hPa 0,0 l/m 4,8 km/h (1 Bft) S 180 0 min 0,0 UV-I 0 W/m 6,6 C 7,8 C 6,4 km/h (2 Bft)
18.03.2024 01:44 7,8 C 7,2 C 92 % 1018,5 hPa 0,0 l/m 4,8 km/h (1 Bft) S 180 0 min 0,0 UV-I 0 W/m 6,6 C 7,8 C 6,4 km/h (2 Bft)
18.03.2024 01:45 7,8 C 7,2 C 92 % 1018,5 hPa 0,0 l/m 3,2 km/h (1 Bft) S 180 0 min 0,0 UV-I 0 W/m 6,6 C 7,8 C 4,8 km/h (1 Bft)
18.03.2024 01:46 7,8 C 7,2 C 92 % 1018,4 hPa 0,0 l/m 1,6 km/h (1 Bft) S 180 0 min 0,0 UV-I 0 W/m 6,6 C 7,8 C 3,2 km/h (1 Bft)
18.03.2024 01:47 7,8 C 7,2 C 93 % 1018,4 hPa 0,0 l/m 3,2 km/h (1 Bft) S 180 0 min 0,0 UV-I 0 W/m 6,7 C 7,8 C 3,2 km/h (1 Bft)
18.03.2024 01:48 7,8 C 7,2 C 93 % 1018,4 hPa 0,0 l/m 3,2 km/h (1 Bft) S 180 0 min 0,0 UV-I 0 W/m 6,7 C 7,8 C 3,2 km/h (1 Bft)
18.03.2024 01:49 7,9 C 7,2 C 93 % 1018,4 hPa 0,0 l/m 1,6 km/h (1 Bft) S 180 0 min 0,0 UV-I 0 W/m 6,8 C 7,9 C 3,2 km/h (1 Bft)
18.03.2024 01:50 7,9 C 7,2 C 92 % 1018,4 hPa 0,0 l/m 3,2 km/h (1 Bft) S 180 0 min 0,0 UV-I 0 W/m 6,7 C 7,9 C 4,8 km/h (1 Bft)
18.03.2024 01:51 7,9 C 7,2 C 93 % 1018,3 hPa 0,0 l/m 3,2 km/h (1 Bft) S 180 0 min 0,0 UV-I 0 W/m 6,8 C 7,9 C 4,8 km/h (1 Bft)
18.03.2024 01:52 7,9 C 7,2 C 93 % 1018,4 hPa 0,0 l/m 1,6 km/h (1 Bft) S 180 0 min 0,0 UV-I 0 W/m 6,8 C 7,9 C 3,2 km/h (1 Bft)
18.03.2024 01:53 7,8 C 7,2 C 92 % 1018,3 hPa 0,0 l/m 1,6 km/h (1 Bft) S 180 0 min 0,0 UV-I 0 W/m 6,6 C 7,8 C 4,8 km/h (1 Bft)
18.03.2024 01:54 7,9 C 7,2 C 93 % 1018,3 hPa 0,0 l/m 1,6 km/h (1 Bft) S 180 0 min 0,0 UV-I 0 W/m 6,8 C 7,9 C 3,2 km/h (1 Bft)
18.03.2024 01:55 7,8 C 7,2 C 92 % 1018,3 hPa 0,0 l/m 1,6 km/h (1 Bft) S 180 0 min 0,0 UV-I 0 W/m 6,6 C 7,8 C 4,8 km/h (1 Bft)
18.03.2024 01:56 7,8 C 7,2 C 92 % 1018,3 hPa 0,0 l/m 3,2 km/h (1 Bft) S 180 0 min 0,0 UV-I 0 W/m 6,6 C 7,8 C 4,8 km/h (1 Bft)
18.03.2024 01:57 7,9 C 7,2 C 92 % 1018,3 hPa 0,0 l/m 3,2 km/h (1 Bft) S 180 0 min 0,0 UV-I 0 W/m 6,7 C 7,9 C 6,4 km/h (2 Bft)
18.03.2024 01:58 7,9 C 7,2 C 92 % 1018,2 hPa 0,0 l/m 3,2 km/h (1 Bft) S 180 0 min 0,0 UV-I 0 W/m 6,7 C 7,9 C 3,2 km/h (1 Bft)
18.03.2024 01:59 7,8 C 7,2 C 93 % 1018,3 hPa 0,0 l/m 3,2 km/h (1 Bft) S 180 0 min 0,0 UV-I 0 W/m 6,7 C 7,8 C 3,2 km/h (1 Bft)
18.03.2024 02:00 7,9 C 7,2 C 93 % 1018,2 hPa 0,0 l/m 1,6 km/h (1 Bft) S 180 0 min 0,0 UV-I 0 W/m 6,8 C 7,9 C 4,8 km/h (1 Bft)
18.03.2024 02:01 7,8 C 7,2 C 92 % 1018,3 hPa 0,0 l/m 1,6 km/h (1 Bft) S 180 0 min 0,0 UV-I 0 W/m 6,6 C 7,8 C 3,2 km/h (1 Bft)
18.03.2024 02:02 7,8 C 7,2 C 93 % 1018,2 hPa 0,0 l/m 1,6 km/h (1 Bft) S 180 0 min 0,0 UV-I 0 W/m 6,7 C 7,8 C 3,2 km/h (1 Bft)
18.03.2024 02:03 7,9 C 7,2 C 93 % 1018,2 hPa 0,0 l/m 1,6 km/h (1 Bft) S 180 0 min 0,0 UV-I 0 W/m 6,8 C 7,9 C 3,2 km/h (1 Bft)
18.03.2024 02:04 7,8 C 7,2 C 93 % 1018,3 hPa 0,0 l/m 3,2 km/h (1 Bft) S 180 0 min 0,0 UV-I 0 W/m 6,7 C 7,8 C 3,2 km/h (1 Bft)
18.03.2024 02:05 7,9 C 7,2 C 93 % 1018,2 hPa 0,0 l/m 1,6 km/h (1 Bft) S 180 0 min 0,0 UV-I 0 W/m 6,8 C 7,9 C 3,2 km/h (1 Bft)
18.03.2024 02:06 7,9 C 7,2 C 93 % 1018,2 hPa 0,0 l/m 4,8 km/h (1 Bft) S 180 0 min 0,0 UV-I 0 W/m 6,8 C 7,9 C 8,0 km/h (2 Bft)
18.03.2024 02:07 7,9 C 7,2 C 93 % 1018,3 hPa 0,0 l/m 3,2 km/h (1 Bft) S 180 0 min 0,0 UV-I 0 W/m 6,8 C 7,9 C 4,8 km/h (1 Bft)
18.03.2024 02:08 7,9 C 7,2 C 93 % 1018,1 hPa 0,0 l/m 3,2 km/h (1 Bft) S 180 0 min 0,0 UV-I 0 W/m 6,8 C 7,9 C 4,8 km/h (1 Bft)
18.03.2024 02:09 7,9 C 7,2 C 93 % 1018,2 hPa 0,0 l/m 3,2 km/h (1 Bft) S 180 0 min 0,0 UV-I 0 W/m 6,8 C 7,9 C 4,8 km/h (1 Bft)
18.03.2024 02:10 7,9 C 7,2 C 93 % 1018,2 hPa 0,0 l/m 3,2 km/h (1 Bft) S 180 0 min 0,0 UV-I 0 W/m 6,8 C 7,9 C 4,8 km/h (1 Bft)
18.03.2024 02:11 7,9 C 7,2 C 92 % 1018,3 hPa 0,0 l/m 3,2 km/h (1 Bft) S 180 0 min 0,0 UV-I 0 W/m 6,7 C 7,9 C 3,2 km/h (1 Bft)
18.03.2024 02:12 7,9 C 7,2 C 92 % 1018,2 hPa 0,0 l/m 3,2 km/h (1 Bft) S 180 0 min 0,0 UV-I 0 W/m 6,7 C 7,9 C 3,2 km/h (1 Bft)
18.03.2024 02:13 7,9 C 7,2 C 93 % 1018,2 hPa 0,0 l/m 1,6 km/h (1 Bft) S 180 0 min 0,0 UV-I 0 W/m 6,8 C 7,9 C 3,2 km/h (1 Bft)
18.03.2024 02:14 7,9 C 7,2 C 93 % 1018,3 hPa 0,0 l/m 1,6 km/h (1 Bft) S 180 0 min 0,0 UV-I 0 W/m 6,8 C 7,9 C 3,2 km/h (1 Bft)
18.03.2024 02:15 7,9 C 7,2 C 93 % 1018,2 hPa 0,0 l/m 1,6 km/h (1 Bft) S 180 0 min 0,0 UV-I 0 W/m 6,8 C 7,9 C 1,6 km/h (1 Bft)
18.03.2024 02:16 7,9 C 7,2 C 92 % 1018,2 hPa 0,0 l/m 0,0 km/h (0 Bft) S 180 0 min 0,0 UV-I 0 W/m 6,7 C 7,9 C 1,6 km/h (1 Bft)
18.03.2024 02:17 7,9 C 7,2 C 92 % 1018,2 hPa 0,0 l/m 0,0 km/h (0 Bft) S 180 0 min 0,0 UV-I 0 W/m 6,7 C 7,9 C 1,6 km/h (1 Bft)
18.03.2024 02:18 7,9 C 7,2 C 93 % 1018,2 hPa 0,0 l/m 0,0 km/h (0 Bft) N 0 0 min 0,0 UV-I 0 W/m 6,8 C 7,9 C 0,0 km/h (0 Bft)
18.03.2024 02:19 7,9 C 7,2 C 93 % 1018,2 hPa 0,0 l/m 0,0 km/h (0 Bft) N 0 0 min 0,0 UV-I 0 W/m 6,8 C 7,9 C 0,0 km/h (0 Bft)
18.03.2024 02:20 7,9 C 7,2 C 92 % 1018,1 hPa 0,0 l/m 1,6 km/h (1 Bft) S 180 0 min 0,0 UV-I 0 W/m 6,7 C 7,9 C 3,2 km/h (1 Bft)
18.03.2024 02:21 7,9 C 7,2 C 93 % 1018,1 hPa 0,0 l/m 1,6 km/h (1 Bft) S 180 0 min 0,0 UV-I 0 W/m 6,8 C 7,9 C 3,2 km/h (1 Bft)
18.03.2024 02:22 7,9 C 7,2 C 93 % 1018,1 hPa 0,0 l/m 1,6 km/h (1 Bft) S 180 0 min 0,0 UV-I 0 W/m 6,8 C 7,9 C 1,6 km/h (1 Bft)
18.03.2024 02:23 7,9 C 7,2 C 93 % 1018,0 hPa 0,0 l/m 0,0 km/h (0 Bft) N 0 0 min 0,0 UV-I 0 W/m 6,8 C 7,9 C 0,0 km/h (0 Bft)
18.03.2024 02:24 7,9 C 7,2 C 92 % 1018,0 hPa 0,0 l/m 0,0 km/h (0 Bft) N 0 0 min 0,0 UV-I 0 W/m 6,7 C 7,9 C 0,0 km/h (0 Bft)
18.03.2024 02:25 7,9 C 7,2 C 92 % 1018,1 hPa 0,0 l/m 0,0 km/h (0 Bft) N 0 0 min 0,0 UV-I 0 W/m 6,7 C 7,9 C 0,0 km/h (0 Bft)
18.03.2024 02:26 7,9 C 7,2 C 93 % 1018,0 hPa 0,0 l/m 1,6 km/h (1 Bft) S 180 0 min 0,0 UV-I 0 W/m 6,8 C 7,9 C 3,2 km/h (1 Bft)
18.03.2024 02:27 7,9 C 7,2 C 93 % 1018,0 hPa 0,0 l/m 1,6 km/h (1 Bft) S 180 0 min 0,0 UV-I 0 W/m 6,8 C 7,9 C 3,2 km/h (1 Bft)
18.03.2024 02:28 8,0 C 7,2 C 93 % 1018,0 hPa 0,0 l/m 1,6 km/h (1 Bft) S 180 0 min 0,0 UV-I 0 W/m 6,9 C 8,0 C 1,6 km/h (1 Bft)
18.03.2024 02:29 7,9 C 7,2 C 93 % 1018,0 hPa 0,0 l/m 0,0 km/h (0 Bft) N 0 0 min 0,0 UV-I 0 W/m 6,8 C 7,9 C 0,0 km/h (0 Bft)
18.03.2024 02:30 7,9 C 7,2 C 93 % 1018,0 hPa 0,0 l/m 0,0 km/h (0 Bft) N 0 0 min 0,0 UV-I 0 W/m 6,8 C 7,9 C 0,0 km/h (0 Bft)
18.03.2024 02:31 7,9 C 7,2 C 93 % 1017,9 hPa 0,0 l/m 0,0 km/h (0 Bft) N 0 0 min 0,0 UV-I 0 W/m 6,8 C 7,9 C 0,0 km/h (0 Bft)
18.03.2024 02:32 7,9 C 7,2 C 93 % 1018,0 hPa 0,0 l/m 0,0 km/h (0 Bft) S 180 0 min 0,0 UV-I 0 W/m 6,8 C 7,9 C 1,6 km/h (1 Bft)
18.03.2024 02:33 7,9 C 7,2 C 93 % 1018,0 hPa 0,0 l/m 0,0 km/h (0 Bft) S 180 0 min 0,0 UV-I 0 W/m 6,8 C 7,9 C 1,6 km/h (1 Bft)
18.03.2024 02:34 7,9 C 7,2 C 93 % 1017,9 hPa 0,0 l/m 0,0 km/h (0 Bft) N 0 0 min 0,0 UV-I 0 W/m 6,8 C 7,9 C 0,0 km/h (0 Bft)
18.03.2024 02:35 7,9 C 7,2 C 93 % 1017,9 hPa 0,0 l/m 0,0 km/h (0 Bft) N 0 0 min 0,0 UV-I 0 W/m 6,8 C 7,9 C 0,0 km/h (0 Bft)
18.03.2024 02:36 7,9 C 7,2 C 93 % 1017,9 hPa 0,0 l/m 0,0 km/h (0 Bft) N 0 0 min 0,0 UV-I 0 W/m 6,8 C 7,9 C 0,0 km/h (0 Bft)
18.03.2024 02:37 7,9 C 7,2 C 93 % 1017,9 hPa 0,0 l/m 0,0 km/h (0 Bft) N 0 0 min 0,0 UV-I 0 W/m 6,8 C 7,9 C 0,0 km/h (0 Bft)
18.03.2024 02:38 7,9 C 7,2 C 93 % 1017,9 hPa 0,0 l/m 0,0 km/h (0 Bft) N 0 0 min 0,0 UV-I 0 W/m 6,8 C 7,9 C 0,0 km/h (0 Bft)
18.03.2024 02:39 7,9 C 7,2 C 93 % 1017,9 hPa 0,0 l/m 0,0 km/h (0 Bft) N 0 0 min 0,0 UV-I 0 W/m 6,8 C 7,9 C 0,0 km/h (0 Bft)
18.03.2024 02:40 7,9 C 7,2 C 93 % 1017,9 hPa 0,0 l/m 0,0 km/h (0 Bft) N 0 0 min 0,0 UV-I 0 W/m 6,8 C 7,9 C 0,0 km/h (0 Bft)
18.03.2024 02:41 7,9 C 7,2 C 93 % 1017,9 hPa 0,0 l/m 0,0 km/h (0 Bft) N 0 0 min 0,0 UV-I 0 W/m 6,8 C 7,9 C 0,0 km/h (0 Bft)
18.03.2024 02:42 7,8 C 7,2 C 93 % 1018,1 hPa 0,0 l/m 0,0 km/h (0 Bft) S 180 0 min 0,0 UV-I 0 W/m 6,7 C 7,8 C 1,6 km/h (1 Bft)
18.03.2024 02:43 7,9 C 7,2 C 93 % 1017,9 hPa 0,0 l/m 0,0 km/h (0 Bft) N 0 0 min 0,0 UV-I 0 W/m 6,8 C 7,9 C 0,0 km/h (0 Bft)
18.03.2024 02:44 7,8 C 7,2 C 93 % 1017,9 hPa 0,0 l/m 0,0 km/h (0 Bft) N 0 0 min 0,0 UV-I 0 W/m 6,7 C 7,8 C 0,0 km/h (0 Bft)
18.03.2024 02:45 7,9 C 7,2 C 93 % 1017,9 hPa 0,0 l/m 0,0 km/h (0 Bft) N 0 0 min 0,0 UV-I 0 W/m 6,8 C 7,9 C 0,0 km/h (0 Bft)
18.03.2024 02:46 7,8 C 7,2 C 93 % 1017,9 hPa 0,0 l/m 0,0 km/h (0 Bft) S 180 0 min 0,0 UV-I 0 W/m 6,7 C 7,8 C 1,6 km/h (1 Bft)
18.03.2024 02:47 7,9 C 7,2 C 93 % 1017,8 hPa 0,0 l/m 1,6 km/h (1 Bft) S 180 0 min 0,0 UV-I 0 W/m 6,8 C 7,9 C 1,6 km/h (1 Bft)
18.03.2024 02:48 7,8 C 7,2 C 93 % 1017,9 hPa 0,0 l/m 0,0 km/h (0 Bft) N 0 0 min 0,0 UV-I 0 W/m 6,7 C 7,8 C 0,0 km/h (0 Bft)
18.03.2024 02:49 7,8 C 7,2 C 93 % 1017,9 hPa 0,0 l/m 0,0 km/h (0 Bft) S 180 0 min 0,0 UV-I 0 W/m 6,7 C 7,8 C 1,6 km/h (1 Bft)
18.03.2024 02:50 7,8 C 7,2 C 93 % 1017,9 hPa 0,0 l/m 1,6 km/h (1 Bft) S 180 0 min 0,0 UV-I 0 W/m 6,7 C 7,8 C 1,6 km/h (1 Bft)
18.03.2024 02:51 7,9 C 7,2 C 93 % 1017,9 hPa 0,0 l/m 1,6 km/h (1 Bft) S 180 0 min 0,0 UV-I 0 W/m 6,8 C 7,9 C 4,8 km/h (1 Bft)
18.03.2024 02:52 7,9 C 7,2 C 93 % 1017,9 hPa 0,0 l/m 1,6 km/h (1 Bft) S 180 0 min 0,0 UV-I 0 W/m 6,8 C 7,9 C 3,2 km/h (1 Bft)
18.03.2024 02:53 7,9 C 7,2 C 93 % 1017,8 hPa 0,0 l/m 1,6 km/h (1 Bft) S 180 0 min 0,0 UV-I 0 W/m 6,8 C 7,9 C 3,2 km/h (1 Bft)
18.03.2024 02:54 7,9 C 7,2 C 93 % 1017,9 hPa 0,0 l/m 3,2 km/h (1 Bft) S 180 0 min 0,0 UV-I 0 W/m 6,8 C 7,9 C 4,8 km/h (1 Bft)
18.03.2024 02:55 7,9 C 7,2 C 93 % 1017,7 hPa 0,0 l/m 1,6 km/h (1 Bft) S 180 0 min 0,0 UV-I 0 W/m 6,8 C 7,9 C 3,2 km/h (1 Bft)
18.03.2024 02:56 7,9 C 7,2 C 93 % 1017,7 hPa 0,0 l/m 1,6 km/h (1 Bft) S 180 0 min 0,0 UV-I 0 W/m 6,8 C 7,9 C 1,6 km/h (1 Bft)
18.03.2024 02:57 7,9 C 7,2 C 93 % 1017,8 hPa 0,0 l/m 1,6 km/h (1 Bft) S 180 0 min 0,0 UV-I 0 W/m 6,8 C 7,9 C 3,2 km/h (1 Bft)
18.03.2024 02:58 7,9 C 7,2 C 93 % 1017,8 hPa 0,0 l/m 3,2 km/h (1 Bft) S 180 0 min 0,0 UV-I 0 W/m 6,8 C 7,9 C 4,8 km/h (1 Bft)
18.03.2024 02:59 7,9 C 7,2 C 93 % 1017,8 hPa 0,0 l/m 1,6 km/h (1 Bft) S 180 0 min 0,0 UV-I 0 W/m 6,8 C 7,9 C 3,2 km/h (1 Bft)
18.03.2024 03:00 7,9 C 7,2 C 93 % 1017,7 hPa 0,0 l/m 1,6 km/h (1 Bft) S 180 0 min 0,0 UV-I 0 W/m 6,8 C 7,9 C 3,2 km/h (1 Bft)
18.03.2024 03:01 7,9 C 7,2 C 93 % 1017,7 hPa 0,0 l/m 1,6 km/h (1 Bft) S 180 0 min 0,0 UV-I 0 W/m 6,8 C 7,9 C 3,2 km/h (1 Bft)
18.03.2024 03:02 7,9 C 7,2 C 93 % 1017,7 hPa 0,0 l/m 1,6 km/h (1 Bft) S 180 0 min 0,0 UV-I 0 W/m 6,8 C 7,9 C 3,2 km/h (1 Bft)
18.03.2024 03:03 7,9 C 7,2 C 93 % 1017,7 hPa 0,0 l/m 1,6 km/h (1 Bft) S 180 0 min 0,0 UV-I 0 W/m 6,8 C 7,9 C 1,6 km/h (1 Bft)
18.03.2024 03:04 7,9 C 7,2 C 93 % 1017,7 hPa 0,0 l/m 0,0 km/h (0 Bft) S 180 0 min 0,0 UV-I 0 W/m 6,8 C 7,9 C 1,6 km/h (1 Bft)
18.03.2024 03:05 7,9 C 7,2 C 93 % 1017,7 hPa 0,0 l/m 1,6 km/h (1 Bft) S 180 0 min 0,0 UV-I 0 W/m 6,8 C 7,9 C 4,8 km/h (1 Bft)
18.03.2024 03:06 7,9 C 7,2 C 93 % 1017,7 hPa 0,0 l/m 0,0 km/h (0 Bft) S 180 0 min 0,0 UV-I 0 W/m 6,8 C 7,9 C 1,6 km/h (1 Bft)
18.03.2024 03:07 8,0 C 7,2 C 93 % 1017,7 hPa 0,0 l/m 1,6 km/h (1 Bft) S 180 0 min 0,0 UV-I 0 W/m 6,9 C 8,0 C 3,2 km/h (1 Bft)
18.03.2024 03:08 7,9 C 7,2 C 93 % 1017,7 hPa 0,0 l/m 1,6 km/h (1 Bft) S 180 0 min 0,0 UV-I 0 W/m 6,8 C 7,9 C 3,2 km/h (1 Bft)
18.03.2024 03:09 7,9 C 7,2 C 93 % 1017,7 hPa 0,0 l/m 0,0 km/h (0 Bft) S 180 0 min 0,0 UV-I 0 W/m 6,8 C 7,9 C 1,6 km/h (1 Bft)
18.03.2024 03:10 7,9 C 7,2 C 93 % 1017,6 hPa 0,0 l/m 0,0 km/h (0 Bft) S 180 0 min 0,0 UV-I 0 W/m 6,8 C 7,9 C 1,6 km/h (1 Bft)
18.03.2024 03:11 7,9 C 7,2 C 93 % 1017,6 hPa 0,0 l/m 1,6 km/h (1 Bft) S 180 0 min 0,0 UV-I 0 W/m 6,8 C 7,9 C 3,2 km/h (1 Bft)
18.03.2024 03:12 7,9 C 7,2 C 93 % 1017,6 hPa 0,0 l/m 3,2 km/h (1 Bft) S 180 0 min 0,0 UV-I 0 W/m 6,8 C 7,9 C 6,4 km/h (2 Bft)
18.03.2024 03:13 7,9 C 7,2 C 93 % 1017,7 hPa 0,0 l/m 4,8 km/h (1 Bft) S 180 0 min 0,0 UV-I 0 W/m 6,8 C 7,9 C 6,4 km/h (2 Bft)
18.03.2024 03:14 7,9 C 7,2 C 93 % 1017,6 hPa 0,0 l/m 4,8 km/h (1 Bft) S 180 0 min 0,0 UV-I 0 W/m 6,8 C 7,9 C 4,8 km/h (1 Bft)
18.03.2024 03:15 7,9 C 7,2 C 93 % 1017,7 hPa 0,0 l/m 3,2 km/h (1 Bft) S 180 0 min 0,0 UV-I 0 W/m 6,8 C 7,9 C 4,8 km/h (1 Bft)
18.03.2024 03:16 7,9 C 7,2 C 93 % 1017,6 hPa 0,0 l/m 3,2 km/h (1 Bft) S 180 0 min 0,0 UV-I 0 W/m 6,8 C 7,9 C 4,8 km/h (1 Bft)
18.03.2024 03:17 7,9 C 7,2 C 93 % 1017,7 hPa 0,0 l/m 1,6 km/h (1 Bft) S 180 0 min 0,0 UV-I 0 W/m 6,8 C 7,9 C 4,8 km/h (1 Bft)
18.03.2024 03:18 7,9 C 7,2 C 93 % 1017,6 hPa 0,0 l/m 1,6 km/h (1 Bft) S 180 0 min 0,0 UV-I 0 W/m 6,8 C 7,9 C 3,2 km/h (1 Bft)
18.03.2024 03:19 7,9 C 7,2 C 93 % 1017,7 hPa 0,0 l/m 0,0 km/h (0 Bft) S 180 0 min 0,0 UV-I 0 W/m 6,8 C 7,9 C 1,6 km/h (1 Bft)
18.03.2024 03:20 7,9 C 7,2 C 93 % 1017,6 hPa 0,0 l/m 1,6 km/h (1 Bft) S 180 0 min 0,0 UV-I 0 W/m 6,8 C 7,9 C 3,2 km/h (1 Bft)
18.03.2024 03:21 7,9 C 7,2 C 93 % 1017,7 hPa 0,0 l/m 1,6 km/h (1 Bft) S 180 0 min 0,0 UV-I 0 W/m 6,8 C 7,9 C 1,6 km/h (1 Bft)
18.03.2024 03:22 7,9 C 7,2 C 93 % 1017,6 hPa 0,0 l/m 1,6 km/h (1 Bft) S 180 0 min 0,0 UV-I 0 W/m 6,8 C 7,9 C 3,2 km/h (1 Bft)
18.03.2024 03:23 7,9 C 7,2 C 93 % 1017,5 hPa 0,0 l/m 1,6 km/h (1 Bft) S 180 0 min 0,0 UV-I 0 W/m 6,8 C 7,9 C 3,2 km/h (1 Bft)
18.03.2024 03:24 7,9 C 7,2 C 93 % 1017,5 hPa 0,0 l/m 3,2 km/h (1 Bft) S 180 0 min 0,0 UV-I 0 W/m 6,8 C 7,9 C 3,2 km/h (1 Bft)
18.03.2024 03:25 7,9 C 7,2 C 93 % 1017,6 hPa 0,0 l/m 1,6 km/h (1 Bft) S 180 0 min 0,0 UV-I 0 W/m 6,8 C 7,9 C 3,2 km/h (1 Bft)
18.03.2024 03:26 7,9 C 7,2 C 93 % 1017,5 hPa 0,0 l/m 1,6 km/h (1 Bft) S 180 0 min 0,0 UV-I 0 W/m 6,8 C 7,9 C 3,2 km/h (1 Bft)
18.03.2024 03:27 7,9 C 7,2 C 93 % 1017,4 hPa 0,0 l/m 1,6 km/h (1 Bft) S 180 0 min 0,0 UV-I 0 W/m 6,8 C 7,9 C 3,2 km/h (1 Bft)
18.03.2024 03:28 7,9 C 7,2 C 93 % 1017,5 hPa 0,0 l/m 0,0 km/h (0 Bft) S 180 0 min 0,0 UV-I 0 W/m 6,8 C 7,9 C 1,6 km/h (1 Bft)
18.03.2024 03:29 7,9 C 7,2 C 93 % 1017,4 hPa 0,0 l/m 1,6 km/h (1 Bft) S 180 0 min 0,0 UV-I 0 W/m 6,8 C 7,9 C 1,6 km/h (1 Bft)
18.03.2024 03:30 7,9 C 7,2 C 93 % 1017,5 hPa 0,0 l/m 0,0 km/h (0 Bft) S 180 0 min 0,0 UV-I 0 W/m 6,8 C 7,9 C 1,6 km/h (1 Bft)
18.03.2024 03:31 7,9 C 7,2 C 93 % 1017,4 hPa 0,0 l/m 1,6 km/h (1 Bft) S 180 0 min 0,0 UV-I 0 W/m 6,8 C 7,9 C 3,2 km/h (1 Bft)
18.03.2024 03:32 7,9 C 7,2 C 93 % 1017,5 hPa 0,0 l/m 1,6 km/h (1 Bft) S 180 0 min 0,0 UV-I 0 W/m 6,8 C 7,9 C 3,2 km/h (1 Bft)
18.03.2024 03:33 7,9 C 7,2 C 93 % 1017,5 hPa 0,0 l/m 1,6 km/h (1 Bft) S 180 0 min 0,0 UV-I 0 W/m 6,8 C 7,9 C 3,2 km/h (1 Bft)
18.03.2024 03:34 7,9 C 7,2 C 93 % 1017,5 hPa 0,0 l/m 3,2 km/h (1 Bft) S 180 0 min 0,0 UV-I 0 W/m 6,8 C 7,9 C 6,4 km/h (2 Bft)
18.03.2024 03:35 7,9 C 7,2 C 93 % 1017,5 hPa 0,0 l/m 3,2 km/h (1 Bft) S 180 0 min 0,0 UV-I 0 W/m 6,8 C 7,9 C 6,4 km/h (2 Bft)
18.03.2024 03:36 7,9 C 7,2 C 93 % 1017,4 hPa 0,0 l/m 3,2 km/h (1 Bft) S 180 0 min 0,0 UV-I 0 W/m 6,8 C 7,9 C 4,8 km/h (1 Bft)
18.03.2024 03:37 7,9 C 7,2 C 93 % 1017,3 hPa 0,0 l/m 1,6 km/h (1 Bft) S 180 0 min 0,0 UV-I 0 W/m 6,8 C 7,9 C 4,8 km/h (1 Bft)
18.03.2024 03:38 7,9 C 7,2 C 93 % 1017,4 hPa 0,0 l/m 4,8 km/h (1 Bft) S 180 0 min 0,0 UV-I 0 W/m 6,8 C 7,9 C 4,8 km/h (1 Bft)
18.03.2024 03:39 7,9 C 7,2 C 93 % 1017,4 hPa 0,0 l/m 3,2 km/h (1 Bft) S 180 0 min 0,0 UV-I 0 W/m 6,8 C 7,9 C 4,8 km/h (1 Bft)
18.03.2024 03:40 7,9 C 7,2 C 93 % 1017,4 hPa 0,0 l/m 1,6 km/h (1 Bft) S 180 0 min 0,0 UV-I 0 W/m 6,8 C 7,9 C 3,2 km/h (1 Bft)
18.03.2024 03:41 7,9 C 7,2 C 93 % 1017,4 hPa 0,0 l/m 3,2 km/h (1 Bft) S 180 0 min 0,0 UV-I 0 W/m 6,8 C 7,9 C 6,4 km/h (2 Bft)
18.03.2024 03:42 7,9 C 7,2 C 93 % 1017,4 hPa 0,0 l/m 1,6 km/h (1 Bft) S 180 0 min 0,0 UV-I 0 W/m 6,8 C 7,9 C 3,2 km/h (1 Bft)
18.03.2024 03:43 7,9 C 7,2 C 93 % 1017,2 hPa 0,0 l/m 3,2 km/h (1 Bft) S 180 0 min 0,0 UV-I 0 W/m 6,8 C 7,9 C 4,8 km/h (1 Bft)
18.03.2024 03:44 7,9 C 7,2 C 93 % 1017,3 hPa 0,0 l/m 3,2 km/h (1 Bft) S 180 0 min 0,0 UV-I 0 W/m 6,8 C 7,9 C 3,2 km/h (1 Bft)
18.03.2024 03:45 7,9 C 7,2 C 93 % 1017,3 hPa 0,2 l/m 4,8 km/h (1 Bft) S 180 0 min 0,0 UV-I 0 W/m 6,8 C 7,9 C 8,0 km/h (2 Bft)
18.03.2024 03:46 7,9 C 7,2 C 93 % 1017,2 hPa 0,0 l/m 4,8 km/h (1 Bft) S 180 0 min 0,0 UV-I 0 W/m 6,8 C 7,9 C 6,4 km/h (2 Bft)
18.03.2024 03:47 7,9 C 7,2 C 93 % 1017,3 hPa 0,0 l/m 3,2 km/h (1 Bft) S 180 0 min 0,0 UV-I 0 W/m 6,8 C 7,9 C 4,8 km/h (1 Bft)
18.03.2024 03:48 7,9 C 7,2 C 93 % 1017,3 hPa 0,0 l/m 3,2 km/h (1 Bft) S 180 0 min 0,0 UV-I 0 W/m 6,8 C 7,9 C 4,8 km/h (1 Bft)
18.03.2024 03:49 7,9 C 7,2 C 93 % 1017,3 hPa 0,0 l/m 4,8 km/h (1 Bft) S 180 0 min 0,0 UV-I 0 W/m 6,8 C 7,9 C 6,4 km/h (2 Bft)
18.03.2024 03:50 7,9 C 7,2 C 93 % 1017,3 hPa 0,0 l/m 6,4 km/h (2 Bft) S 180 0 min 0,0 UV-I 0 W/m 6,8 C 7,9 C 8,0 km/h (2 Bft)
18.03.2024 03:51 7,9 C 7,2 C 93 % 1017,3 hPa 0,0 l/m 6,4 km/h (2 Bft) S 180 0 min 0,0 UV-I 0 W/m 6,8 C 7,9 C 8,0 km/h (2 Bft)
18.03.2024 03:52 7,9 C 7,2 C 93 % 1017,2 hPa 0,0 l/m 3,2 km/h (1 Bft) S 180 0 min 0,0 UV-I 0 W/m 6,8 C 7,9 C 4,8 km/h (1 Bft)
18.03.2024 03:53 7,9 C 7,2 C 93 % 1017,2 hPa 0,0 l/m 3,2 km/h (1 Bft) S 180 0 min 0,0 UV-I 0 W/m 6,8 C 7,9 C 4,8 km/h (1 Bft)
18.03.2024 03:54 7,9 C 7,2 C 93 % 1017,1 hPa 0,0 l/m 3,2 km/h (1 Bft) S 180 0 min 0,0 UV-I 0 W/m 6,8 C 7,9 C 4,8 km/h (1 Bft)
18.03.2024 03:55 7,9 C 7,2 C 93 % 1017,1 hPa 0,0 l/m 3,2 km/h (1 Bft) S 180 0 min 0,0 UV-I 0 W/m 6,8 C 7,9 C 6,4 km/h (2 Bft)
18.03.2024 03:56 7,9 C 7,2 C 93 % 1017,0 hPa 0,0 l/m 4,8 km/h (1 Bft) S 180 0 min 0,0 UV-I 0 W/m 6,8 C 7,9 C 8,0 km/h (2 Bft)
18.03.2024 03:57 7,9 C 7,2 C 93 % 1017,0 hPa 0,0 l/m 6,4 km/h (2 Bft) S 180 0 min 0,0 UV-I 0 W/m 6,8 C 7,9 C 6,4 km/h (2 Bft)
18.03.2024 03:58 7,9 C 7,2 C 93 % 1017,0 hPa 0,0 l/m 3,2 km/h (1 Bft) S 180 0 min 0,0 UV-I 0 W/m 6,8 C 7,9 C 4,8 km/h (1 Bft)
18.03.2024 03:59 7,8 C 7,2 C 93 % 1017,0 hPa 0,0 l/m 3,2 km/h (1 Bft) S 180 0 min 0,0 UV-I 0 W/m 6,7 C 7,8 C 4,8 km/h (1 Bft)
18.03.2024 04:00 7,9 C 7,2 C 93 % 1016,9 hPa 0,0 l/m 3,2 km/h (1 Bft) S 180 0 min 0,0 UV-I 0 W/m 6,8 C 7,9 C 4,8 km/h (1 Bft)
18.03.2024 04:01 7,9 C 7,2 C 93 % 1016,9 hPa 0,0 l/m 1,6 km/h (1 Bft) S 180 0 min 0,0 UV-I 0 W/m 6,8 C 7,9 C 1,6 km/h (1 Bft)
18.03.2024 04:02 7,9 C 7,2 C 93 % 1016,9 hPa 0,0 l/m 1,6 km/h (1 Bft) S 180 0 min 0,0 UV-I 0 W/m 6,8 C 7,9 C 4,8 km/h (1 Bft)
18.03.2024 04:03 7,9 C 7,2 C 93 % 1016,9 hPa 0,0 l/m 3,2 km/h (1 Bft) S 180 0 min 0,0 UV-I 0 W/m 6,8 C 7,9 C 4,8 km/h (1 Bft)
18.03.2024 04:04 7,8 C 7,2 C 93 % 1016,8 hPa 0,0 l/m 3,2 km/h (1 Bft) S 180 0 min 0,0 UV-I 0 W/m 6,7 C 7,8 C 4,8 km/h (1 Bft)
18.03.2024 04:05 7,9 C 7,2 C 93 % 1016,8 hPa 0,0 l/m 3,2 km/h (1 Bft) S 180 0 min 0,0 UV-I 0 W/m 6,8 C 7,9 C 3,2 km/h (1 Bft)
18.03.2024 04:06 7,9 C 7,2 C 93 % 1016,9 hPa 0,0 l/m 1,6 km/h (1 Bft) S 180 0 min 0,0 UV-I 0 W/m 6,8 C 7,9 C 3,2 km/h (1 Bft)
18.03.2024 04:07 7,9 C 7,2 C 93 % 1016,9 hPa 0,0 l/m 4,8 km/h (1 Bft) S 180 0 min 0,0 UV-I 0 W/m 6,8 C 7,9 C 6,4 km/h (2 Bft)
18.03.2024 04:08 7,9 C 7,2 C 93 % 1016,9 hPa 0,0 l/m 4,8 km/h (1 Bft) S 180 0 min 0,0 UV-I 0 W/m 6,8 C 7,9 C 6,4 km/h (2 Bft)
18.03.2024 04:09 7,9 C 7,2 C 93 % 1016,8 hPa 0,0 l/m 3,2 km/h (1 Bft) S 180 0 min 0,0 UV-I 0 W/m 6,8 C 7,9 C 4,8 km/h (1 Bft)
18.03.2024 04:10 7,8 C 7,2 C 93 % 1016,9 hPa 0,0 l/m 3,2 km/h (1 Bft) S 180 0 min 0,0 UV-I 0 W/m 6,7 C 7,8 C 4,8 km/h (1 Bft)
18.03.2024 04:11 7,9 C 7,2 C 93 % 1016,9 hPa 0,0 l/m 1,6 km/h (1 Bft) S 180 0 min 0,0 UV-I 0 W/m 6,8 C 7,9 C 3,2 km/h (1 Bft)
18.03.2024 04:12 7,9 C 7,2 C 93 % 1016,9 hPa 0,0 l/m 3,2 km/h (1 Bft) S 180 0 min 0,0 UV-I 0 W/m 6,8 C 7,9 C 3,2 km/h (1 Bft)
18.03.2024 04:13 7,9 C 7,2 C 93 % 1016,9 hPa 0,0 l/m 3,2 km/h (1 Bft) S 180 0 min 0,0 UV-I 0 W/m 6,8 C 7,9 C 4,8 km/h (1 Bft)
18.03.2024 04:14 7,9 C 7,2 C 93 % 1016,9 hPa 0,0 l/m 3,2 km/h (1 Bft) S 180 0 min 0,0 UV-I 0 W/m 6,8 C 7,9 C 4,8 km/h (1 Bft)
18.03.2024 04:15 7,9 C 7,2 C 93 % 1017,0 hPa 0,0 l/m 1,6 km/h (1 Bft) S 180 0 min 0,0 UV-I 0 W/m 6,8 C 7,9 C 3,2 km/h (1 Bft)
18.03.2024 04:16 7,9 C 7,2 C 93 % 1017,0 hPa 0,0 l/m 1,6 km/h (1 Bft) S 180 0 min 0,0 UV-I 0 W/m 6,8 C 7,9 C 3,2 km/h (1 Bft)
18.03.2024 04:17 7,9 C 7,2 C 93 % 1016,9 hPa 0,0 l/m 1,6 km/h (1 Bft) S 180 0 min 0,0 UV-I 0 W/m 6,8 C 7,9 C 3,2 km/h (1 Bft)
18.03.2024 04:18 7,9 C 7,2 C 93 % 1016,9 hPa 0,0 l/m 0,0 km/h (0 Bft) S 180 0 min 0,0 UV-I 0 W/m 6,8 C 7,9 C 1,6 km/h (1 Bft)
18.03.2024 04:19 7,9 C 7,2 C 93 % 1016,8 hPa 0,0 l/m 0,0 km/h (0 Bft) S 180 0 min 0,0 UV-I 0 W/m 6,8 C 7,9 C 1,6 km/h (1 Bft)
18.03.2024 04:20 7,9 C 7,2 C 93 % 1016,8 hPa 0,0 l/m 1,6 km/h (1 Bft) S 180 0 min 0,0 UV-I 0 W/m 6,8 C 7,9 C 3,2 km/h (1 Bft)
18.03.2024 04:21 7,9 C 7,2 C 93 % 1016,8 hPa 0,0 l/m 1,6 km/h (1 Bft) S 180 0 min 0,0 UV-I 0 W/m 6,8 C 7,9 C 3,2 km/h (1 Bft)
18.03.2024 04:22 7,8 C 7,2 C 93 % 1016,8 hPa 0,0 l/m 3,2 km/h (1 Bft) S 180 0 min 0,0 UV-I 0 W/m 6,7 C 7,8 C 3,2 km/h (1 Bft)
18.03.2024 04:23 7,9 C 7,2 C 93 % 1016,8 hPa 0,0 l/m 3,2 km/h (1 Bft) S 180 0 min 0,0 UV-I 0 W/m 6,8 C 7,9 C 4,8 km/h (1 Bft)
18.03.2024 04:24 7,9 C 7,2 C 93 % 1016,9 hPa 0,0 l/m 3,2 km/h (1 Bft) S 180 0 min 0,0 UV-I 0 W/m 6,8 C 7,9 C 4,8 km/h (1 Bft)
18.03.2024 04:25 7,9 C 7,2 C 93 % 1016,8 hPa 0,0 l/m 3,2 km/h (1 Bft) S 180 0 min 0,0 UV-I 0 W/m 6,8 C 7,9 C 4,8 km/h (1 Bft)
18.03.2024 04:26 7,9 C 7,2 C 93 % 1016,8 hPa 0,0 l/m 3,2 km/h (1 Bft) S 180 0 min 0,0 UV-I 0 W/m 6,8 C 7,9 C 4,8 km/h (1 Bft)
18.03.2024 04:27 7,8 C 7,2 C 93 % 1016,9 hPa 0,0 l/m 4,8 km/h (1 Bft) S 180 0 min 0,0 UV-I 0 W/m 6,7 C 7,8 C 6,4 km/h (2 Bft)
18.03.2024 04:28 7,9 C 7,2 C 93 % 1016,9 hPa 0,0 l/m 4,8 km/h (1 Bft) S 180 0 min 0,0 UV-I 0 W/m 6,8 C 7,9 C 4,8 km/h (1 Bft)
18.03.2024 04:29 7,9 C 7,2 C 93 % 1016,8 hPa 0,0 l/m 4,8 km/h (1 Bft) S 180 0 min 0,0 UV-I 0 W/m 6,8 C 7,9 C 6,4 km/h (2 Bft)
18.03.2024 04:30 7,9 C 7,2 C 93 % 1016,9 hPa 0,0 l/m 1,6 km/h (1 Bft) S 180 0 min 0,0 UV-I 0 W/m 6,8 C 7,9 C 3,2 km/h (1 Bft)
18.03.2024 04:31 7,8 C 7,2 C 93 % 1016,8 hPa 0,0 l/m 3,2 km/h (1 Bft) S 180 0 min 0,0 UV-I 0 W/m 6,7 C 7,8 C 3,2 km/h (1 Bft)
18.03.2024 04:32 7,8 C 7,2 C 93 % 1016,8 hPa 0,0 l/m 3,2 km/h (1 Bft) S 180 0 min 0,0 UV-I 0 W/m 6,7 C 7,8 C 3,2 km/h (1 Bft)
18.03.2024 04:33 7,9 C 7,2 C 93 % 1016,8 hPa 0,0 l/m 1,6 km/h (1 Bft) S 180 0 min 0,0 UV-I 0 W/m 6,8 C 7,9 C 1,6 km/h (1 Bft)
18.03.2024 04:34 7,9 C 7,2 C 93 % 1016,8 hPa 0,0 l/m 0,0 km/h (0 Bft) S 180 0 min 0,0 UV-I 0 W/m 6,8 C 7,9 C 1,6 km/h (1 Bft)
18.03.2024 04:35 7,9 C 7,2 C 93 % 1016,9 hPa 0,0 l/m 3,2 km/h (1 Bft) S 180 0 min 0,0 UV-I 0 W/m 6,8 C 7,9 C 4,8 km/h (1 Bft)
18.03.2024 04:36 7,9 C 7,2 C 93 % 1016,8 hPa 0,0 l/m 3,2 km/h (1 Bft) S 180 0 min 0,0 UV-I 0 W/m 6,8 C 7,9 C 3,2 km/h (1 Bft)
18.03.2024 04:37 7,9 C 7,2 C 93 % 1016,7 hPa 0,0 l/m 1,6 km/h (1 Bft) S 180 0 min 0,0 UV-I 0 W/m 6,8 C 7,9 C 3,2 km/h (1 Bft)
18.03.2024 04:38 7,9 C 7,2 C 93 % 1016,8 hPa 0,0 l/m 3,2 km/h (1 Bft) S 180 0 min 0,0 UV-I 0 W/m 6,8 C 7,9 C 4,8 km/h (1 Bft)
18.03.2024 04:39 7,9 C 7,2 C 93 % 1016,8 hPa 0,0 l/m 1,6 km/h (1 Bft) S 180 0 min 0,0 UV-I 0 W/m 6,8 C 7,9 C 3,2 km/h (1 Bft)
18.03.2024 04:40 7,9 C 7,2 C 93 % 1016,8 hPa 0,0 l/m 1,6 km/h (1 Bft) S 180 0 min 0,0 UV-I 0 W/m 6,8 C 7,9 C 1,6 km/h (1 Bft)
18.03.2024 04:41 7,9 C 7,2 C 93 % 1016,8 hPa 0,0 l/m 0,0 km/h (0 Bft) S 180 0 min 0,0 UV-I 0 W/m 6,8 C 7,9 C 1,6 km/h (1 Bft)
18.03.2024 04:42 7,9 C 7,2 C 93 % 1016,7 hPa 0,0 l/m 0,0 km/h (0 Bft) S 180 0 min 0,0 UV-I 0 W/m 6,8 C 7,9 C 1,6 km/h (1 Bft)
18.03.2024 04:43 7,9 C 7,2 C 93 % 1016,8 hPa 0,0 l/m 1,6 km/h (1 Bft) S 180 0 min 0,0 UV-I 0 W/m 6,8 C 7,9 C 3,2 km/h (1 Bft)
18.03.2024 04:44 7,9 C 7,2 C 93 % 1016,8 hPa 0,0 l/m 0,0 km/h (0 Bft) N 0 0 min 0,0 UV-I 0 W/m 6,8 C 7,9 C 0,0 km/h (0 Bft)
18.03.2024 04:45 7,9 C 7,2 C 93 % 1016,7 hPa 0,0 l/m 0,0 km/h (0 Bft) N 0 0 min 0,0 UV-I 0 W/m 6,8 C 7,9 C 0,0 km/h (0 Bft)
18.03.2024 04:46 7,9 C 7,2 C 93 % 1016,7 hPa 0,0 l/m 0,0 km/h (0 Bft) S 180 0 min 0,0 UV-I 0 W/m 6,8 C 7,9 C 1,6 km/h (1 Bft)
18.03.2024 04:47 7,9 C 7,2 C 93 % 1016,7 hPa 0,0 l/m 0,0 km/h (0 Bft) S 180 0 min 0,0 UV-I 0 W/m 6,8 C 7,9 C 1,6 km/h (1 Bft)
18.03.2024 04:48 7,9 C 7,2 C 93 % 1016,7 hPa 0,0 l/m 0,0 km/h (0 Bft) S 180 0 min 0,0 UV-I 0 W/m 6,8 C 7,9 C 1,6 km/h (1 Bft)
18.03.2024 04:49 7,9 C 7,2 C 93 % 1016,6 hPa 0,0 l/m 0,0 km/h (0 Bft) S 180 0 min 0,0 UV-I 0 W/m 6,8 C 7,9 C 1,6 km/h (1 Bft)
18.03.2024 04:50 7,9 C 7,2 C 93 % 1016,7 hPa 0,0 l/m 0,0 km/h (0 Bft) S 180 0 min 0,0 UV-I 0 W/m 6,8 C 7,9 C 1,6 km/h (1 Bft)
18.03.2024 04:51 7,9 C 7,2 C 93 % 1016,7 hPa 0,0 l/m 0,0 km/h (0 Bft) S 180 0 min 0,0 UV-I 0 W/m 6,8 C 7,9 C 1,6 km/h (1 Bft)
18.03.2024 04:52 7,9 C 7,2 C 93 % 1016,6 hPa 0,0 l/m 0,0 km/h (0 Bft) N 0 0 min 0,0 UV-I 0 W/m 6,8 C 7,9 C 0,0 km/h (0 Bft)
18.03.2024 04:53 7,9 C 7,2 C 93 % 1016,6 hPa 0,0 l/m 0,0 km/h (0 Bft) N 0 0 min 0,0 UV-I 0 W/m 6,8 C 7,9 C 0,0 km/h (0 Bft)
18.03.2024 04:54 7,9 C 7,2 C 93 % 1016,7 hPa 0,0 l/m 0,0 km/h (0 Bft) N 0 0 min 0,0 UV-I 0 W/m 6,8 C 7,9 C 0,0 km/h (0 Bft)
18.03.2024 04:55 7,9 C 7,2 C 93 % 1016,7 hPa 0,0 l/m 0,0 km/h (0 Bft) S 180 0 min 0,0 UV-I 0 W/m 6,8 C 7,9 C 1,6 km/h (1 Bft)
18.03.2024 04:56 7,9 C 7,2 C 93 % 1016,6 hPa 0,0 l/m 0,0 km/h (0 Bft) N 0 0 min 0,0 UV-I 0 W/m 6,8 C 7,9 C 0,0 km/h (0 Bft)
18.03.2024 04:57 7,9 C 7,2 C 93 % 1016,6 hPa 0,0 l/m 0,0 km/h (0 Bft) S 180 0 min 0,0 UV-I 0 W/m 6,8 C 7,9 C 1,6 km/h (1 Bft)
18.03.2024 04:58 7,9 C 7,2 C 93 % 1016,6 hPa 0,0 l/m 0,0 km/h (0 Bft) N 0 0 min 0,0 UV-I 0 W/m 6,8 C 7,9 C 0,0 km/h (0 Bft)
18.03.2024 04:59 7,9 C 7,2 C 93 % 1016,7 hPa 0,0 l/m 0,0 km/h (0 Bft) N 0 0 min 0,0 UV-I 0 W/m 6,8 C 7,9 C 0,0 km/h (0 Bft)
18.03.2024 05:00 7,8 C 7,2 C 93 % 1016,6 hPa 0,0 l/m 0,0 km/h (0 Bft) N 0 0 min 0,0 UV-I 0 W/m 6,7 C 7,8 C 0,0 km/h (0 Bft)
18.03.2024 05:01 7,9 C 7,2 C 93 % 1016,6 hPa 0,0 l/m 0,0 km/h (0 Bft) S 180 0 min 0,0 UV-I 0 W/m 6,8 C 7,9 C 1,6 km/h (1 Bft)
18.03.2024 05:02 7,9 C 7,2 C 93 % 1016,6 hPa 0,0 l/m 0,0 km/h (0 Bft) N 0 0 min 0,0 UV-I 0 W/m 6,8 C 7,9 C 0,0 km/h (0 Bft)
18.03.2024 05:03 7,9 C 7,2 C 93 % 1016,5 hPa 0,0 l/m 0,0 km/h (0 Bft) S 180 0 min 0,0 UV-I 0 W/m 6,8 C 7,9 C 1,6 km/h (1 Bft)
18.03.2024 05:04 7,9 C 7,2 C 93 % 1016,7 hPa 0,0 l/m 1,6 km/h (1 Bft) S 180 0 min 0,0 UV-I 0 W/m 6,8 C 7,9 C 1,6 km/h (1 Bft)
18.03.2024 05:05 7,9 C 7,2 C 93 % 1016,7 hPa 0,0 l/m 1,6 km/h (1 Bft) S 180 0 min 0,0 UV-I 0 W/m 6,8 C 7,9 C 1,6 km/h (1 Bft)
18.03.2024 05:06 7,9 C 7,2 C 93 % 1016,6 hPa 0,0 l/m 1,6 km/h (1 Bft) S 180 0 min 0,0 UV-I 0 W/m 6,8 C 7,9 C 1,6 km/h (1 Bft)
18.03.2024 05:07 7,9 C 7,2 C 93 % 1016,7 hPa 0,0 l/m 0,0 km/h (0 Bft) S 180 0 min 0,0 UV-I 0 W/m 6,8 C 7,9 C 1,6 km/h (1 Bft)
18.03.2024 05:08 7,9 C 7,2 C 93 % 1016,6 hPa 0,0 l/m 1,6 km/h (1 Bft) S 180 0 min 0,0 UV-I 0 W/m 6,8 C 7,9 C 3,2 km/h (1 Bft)
18.03.2024 05:09 7,9 C 7,2 C 93 % 1016,8 hPa 0,0 l/m 1,6 km/h (1 Bft) S 180 0 min 0,0 UV-I 0 W/m 6,8 C 7,9 C 3,2 km/h (1 Bft)
18.03.2024 05:10 7,9 C 7,2 C 93 % 1016,7 hPa 0,0 l/m 1,6 km/h (1 Bft) S 180 0 min 0,0 UV-I 0 W/m 6,8 C 7,9 C 1,6 km/h (1 Bft)
18.03.2024 05:11 7,9 C 7,2 C 93 % 1016,7 hPa 0,0 l/m 1,6 km/h (1 Bft) S 180 0 min 0,0 UV-I 0 W/m 6,8 C 7,9 C 1,6 km/h (1 Bft)
18.03.2024 05:12 7,9 C 7,2 C 93 % 1016,6 hPa 0,0 l/m 1,6 km/h (1 Bft) S 180 0 min 0,0 UV-I 0 W/m 6,8 C 7,9 C 3,2 km/h (1 Bft)
18.03.2024 05:13 7,9 C 7,2 C 93 % 1016,7 hPa 0,0 l/m 0,0 km/h (0 Bft) S 180 0 min 0,0 UV-I 0 W/m 6,8 C 7,9 C 1,6 km/h (1 Bft)
18.03.2024 05:14 7,9 C 7,2 C 93 % 1016,6 hPa 0,0 l/m 0,0 km/h (0 Bft) N 0 0 min 0,0 UV-I 0 W/m 6,8 C 7,9 C 0,0 km/h (0 Bft)
18.03.2024 05:15 7,9 C 7,2 C 93 % 1016,7 hPa 0,0 l/m 0,0 km/h (0 Bft) S 180 0 min 0,0 UV-I 0 W/m 6,8 C 7,9 C 1,6 km/h (1 Bft)
18.03.2024 05:16 7,9 C 7,2 C 93 % 1016,6 hPa 0,0 l/m 0,0 km/h (0 Bft) N 0 0 min 0,0 UV-I 0 W/m 6,8 C 7,9 C 0,0 km/h (0 Bft)
18.03.2024 05:17 7,9 C 7,2 C 93 % 1016,7 hPa 0,0 l/m 1,6 km/h (1 Bft) S 180 0 min 0,0 UV-I 0 W/m 6,8 C 7,9 C 3,2 km/h (1 Bft)
18.03.2024 05:18 7,9 C 7,2 C 93 % 1016,7 hPa 0,0 l/m 0,0 km/h (0 Bft) S 180 0 min 0,0 UV-I 0 W/m 6,8 C 7,9 C 1,6 km/h (1 Bft)
18.03.2024 05:19 7,9 C 7,2 C 93 % 1016,7 hPa 0,0 l/m 3,2 km/h (1 Bft) S 180 0 min 0,0 UV-I 0 W/m 6,8 C 7,9 C 4,8 km/h (1 Bft)
18.03.2024 05:20 7,9 C 7,2 C 93 % 1016,7 hPa 0,0 l/m 1,6 km/h (1 Bft) S 180 0 min 0,0 UV-I 0 W/m 6,8 C 7,9 C 3,2 km/h (1 Bft)
18.03.2024 05:21 7,9 C 7,2 C 93 % 1016,7 hPa 0,0 l/m 0,0 km/h (0 Bft) S 180 0 min 0,0 UV-I 0 W/m 6,8 C 7,9 C 1,6 km/h (1 Bft)
18.03.2024 05:22 7,9 C 7,2 C 93 % 1016,7 hPa 0,0 l/m 1,6 km/h (1 Bft) S 180 0 min 0,0 UV-I 0 W/m 6,8 C 7,9 C 1,6 km/h (1 Bft)
18.03.2024 05:23 7,9 C 7,2 C 93 % 1016,6 hPa 0,0 l/m 3,2 km/h (1 Bft) S 180 0 min 0,0 UV-I 0 W/m 6,8 C 7,9 C 4,8 km/h (1 Bft)
18.03.2024 05:24 7,9 C 7,2 C 93 % 1016,7 hPa 0,0 l/m 6,4 km/h (2 Bft) S 180 0 min 0,0 UV-I 0 W/m 6,8 C 7,9 C 6,4 km/h (2 Bft)
18.03.2024 05:25 7,9 C 7,2 C 93 % 1016,8 hPa 0,0 l/m 4,8 km/h (1 Bft) S 180 0 min 0,0 UV-I 0 W/m 6,8 C 7,9 C 6,4 km/h (2 Bft)
18.03.2024 05:26 7,9 C 7,2 C 93 % 1016,7 hPa 0,0 l/m 4,8 km/h (1 Bft) S 180 0 min 0,0 UV-I 0 W/m 6,8 C 7,9 C 6,4 km/h (2 Bft)
18.03.2024 05:27 7,9 C 7,2 C 93 % 1016,7 hPa 0,0 l/m 4,8 km/h (1 Bft) S 180 0 min 0,0 UV-I 0 W/m 6,8 C 7,9 C 6,4 km/h (2 Bft)
18.03.2024 05:28 7,9 C 7,2 C 93 % 1016,7 hPa 0,0 l/m 3,2 km/h (1 Bft) S 180 0 min 0,0 UV-I 0 W/m 6,8 C 7,9 C 4,8 km/h (1 Bft)
18.03.2024 05:29 7,9 C 7,2 C 93 % 1016,7 hPa 0,0 l/m 3,2 km/h (1 Bft) S 180 0 min 0,0 UV-I 0 W/m 6,8 C 7,9 C 4,8 km/h (1 Bft)
18.03.2024 05:30 7,9 C 7,2 C 94 % 1016,7 hPa 0,0 l/m 3,2 km/h (1 Bft) S 180 0 min 0,0 UV-I 0 W/m 7,0 C 7,9 C 4,8 km/h (1 Bft)
18.03.2024 05:31 7,8 C 7,2 C 93 % 1016,7 hPa 0,0 l/m 3,2 km/h (1 Bft) S 180 0 min 0,0 UV-I 0 W/m 6,7 C 7,8 C 4,8 km/h (1 Bft)
18.03.2024 05:32 7,8 C 7,2 C 93 % 1016,7 hPa 0,0 l/m 3,2 km/h (1 Bft) S-SW 202 0 min 0,0 UV-I 0 W/m 6,7 C 7,8 C 3,2 km/h (1 Bft)
18.03.2024 05:33 7,8 C 7,2 C 93 % 1016,6 hPa 0,0 l/m 4,8 km/h (1 Bft) SW 225 0 min 0,0 UV-I 0 W/m 6,7 C 7,8 C 6,4 km/h (2 Bft)
18.03.2024 05:34 7,8 C 7,2 C 93 % 1016,7 hPa 0,0 l/m 3,2 km/h (1 Bft) SW 225 0 min 0,0 UV-I 0 W/m 6,7 C 7,8 C 4,8 km/h (1 Bft)
18.03.2024 05:35 7,8 C 7,2 C 93 % 1016,6 hPa 0,0 l/m 1,6 km/h (1 Bft) SW 225 0 min 0,0 UV-I 0 W/m 6,7 C 7,8 C 3,2 km/h (1 Bft)
18.03.2024 05:36 7,8 C 7,2 C 93 % 1016,6 hPa 0,0 l/m 1,6 km/h (1 Bft) SW 225 0 min 0,0 UV-I 0 W/m 6,7 C 7,8 C 3,2 km/h (1 Bft)
18.03.2024 05:37 7,8 C 7,2 C 94 % 1016,6 hPa 0,0 l/m 1,6 km/h (1 Bft) SW 225 0 min 0,0 UV-I 0 W/m 6,9 C 7,8 C 4,8 km/h (1 Bft)
18.03.2024 05:38 7,8 C 7,2 C 94 % 1016,5 hPa 0,0 l/m 0,0 km/h (0 Bft) SW 225 0 min 0,0 UV-I 0 W/m 6,9 C 7,8 C 1,6 km/h (1 Bft)
18.03.2024 05:39 7,8 C 7,2 C 94 % 1016,6 hPa 0,0 l/m 1,6 km/h (1 Bft) SW 225 0 min 0,0 UV-I 0 W/m 6,9 C 7,8 C 1,6 km/h (1 Bft)
18.03.2024 05:40 7,8 C 7,2 C 94 % 1016,6 hPa 0,0 l/m 1,6 km/h (1 Bft) SW 225 0 min 0,0 UV-I 0 W/m 6,9 C 7,8 C 3,2 km/h (1 Bft)
18.03.2024 05:41 7,8 C 7,2 C 94 % 1016,6 hPa 0,0 l/m 3,2 km/h (1 Bft) SW 225 0 min 0,0 UV-I 0 W/m 6,9 C 7,8 C 4,8 km/h (1 Bft)
18.03.2024 05:42 7,8 C 7,2 C 94 % 1016,5 hPa 0,0 l/m 1,6 km/h (1 Bft) SW 225 0 min 0,0 UV-I 0 W/m 6,9 C 7,8 C 4,8 km/h (1 Bft)
18.03.2024 05:43 7,8 C 7,2 C 94 % 1016,6 hPa 0,0 l/m 1,6 km/h (1 Bft) SW 225 0 min 0,0 UV-I 0 W/m 6,9 C 7,8 C 1,6 km/h (1 Bft)
18.03.2024 05:44 7,8 C 7,2 C 94 % 1016,5 hPa 0,0 l/m 1,6 km/h (1 Bft) SW 225 0 min 0,0 UV-I 0 W/m 6,9 C 7,8 C 3,2 km/h (1 Bft)
18.03.2024 05:45 7,8 C 7,2 C 94 % 1016,5 hPa 0,0 l/m 1,6 km/h (1 Bft) SW 225 0 min 0,0 UV-I 0 W/m 6,9 C 7,8 C 3,2 km/h (1 Bft)
18.03.2024 05:46 7,8 C 7,2 C 94 % 1016,6 hPa 0,0 l/m 1,6 km/h (1 Bft) SW 225 0 min 0,0 UV-I 0 W/m 6,9 C 7,8 C 3,2 km/h (1 Bft)
18.03.2024 05:47 7,8 C 7,2 C 94 % 1016,6 hPa 0,0 l/m 1,6 km/h (1 Bft) SW 225 0 min 0,0 UV-I 0 W/m 6,9 C 7,8 C 1,6 km/h (1 Bft)
18.03.2024 05:48 7,8 C 7,2 C 94 % 1016,7 hPa 0,0 l/m 1,6 km/h (1 Bft) SW 225 0 min 0,0 UV-I 0 W/m 6,9 C 7,8 C 1,6 km/h (1 Bft)
18.03.2024 05:49 7,8 C 7,2 C 94 % 1016,7 hPa 0,0 l/m 0,0 km/h (0 Bft) SW 225 0 min 0,0 UV-I 0 W/m 6,9 C 7,8 C 1,6 km/h (1 Bft)
18.03.2024 05:50 7,8 C 7,2 C 94 % 1016,6 hPa 0,0 l/m 0,0 km/h (0 Bft) SW 225 0 min 0,0 UV-I 0 W/m 6,9 C 7,8 C 1,6 km/h (1 Bft)
18.03.2024 05:51 7,8 C 7,2 C 94 % 1016,6 hPa 0,0 l/m 0,0 km/h (0 Bft) N 0 0 min 0,0 UV-I 0 W/m 6,9 C 7,8 C 0,0 km/h (0 Bft)
18.03.2024 05:52 7,7 C 7,2 C 94 % 1016,7 hPa 0,0 l/m 0,0 km/h (0 Bft) N 0 0 min 0,0 UV-I 0 W/m 6,8 C 7,7 C 0,0 km/h (0 Bft)
18.03.2024 05:53 7,8 C 7,2 C 94 % 1016,7 hPa 0,0 l/m 1,6 km/h (1 Bft) SW 225 0 min 0,0 UV-I 0 W/m 6,9 C 7,8 C 3,2 km/h (1 Bft)
18.03.2024 05:54 7,7 C 6,7 C 94 % 1016,7 hPa 0,0 l/m 1,6 km/h (1 Bft) SW 225 0 min 0,0 UV-I 0 W/m 6,8 C 7,7 C 3,2 km/h (1 Bft)
18.03.2024 05:55 7,7 C 6,7 C 94 % 1016,6 hPa 0,0 l/m 1,6 km/h (1 Bft) SW 225 0 min 0,0 UV-I 0 W/m 6,8 C 7,7 C 3,2 km/h (1 Bft)
18.03.2024 05:56 7,7 C 6,7 C 94 % 1016,7 hPa 0,0 l/m 1,6 km/h (1 Bft) SW 225 0 min 0,0 UV-I 0 W/m 6,8 C 7,7 C 3,2 km/h (1 Bft)
18.03.2024 05:57 7,7 C 6,7 C 94 % 1016,6 hPa 0,0 l/m 1,6 km/h (1 Bft) SW 225 0 min 0,0 UV-I 0 W/m 6,8 C 7,7 C 1,6 km/h (1 Bft)
18.03.2024 05:58 7,7 C 6,7 C 94 % 1016,6 hPa 0,0 l/m 1,6 km/h (1 Bft) SW 225 0 min 0,0 UV-I 0 W/m 6,8 C 7,7 C 1,6 km/h (1 Bft)
18.03.2024 05:59 7,7 C 6,7 C 93 % 1016,7 hPa 0,0 l/m 1,6 km/h (1 Bft) SW 225 0 min 0,0 UV-I 0 W/m 6,6 C 7,7 C 1,6 km/h (1 Bft)
18.03.2024 06:00 7,7 C 6,7 C 94 % 1016,6 hPa 0,0 l/m 0,0 km/h (0 Bft) SW 225 0 min 0,0 UV-I 0 W/m 6,8 C 7,7 C 1,6 km/h (1 Bft)
18.03.2024 06:01 7,7 C 6,7 C 94 % 1016,7 hPa 0,0 l/m 0,0 km/h (0 Bft) SW 225 0 min 0,0 UV-I 0 W/m 6,8 C 7,7 C 1,6 km/h (1 Bft)
18.03.2024 06:02 7,7 C 6,7 C 94 % 1016,6 hPa 0,0 l/m 1,6 km/h (1 Bft) SW 225 0 min 0,0 UV-I 0 W/m 6,8 C 7,7 C 1,6 km/h (1 Bft)
18.03.2024 06:03 7,7 C 6,7 C 94 % 1016,6 hPa 0,0 l/m 0,0 km/h (0 Bft) SW 225 0 min 0,0 UV-I 0 W/m 6,8 C 7,7 C 1,6 km/h (1 Bft)
18.03.2024 06:04 7,7 C 6,7 C 94 % 1016,6 hPa 0,0 l/m 0,0 km/h (0 Bft) SW 225 0 min 0,0 UV-I 0 W/m 6,8 C 7,7 C 1,6 km/h (1 Bft)
18.03.2024 06:05 7,6 C 6,7 C 94 % 1016,6 hPa 0,0 l/m 0,0 km/h (0 Bft) SW 225 0 min 0,0 UV-I 0 W/m 6,7 C 7,6 C 1,6 km/h (1 Bft)
18.03.2024 06:06 7,6 C 6,7 C 94 % 1016,6 hPa 0,0 l/m 1,6 km/h (1 Bft) SW 225 0 min 0,0 UV-I 0 W/m 6,7 C 7,6 C 1,6 km/h (1 Bft)
18.03.2024 06:07 7,7 C 6,7 C 94 % 1016,6 hPa 0,0 l/m 0,0 km/h (0 Bft) SW 225 0 min 0,0 UV-I 0 W/m 6,8 C 7,7 C 1,6 km/h (1 Bft)
18.03.2024 06:08 7,6 C 6,7 C 94 % 1016,6 hPa 0,0 l/m 0,0 km/h (0 Bft) SW 225 0 min 0,0 UV-I 0 W/m 6,7 C 7,6 C 1,6 km/h (1 Bft)
18.03.2024 06:09 7,6 C 6,7 C 94 % 1016,7 hPa 0,0 l/m 0,0 km/h (0 Bft) N 0 0 min 0,0 UV-I 0 W/m 6,7 C 7,6 C 0,0 km/h (0 Bft)
18.03.2024 06:10 7,6 C 6,7 C 94 % 1016,7 hPa 0,0 l/m 1,6 km/h (1 Bft) SW 225 0 min 0,0 UV-I 0 W/m 6,7 C 7,6 C 1,6 km/h (1 Bft)
18.03.2024 06:11 7,6 C 6,7 C 94 % 1016,7 hPa 0,0 l/m 0,0 km/h (0 Bft) SW 225 0 min 0,0 UV-I 0 W/m 6,7 C 7,6 C 1,6 km/h (1 Bft)
18.03.2024 06:12 7,6 C 6,7 C 94 % 1016,7 hPa 0,0 l/m 0,0 km/h (0 Bft) N 0 0 min 0,0 UV-I 0 W/m 6,7 C 7,6 C 0,0 km/h (0 Bft)
18.03.2024 06:13 7,6 C 6,7 C 94 % 1016,8 hPa 0,0 l/m 0,0 km/h (0 Bft) N 0 0 min 0,0 UV-I 0 W/m 6,7 C 7,6 C 0,0 km/h (0 Bft)
18.03.2024 06:14 7,6 C 6,7 C 94 % 1016,7 hPa 0,0 l/m 0,0 km/h (0 Bft) SW 225 0 min 0,0 UV-I 0 W/m 6,7 C 7,6 C 1,6 km/h (1 Bft)
18.03.2024 06:15 7,6 C 6,7 C 94 % 1016,8 hPa 0,0 l/m 0,0 km/h (0 Bft) N 0 0 min 0,0 UV-I 0 W/m 6,7 C 7,6 C 0,0 km/h (0 Bft)
18.03.2024 06:16 7,6 C 6,7 C 94 % 1016,8 hPa 0,0 l/m 0,0 km/h (0 Bft) N 0 0 min 0,0 UV-I 0 W/m 6,7 C 7,6 C 0,0 km/h (0 Bft)
18.03.2024 06:17 7,6 C 6,7 C 94 % 1016,8 hPa 0,0 l/m 0,0 km/h (0 Bft) SW 225 0 min 0,0 UV-I 0 W/m 6,7 C 7,6 C 1,6 km/h (1 Bft)
18.03.2024 06:18 7,6 C 6,7 C 94 % 1016,8 hPa 0,0 l/m 0,0 km/h (0 Bft) SW 225 0 min 0,0 UV-I 0 W/m 6,7 C 7,6 C 1,6 km/h (1 Bft)
18.03.2024 06:19 7,6 C 6,7 C 94 % 1016,9 hPa 0,0 l/m 0,0 km/h (0 Bft) SW 225 0 min 0,0 UV-I 0 W/m 6,7 C 7,6 C 1,6 km/h (1 Bft)
18.03.2024 06:20 7,6 C 6,7 C 94 % 1016,9 hPa 0,0 l/m 1,6 km/h (1 Bft) SW 225 0 min 0,0 UV-I 0 W/m 6,7 C 7,6 C 3,2 km/h (1 Bft)
18.03.2024 06:21 7,6 C 6,7 C 94 % 1016,9 hPa 0,0 l/m 1,6 km/h (1 Bft) SW 225 0 min 0,0 UV-I 0 W/m 6,7 C 7,6 C 1,6 km/h (1 Bft)
18.03.2024 06:22 7,6 C 6,7 C 94 % 1016,9 hPa 0,0 l/m 1,6 km/h (1 Bft) SW 225 0 min 0,0 UV-I 0 W/m 6,7 C 7,6 C 1,6 km/h (1 Bft)
18.03.2024 06:23 7,6 C 6,7 C 94 % 1016,9 hPa 0,0 l/m 1,6 km/h (1 Bft) SW 225 0 min 0,0 UV-I 0 W/m 6,7 C 7,6 C 1,6 km/h (1 Bft)
18.03.2024 06:24 7,6 C 6,7 C 94 % 1016,9 hPa 0,0 l/m 1,6 km/h (1 Bft) SW 225 0 min 0,0 UV-I 0 W/m 6,7 C 7,6 C 1,6 km/h (1 Bft)
18.03.2024 06:25 7,6 C 6,7 C 94 % 1016,8 hPa 0,0 l/m 1,6 km/h (1 Bft) SW 225 0 min 0,0 UV-I 0 W/m 6,7 C 7,6 C 1,6 km/h (1 Bft)
18.03.2024 06:26 7,6 C 7,2 C 94 % 1016,9 hPa 0,0 l/m 1,6 km/h (1 Bft) SW 225 0 min 0,0 UV-I 0 W/m 6,7 C 7,6 C 3,2 km/h (1 Bft)
18.03.2024 06:27 7,6 C 7,2 C 94 % 1016,9 hPa 0,0 l/m 3,2 km/h (1 Bft) SW 225 0 min 0,0 UV-I 0 W/m 6,7 C 7,6 C 4,8 km/h (1 Bft)
18.03.2024 06:28 7,6 C 7,2 C 94 % 1016,9 hPa 0,0 l/m 3,2 km/h (1 Bft) SW 225 0 min 0,0 UV-I 0 W/m 6,7 C 7,6 C 4,8 km/h (1 Bft)
18.03.2024 06:29 7,6 C 7,2 C 94 % 1016,9 hPa 0,0 l/m 1,6 km/h (1 Bft) SW 225 0 min 0,0 UV-I 0 W/m 6,7 C 7,6 C 3,2 km/h (1 Bft)
18.03.2024 06:30 7,7 C 7,2 C 94 % 1016,8 hPa 0,0 l/m 1,6 km/h (1 Bft) SW 225 0 min 0,0 UV-I 0 W/m 6,8 C 7,7 C 4,8 km/h (1 Bft)
18.03.2024 06:31 7,7 C 7,2 C 94 % 1016,8 hPa 0,0 l/m 3,2 km/h (1 Bft) SW 225 0 min 0,0 UV-I 0 W/m 6,8 C 7,7 C 4,8 km/h (1 Bft)
18.03.2024 06:32 7,7 C 7,2 C 94 % 1016,9 hPa 0,0 l/m 3,2 km/h (1 Bft) SW 225 0 min 0,0 UV-I 0 W/m 6,8 C 7,7 C 4,8 km/h (1 Bft)
18.03.2024 06:33 7,7 C 7,2 C 94 % 1016,9 hPa 0,0 l/m 1,6 km/h (1 Bft) SW 225 0 min 0,0 UV-I 0 W/m 6,8 C 7,7 C 3,2 km/h (1 Bft)
18.03.2024 06:34 7,7 C 7,2 C 94 % 1016,9 hPa 0,0 l/m 3,2 km/h (1 Bft) SW 225 0 min 0,0 UV-I 0 W/m 6,8 C 7,7 C 3,2 km/h (1 Bft)
18.03.2024 06:35 7,7 C 7,2 C 94 % 1016,9 hPa 0,0 l/m 3,2 km/h (1 Bft) SW 225 0 min 0,0 UV-I 0 W/m 6,8 C 7,7 C 4,8 km/h (1 Bft)
18.03.2024 06:36 7,7 C 7,2 C 94 % 1016,9 hPa 0,0 l/m 3,2 km/h (1 Bft) SW 225 0 min 0,0 UV-I 0 W/m 6,8 C 7,7 C 4,8 km/h (1 Bft)
18.03.2024 06:37 7,7 C 7,2 C 94 % 1017,0 hPa 0,0 l/m 1,6 km/h (1 Bft) SW 225 0 min 0,0 UV-I 0 W/m 6,8 C 7,7 C 3,2 km/h (1 Bft)
18.03.2024 06:38 7,7 C 7,2 C 94 % 1017,0 hPa 0,0 l/m 1,6 km/h (1 Bft) SW 225 0 min 0,0 UV-I 0 W/m 6,8 C 7,7 C 1,6 km/h (1 Bft)
18.03.2024 06:39 7,7 C 7,2 C 94 % 1017,0 hPa 0,0 l/m 3,2 km/h (1 Bft) SW 225 0 min 0,0 UV-I 0 W/m 6,8 C 7,7 C 4,8 km/h (1 Bft)
18.03.2024 06:40 7,7 C 7,2 C 94 % 1017,0 hPa 0,0 l/m 1,6 km/h (1 Bft) SW 225 0 min 0,0 UV-I 0 W/m 6,8 C 7,7 C 3,2 km/h (1 Bft)
18.03.2024 06:41 7,7 C 7,2 C 94 % 1017,1 hPa 0,0 l/m 3,2 km/h (1 Bft) SW 225 0 min 0,0 UV-I 0 W/m 6,8 C 7,7 C 3,2 km/h (1 Bft)
18.03.2024 06:42 7,7 C 7,2 C 94 % 1017,1 hPa 0,0 l/m 3,2 km/h (1 Bft) SW 225 0 min 0,0 UV-I 0 W/m 6,8 C 7,7 C 6,4 km/h (2 Bft)
18.03.2024 06:43 7,8 C 7,2 C 94 % 1017,0 hPa 0,0 l/m 6,4 km/h (2 Bft) SW 225 0 min 0,0 UV-I 0 W/m 6,9 C 7,8 C 8,0 km/h (2 Bft)
18.03.2024 06:44 7,7 C 7,2 C 94 % 1017,0 hPa 0,0 l/m 3,2 km/h (1 Bft) SW 225 0 min 0,0 UV-I 0 W/m 6,8 C 7,7 C 4,8 km/h (1 Bft)
18.03.2024 06:45 7,8 C 7,2 C 94 % 1017,0 hPa 0,0 l/m 3,2 km/h (1 Bft) SW 225 0 min 0,0 UV-I 0 W/m 6,9 C 7,8 C 4,8 km/h (1 Bft)
18.03.2024 06:46 7,8 C 7,2 C 94 % 1017,1 hPa 0,0 l/m 1,6 km/h (1 Bft) SW 225 0 min 0,0 UV-I 0 W/m 6,9 C 7,8 C 3,2 km/h (1 Bft)
18.03.2024 06:47 7,8 C 7,2 C 94 % 1017,0 hPa 0,0 l/m 1,6 km/h (1 Bft) SW 225 0 min 0,0 UV-I 0 W/m 6,9 C 7,8 C 4,8 km/h (1 Bft)
18.03.2024 06:48 7,8 C 7,2 C 94 % 1017,0 hPa 0,0 l/m 3,2 km/h (1 Bft) SW 225 0 min 0,0 UV-I 0 W/m 6,9 C 7,8 C 4,8 km/h (1 Bft)
18.03.2024 06:49 7,7 C 7,2 C 94 % 1017,0 hPa 0,0 l/m 3,2 km/h (1 Bft) SW 225 0 min 0,0 UV-I 3 W/m 6,8 C 7,7 C 6,4 km/h (2 Bft)
18.03.2024 06:50 7,7 C 7,2 C 94 % 1017,1 hPa 0,0 l/m 3,2 km/h (1 Bft) SW 225 0 min 0,0 UV-I 5 W/m 6,8 C 7,7 C 4,8 km/h (1 Bft)
18.03.2024 06:51 7,7 C 7,2 C 94 % 1017,1 hPa 0,0 l/m 4,8 km/h (1 Bft) SW 225 0 min 0,0 UV-I 5 W/m 6,8 C 7,7 C 8,0 km/h (2 Bft)
18.03.2024 06:52 7,7 C 7,2 C 94 % 1017,1 hPa 0,0 l/m 3,2 km/h (1 Bft) W-SW 247 0 min 0,0 UV-I 5 W/m 6,8 C 7,7 C 4,8 km/h (1 Bft)
18.03.2024 06:53 7,7 C 7,2 C 94 % 1017,1 hPa 0,0 l/m 4,8 km/h (1 Bft) W-SW 247 0 min 0,0 UV-I 5 W/m 6,8 C 7,7 C 6,4 km/h (2 Bft)
18.03.2024 06:54 7,7 C 7,2 C 94 % 1017,1 hPa 0,0 l/m 3,2 km/h (1 Bft) W-SW 247 0 min 0,0 UV-I 5 W/m 6,8 C 7,7 C 6,4 km/h (2 Bft)
18.03.2024 06:55 7,7 C 7,2 C 94 % 1017,2 hPa 0,0 l/m 3,2 km/h (1 Bft) W-SW 247 0 min 0,0 UV-I 5 W/m 6,8 C 7,7 C 4,8 km/h (1 Bft)
18.03.2024 06:56 7,7 C 7,2 C 94 % 1017,1 hPa 0,0 l/m 4,8 km/h (1 Bft) W-SW 247 0 min 0,0 UV-I 5 W/m 6,8 C 7,7 C 8,0 km/h (2 Bft)
18.03.2024 06:57 7,7 C 7,2 C 94 % 1017,2 hPa 0,0 l/m 4,8 km/h (1 Bft) W-SW 247 0 min 0,0 UV-I 5 W/m 6,8 C 7,7 C 6,4 km/h (2 Bft)
18.03.2024 06:58 7,7 C 7,2 C 94 % 1017,1 hPa 0,0 l/m 4,8 km/h (1 Bft) W-SW 247 0 min 0,0 UV-I 5 W/m 6,8 C 7,7 C 6,4 km/h (2 Bft)
18.03.2024 06:59 7,7 C 7,2 C 94 % 1017,1 hPa 0,0 l/m 3,2 km/h (1 Bft) W-SW 247 0 min 0,0 UV-I 7 W/m 6,8 C 7,7 C 3,2 km/h (1 Bft)
18.03.2024 07:00 7,7 C 7,2 C 94 % 1017,1 hPa 0,0 l/m 3,2 km/h (1 Bft) W-SW 247 0 min 0,0 UV-I 7 W/m 6,8 C 7,7 C 4,8 km/h (1 Bft)
18.03.2024 07:01 7,7 C 7,2 C 94 % 1017,0 hPa 0,0 l/m 1,6 km/h (1 Bft) W-SW 247 0 min 0,0 UV-I 7 W/m 6,8 C 7,7 C 3,2 km/h (1 Bft)
18.03.2024 07:02 7,7 C 6,7 C 94 % 1017,0 hPa 0,0 l/m 1,6 km/h (1 Bft) W-SW 247 0 min 0,0 UV-I 9 W/m 6,8 C 7,7 C 3,2 km/h (1 Bft)
18.03.2024 07:03 7,7 C 6,7 C 94 % 1016,9 hPa 0,0 l/m 0,0 km/h (0 Bft) W-SW 247 0 min 0,0 UV-I 9 W/m 6,8 C 7,7 C 1,6 km/h (1 Bft)
18.03.2024 07:04 7,7 C 6,7 C 94 % 1016,9 hPa 0,0 l/m 1,6 km/h (1 Bft) W-SW 247 0 min 0,0 UV-I 9 W/m 6,8 C 7,7 C 3,2 km/h (1 Bft)
18.03.2024 07:05 7,6 C 6,7 C 94 % 1017,0 hPa 0,0 l/m 0,0 km/h (0 Bft) W-SW 247 0 min 0,0 UV-I 11 W/m 6,7 C 7,6 C 1,6 km/h (1 Bft)
18.03.2024 07:06 7,6 C 6,7 C 94 % 1017,0 hPa 0,0 l/m 0,0 km/h (0 Bft) W-SW 247 0 min 0,0 UV-I 11 W/m 6,7 C 7,6 C 1,6 km/h (1 Bft)
18.03.2024 07:07 7,6 C 6,7 C 94 % 1017,0 hPa 0,0 l/m 0,0 km/h (0 Bft) W-SW 247 0 min 0,0 UV-I 12 W/m 6,7 C 7,6 C 3,2 km/h (1 Bft)
18.03.2024 07:08 7,6 C 6,7 C 94 % 1017,0 hPa 0,0 l/m 1,6 km/h (1 Bft) W-SW 247 0 min 0,0 UV-I 14 W/m 6,7 C 7,6 C 3,2 km/h (1 Bft)
18.03.2024 07:09 7,6 C 6,7 C 94 % 1017,0 hPa 0,0 l/m 1,6 km/h (1 Bft) W-SW 247 0 min 0,0 UV-I 14 W/m 6,7 C 7,6 C 3,2 km/h (1 Bft)
18.03.2024 07:10 7,6 C 6,7 C 94 % 1017,0 hPa 0,0 l/m 1,6 km/h (1 Bft) W-SW 247 0 min 0,0 UV-I 16 W/m 6,7 C 7,6 C 3,2 km/h (1 Bft)
18.03.2024 07:11 7,6 C 6,7 C 94 % 1017,0 hPa 0,0 l/m 3,2 km/h (1 Bft) W-SW 247 0 min 0,0 UV-I 18 W/m 6,7 C 7,6 C 4,8 km/h (1 Bft)
18.03.2024 07:12 7,5 C 6,7 C 94 % 1017,0 hPa 0,0 l/m 3,2 km/h (1 Bft) W-SW 247 0 min 0,0 UV-I 19 W/m 6,6 C 7,5 C 4,8 km/h (1 Bft)
18.03.2024 07:13 7,5 C 6,7 C 94 % 1017,0 hPa 0,0 l/m 1,6 km/h (1 Bft) W-SW 247 0 min 0,0 UV-I 20 W/m 6,6 C 7,5 C 3,2 km/h (1 Bft)
18.03.2024 07:14 7,5 C 6,7 C 94 % 1017,0 hPa 0,0 l/m 1,6 km/h (1 Bft) W-SW 247 0 min 0,0 UV-I 21 W/m 6,6 C 7,5 C 3,2 km/h (1 Bft)
18.03.2024 07:15 7,5 C 6,7 C 94 % 1016,9 hPa 0,0 l/m 1,6 km/h (1 Bft) W-SW 247 0 min 0,0 UV-I 21 W/m 6,6 C 7,5 C 3,2 km/h (1 Bft)
18.03.2024 07:16 7,5 C 6,7 C 94 % 1017,0 hPa 0,0 l/m 1,6 km/h (1 Bft) W-SW 247 0 min 0,0 UV-I 21 W/m 6,6 C 7,5 C 3,2 km/h (1 Bft)
18.03.2024 07:17 7,4 C 6,7 C 94 % 1017,0 hPa 0,0 l/m 1,6 km/h (1 Bft) W-SW 247 0 min 0,0 UV-I 21 W/m 6,5 C 7,4 C 3,2 km/h (1 Bft)
18.03.2024 07:18 7,4 C 6,7 C 94 % 1017,1 hPa 0,0 l/m 1,6 km/h (1 Bft) W-SW 247 0 min 0,0 UV-I 23 W/m 6,5 C 7,4 C 1,6 km/h (1 Bft)
18.03.2024 07:19 7,4 C 6,7 C 94 % 1017,1 hPa 0,0 l/m 0,0 km/h (0 Bft) W-SW 247 0 min 0,0 UV-I 23 W/m 6,5 C 7,4 C 1,6 km/h (1 Bft)
18.03.2024 07:20 7,5 C 6,7 C 94 % 1017,1 hPa 0,0 l/m 0,0 km/h (0 Bft) N 0 0 min 0,0 UV-I 23 W/m 6,6 C 7,5 C 0,0 km/h (0 Bft)
18.03.2024 07:21 7,4 C 6,7 C 94 % 1017,0 hPa 0,0 l/m 0,0 km/h (0 Bft) N 0 0 min 0,0 UV-I 23 W/m 6,5 C 7,4 C 0,0 km/h (0 Bft)
18.03.2024 07:22 7,4 C 6,7 C 94 % 1017,0 hPa 0,0 l/m 0,0 km/h (0 Bft) N 0 0 min 0,0 UV-I 23 W/m 6,5 C 7,4 C 0,0 km/h (0 Bft)
18.03.2024 07:23 7,4 C 6,7 C 94 % 1017,0 hPa 0,0 l/m 0,0 km/h (0 Bft) W-SW 247 0 min 0,0 UV-I 23 W/m 6,5 C 7,4 C 3,2 km/h (1 Bft)
18.03.2024 07:24 7,5 C 6,7 C 94 % 1017,0 hPa 0,0 l/m 1,6 km/h (1 Bft) W-SW 247 0 min 0,0 UV-I 23 W/m 6,6 C 7,5 C 3,2 km/h (1 Bft)
18.03.2024 07:25 7,5 C 6,7 C 94 % 1017,1 hPa 0,0 l/m 0,0 km/h (0 Bft) W-SW 247 0 min 0,0 UV-I 24 W/m 6,6 C 7,5 C 1,6 km/h (1 Bft)
18.03.2024 07:26 7,5 C 6,7 C 94 % 1017,0 hPa 0,0 l/m 0,0 km/h (0 Bft) W-SW 247 0 min 0,0 UV-I 25 W/m 6,6 C 7,5 C 1,6 km/h (1 Bft)
18.03.2024 07:27 7,6 C 7,2 C 94 % 1017,1 hPa 0,0 l/m 0,0 km/h (0 Bft) W-SW 247 0 min 0,0 UV-I 25 W/m 6,7 C 7,6 C 1,6 km/h (1 Bft)
18.03.2024 07:28 7,5 C 7,2 C 94 % 1017,1 hPa 0,0 l/m 0,0 km/h (0 Bft) N 0 0 min 0,0 UV-I 26 W/m 6,6 C 7,5 C 0,0 km/h (0 Bft)
18.03.2024 07:29 7,6 C 7,2 C 94 % 1017,0 hPa 0,0 l/m 0,0 km/h (0 Bft) N 0 0 min 0,0 UV-I 28 W/m 6,7 C 7,6 C 0,0 km/h (0 Bft)
18.03.2024 07:30 7,6 C 7,2 C 94 % 1017,1 hPa 0,0 l/m 0,0 km/h (0 Bft) W-SW 247 0 min 0,0 UV-I 29 W/m 6,7 C 7,6 C 3,2 km/h (1 Bft)
18.03.2024 07:31 7,6 C 7,2 C 94 % 1017,2 hPa 0,0 l/m 3,2 km/h (1 Bft) W-SW 247 0 min 0,0 UV-I 30 W/m 6,7 C 7,6 C 3,2 km/h (1 Bft)
18.03.2024 07:32 7,6 C 7,2 C 94 % 1017,1 hPa 0,0 l/m 1,6 km/h (1 Bft) W-SW 247 0 min 0,0 UV-I 30 W/m 6,7 C 7,6 C 3,2 km/h (1 Bft)
18.03.2024 07:33 7,6 C 7,2 C 94 % 1017,1 hPa 0,0 l/m 0,0 km/h (0 Bft) W-SW 247 0 min 0,0 UV-I 32 W/m 6,7 C 7,6 C 1,6 km/h (1 Bft)
18.03.2024 07:34 7,6 C 7,2 C 94 % 1017,1 hPa 0,0 l/m 0,0 km/h (0 Bft) W-SW 247 0 min 0,0 UV-I 32 W/m 6,7 C 7,6 C 1,6 km/h (1 Bft)
18.03.2024 07:35 7,6 C 7,2 C 94 % 1017,1 hPa 0,0 l/m 0,0 km/h (0 Bft) N 0 0 min 0,0 UV-I 32 W/m 6,7 C 7,6 C 0,0 km/h (0 Bft)
18.03.2024 07:36 7,6 C 7,2 C 94 % 1017,1 hPa 0,0 l/m 0,0 km/h (0 Bft) N 0 0 min 0,0 UV-I 30 W/m 6,7 C 7,6 C 0,0 km/h (0 Bft)
18.03.2024 07:37 7,6 C 7,8 C 94 % 1017,1 hPa 0,0 l/m 1,6 km/h (1 Bft) W-SW 247 0 min 0,0 UV-I 30 W/m 6,7 C 7,6 C 3,2 km/h (1 Bft)
18.03.2024 07:38 7,6 C 7,8 C 94 % 1017,2 hPa 0,0 l/m 3,2 km/h (1 Bft) W-SW 247 0 min 0,0 UV-I 30 W/m 6,7 C 7,6 C 4,8 km/h (1 Bft)
18.03.2024 07:39 7,6 C 7,8 C 94 % 1017,2 hPa 0,0 l/m 1,6 km/h (1 Bft) W-SW 247 0 min 0,0 UV-I 30 W/m 6,7 C 7,6 C 3,2 km/h (1 Bft)
18.03.2024 07:40 7,7 C 7,8 C 94 % 1017,2 hPa 0,0 l/m 1,6 km/h (1 Bft) W-SW 247 0 min 0,0 UV-I 30 W/m 6,8 C 7,7 C 3,2 km/h (1 Bft)
18.03.2024 07:41 7,7 C 7,8 C 94 % 1017,2 hPa 0,0 l/m 1,6 km/h (1 Bft) W-SW 247 0 min 0,0 UV-I 32 W/m 6,8 C 7,7 C 3,2 km/h (1 Bft)
18.03.2024 07:42 7,7 C 7,8 C 94 % 1017,3 hPa 0,0 l/m 3,2 km/h (1 Bft) W-SW 247 0 min 0,0 UV-I 34 W/m 6,8 C 7,7 C 4,8 km/h (1 Bft)
18.03.2024 07:43 7,8 C 7,8 C 94 % 1017,2 hPa 0,0 l/m 1,6 km/h (1 Bft) W-SW 247 0 min 0,0 UV-I 37 W/m 6,9 C 7,8 C 3,2 km/h (1 Bft)
18.03.2024 07:44 7,8 C 7,8 C 94 % 1017,2 hPa 0,0 l/m 1,6 km/h (1 Bft) W-SW 247 0 min 0,0 UV-I 37 W/m 6,9 C 7,8 C 3,2 km/h (1 Bft)
18.03.2024 07:45 7,8 C 7,8 C 94 % 1017,2 hPa 0,0 l/m 0,0 km/h (0 Bft) W-SW 247 0 min 0,0 UV-I 39 W/m 6,9 C 7,8 C 1,6 km/h (1 Bft)
18.03.2024 07:46 7,8 C 7,8 C 94 % 1017,1 hPa 0,0 l/m 0,0 km/h (0 Bft) N 0 0 min 0,0 UV-I 39 W/m 6,9 C 7,8 C 0,0 km/h (0 Bft)
18.03.2024 07:47 7,8 C 7,8 C 94 % 1017,1 hPa 0,0 l/m 0,0 km/h (0 Bft) N 0 0 min 0,0 UV-I 39 W/m 6,9 C 7,8 C 0,0 km/h (0 Bft)
18.03.2024 07:48 7,8 C 7,8 C 94 % 1017,1 hPa 0,0 l/m 0,0 km/h (0 Bft) N 0 0 min 0,0 UV-I 38 W/m 6,9 C 7,8 C 0,0 km/h (0 Bft)
18.03.2024 07:49 7,8 C 7,8 C 94 % 1017,1 hPa 0,0 l/m 0,0 km/h (0 Bft) N 0 0 min 0,0 UV-I 37 W/m 6,9 C 7,8 C 0,0 km/h (0 Bft)
18.03.2024 07:50 7,8 C 7,8 C 94 % 1017,2 hPa 0,0 l/m 0,0 km/h (0 Bft) N 0 0 min 0,0 UV-I 37 W/m 6,9 C 7,8 C 0,0 km/h (0 Bft)
18.03.2024 07:51 7,9 C 7,8 C 94 % 1017,1 hPa 0,0 l/m 0,0 km/h (0 Bft) W-SW 247 0 min 0,0 UV-I 37 W/m 7,0 C 7,9 C 1,6 km/h (1 Bft)
18.03.2024 07:52 7,9 C 8,3 C 94 % 1017,2 hPa 0,0 l/m 0,0 km/h (0 Bft) N 0 0 min 0,0 UV-I 35 W/m 7,0 C 7,9 C 0,0 km/h (0 Bft)
18.03.2024 07:53 7,8 C 8,3 C 94 % 1017,1 hPa 0,0 l/m 0,0 km/h (0 Bft) W-SW 247 0 min 0,0 UV-I 35 W/m 6,9 C 7,8 C 1,6 km/h (1 Bft)
18.03.2024 07:54 7,9 C 8,3 C 94 % 1017,2 hPa 0,0 l/m 0,0 km/h (0 Bft) W-SW 247 0 min 0,0 UV-I 35 W/m 7,0 C 7,9 C 1,6 km/h (1 Bft)
18.03.2024 07:55 7,9 C 8,3 C 94 % 1017,2 hPa 0,0 l/m 1,6 km/h (1 Bft) W-SW 247 0 min 0,0 UV-I 37 W/m 7,0 C 7,9 C 3,2 km/h (1 Bft)
18.03.2024 07:56 7,9 C 8,3 C 94 % 1017,2 hPa 0,0 l/m 1,6 km/h (1 Bft) W-SW 247 0 min 0,0 UV-I 39 W/m 7,0 C 7,9 C 3,2 km/h (1 Bft)
18.03.2024 07:57 7,9 C 8,3 C 94 % 1017,1 hPa 0,0 l/m 0,0 km/h (0 Bft) W-SW 247 0 min 0,0 UV-I 40 W/m 7,0 C 7,9 C 1,6 km/h (1 Bft)
18.03.2024 07:58 7,9 C 8,3 C 94 % 1017,0 hPa 0,0 l/m 0,0 km/h (0 Bft) W-SW 247 0 min 0,0 UV-I 42 W/m 7,0 C 7,9 C 1,6 km/h (1 Bft)
18.03.2024 07:59 7,9 C 8,3 C 94 % 1017,0 hPa 0,0 l/m 0,0 km/h (0 Bft) W-SW 247 0 min 0,0 UV-I 42 W/m 7,0 C 7,9 C 1,6 km/h (1 Bft)
18.03.2024 08:00 7,9 C 8,3 C 94 % 1017,1 hPa 0,0 l/m 1,6 km/h (1 Bft) W-SW 247 0 min 0,0 UV-I 44 W/m 7,0 C 7,9 C 1,6 km/h (1 Bft)
18.03.2024 08:01 8,0 C 8,3 C 94 % 1017,1 hPa 0,0 l/m 1,6 km/h (1 Bft) W-SW 247 0 min 0,0 UV-I 44 W/m 7,1 C 8,0 C 1,6 km/h (1 Bft)
18.03.2024 08:02 8,0 C 8,3 C 94 % 1017,1 hPa 0,0 l/m 0,0 km/h (0 Bft) W-SW 247 0 min 0,0 UV-I 46 W/m 7,1 C 8,0 C 1,6 km/h (1 Bft)
18.03.2024 08:03 8,0 C 8,3 C 94 % 1017,1 hPa 0,0 l/m 0,0 km/h (0 Bft) W-SW 247 0 min 0,0 UV-I 46 W/m 7,1 C 8,0 C 1,6 km/h (1 Bft)
18.03.2024 08:04 8,0 C 8,3 C 94 % 1017,1 hPa 0,0 l/m 0,0 km/h (0 Bft) N 0 0 min 0,0 UV-I 46 W/m 7,1 C 8,0 C 0,0 km/h (0 Bft)
18.03.2024 08:05 8,0 C 8,3 C 94 % 1017,0 hPa 0,0 l/m 0,0 km/h (0 Bft) N 0 0 min 0,0 UV-I 46 W/m 7,1 C 8,0 C 0,0 km/h (0 Bft)
18.03.2024 08:12 8,1 C 8,9 C 94 % 1017,0 hPa 0,0 l/m 1,0 km/h (0 Bft) W-SW 248 0 min 0,0 UV-I 63 W/m 7,2 C 8,1 C 3,2 km/h (1 Bft)
18.03.2024 08:15 8,1 C 8,9 C 94 % 1017,0 hPa 0,0 l/m 0,7 km/h (0 Bft) W-SW 248 0 min 0,0 UV-I 69 W/m 7,2 C 8,1 C 1,6 km/h (1 Bft)
18.03.2024 08:18 8,1 C 8,9 C 94 % 1016,9 hPa 0,0 l/m 0,0 km/h (0 Bft) W-SW 248 0 min 0,0 UV-I 66 W/m 7,2 C 8,1 C 0,0 km/h (0 Bft)
18.03.2024 08:21 8,1 C 8,9 C 94 % 1017,0 hPa 0,0 l/m 0,0 km/h (0 Bft) W-SW 248 0 min 0,0 UV-I 54 W/m 7,2 C 8,1 C 0,0 km/h (0 Bft)
18.03.2024 08:24 8,1 C 8,9 C 94 % 1016,7 hPa 0,0 l/m 0,3 km/h (0 Bft) W-SW 248 0 min 0,0 UV-I 49 W/m 7,2 C 8,1 C 1,6 km/h (1 Bft)
18.03.2024 08:27 8,1 C 8,9 C 94 % 1016,7 hPa 0,0 l/m 0,7 km/h (0 Bft) W-SW 248 0 min 0,0 UV-I 65 W/m 7,2 C 8,1 C 3,2 km/h (1 Bft)
18.03.2024 08:30 8,1 C 8,9 C 94 % 1016,8 hPa 0,0 l/m 1,3 km/h (1 Bft) W-SW 248 0 min 0,0 UV-I 76 W/m 7,2 C 8,1 C 3,2 km/h (1 Bft)
18.03.2024 08:33 8,1 C 8,9 C 94 % 1016,8 hPa 0,0 l/m 0,2 km/h (0 Bft) W-SW 248 0 min 0,0 UV-I 77 W/m 7,2 C 8,1 C 1,6 km/h (1 Bft)
18.03.2024 08:36 8,2 C 8,9 C 94 % 1016,7 hPa 0,0 l/m 1,3 km/h (1 Bft) W-SW 248 0 min 0,0 UV-I 80 W/m 7,3 C 8,2 C 3,2 km/h (1 Bft)
18.03.2024 08:39 8,2 C 8,9 C 94 % 1016,7 hPa 0,0 l/m 2,0 km/h (1 Bft) W-SW 248 0 min 0,0 UV-I 82 W/m 7,3 C 8,2 C 3,2 km/h (1 Bft)
18.03.2024 08:42 8,2 C 8,9 C 94 % 1016,9 hPa 0,0 l/m 2,5 km/h (1 Bft) W-SW 248 0 min 0,0 UV-I 76 W/m 7,3 C 8,2 C 4,8 km/h (1 Bft)
18.03.2024 08:45 8,3 C 8,9 C 94 % 1016,8 hPa 0,0 l/m 1,5 km/h (1 Bft) W-SW 248 0 min 0,0 UV-I 83 W/m 7,4 C 8,3 C 3,2 km/h (1 Bft)
18.03.2024 08:48 8,3 C 8,9 C 94 % 1016,9 hPa 0,0 l/m 2,9 km/h (1 Bft) W-SW 248 0 min 0,0 UV-I 76 W/m 7,4 C 8,3 C 4,8 km/h (1 Bft)
18.03.2024 08:51 8,3 C 8,9 C 94 % 1016,8 hPa 0,0 l/m 4,7 km/h (1 Bft) W-SW 246 0 min 0,1 UV-I 68 W/m 7,4 C 8,3 C 6,4 km/h (2 Bft)
18.03.2024 08:54 8,3 C 8,9 C 94 % 1016,8 hPa 0,0 l/m 4,1 km/h (1 Bft) W-SW 246 0 min 0,2 UV-I 71 W/m 7,4 C 8,3 C 6,4 km/h (2 Bft)
18.03.2024 08:57 8,3 C 8,9 C 94 % 1016,8 hPa 0,0 l/m 2,7 km/h (1 Bft) W-SW 246 0 min 0,5 UV-I 75 W/m 7,4 C 8,3 C 4,8 km/h (1 Bft)
18.03.2024 09:00 8,4 C 8,9 C 94 % 1016,9 hPa 0,0 l/m 3,4 km/h (1 Bft) W-SW 246 0 min 0,3 UV-I 85 W/m 7,5 C 8,4 C 4,8 km/h (1 Bft)
18.03.2024 09:03 8,4 C 8,9 C 94 % 1016,8 hPa 0,0 l/m 2,2 km/h (1 Bft) W-SW 246 0 min 0,0 UV-I 82 W/m 7,5 C 8,4 C 4,8 km/h (1 Bft)
18.03.2024 09:06 8,5 C 9,4 C 94 % 1016,9 hPa 0,0 l/m 1,5 km/h (1 Bft) W-SW 246 0 min 0,0 UV-I 82 W/m 7,6 C 8,5 C 3,2 km/h (1 Bft)
18.03.2024 09:09 8,6 C 9,4 C 94 % 1017,0 hPa 0,0 l/m 2,7 km/h (1 Bft) W-SW 246 0 min 0,4 UV-I 88 W/m 7,7 C 8,6 C 4,8 km/h (1 Bft)
18.03.2024 09:12 8,6 C 9,4 C 94 % 1017,0 hPa 0,0 l/m 4,1 km/h (1 Bft) W-SW 246 0 min 0,6 UV-I 117 W/m 7,7 C 8,6 C 6,4 km/h (2 Bft)
18.03.2024 09:15 8,7 C 9,4 C 94 % 1016,9 hPa 0,0 l/m 4,3 km/h (1 Bft) W-SW 246 0 min 0,6 UV-I 115 W/m 7,8 C 8,7 C 6,4 km/h (2 Bft)
18.03.2024 09:18 8,7 C 10,0 C 94 % 1016,9 hPa 0,0 l/m 3,9 km/h (1 Bft) W-SW 245 0 min 0,8 UV-I 137 W/m 7,8 C 8,7 C 6,4 km/h (2 Bft)
18.03.2024 09:21 8,7 C 10,0 C 94 % 1016,9 hPa 0,0 l/m 3,2 km/h (1 Bft) W-SW 245 0 min 0,8 UV-I 144 W/m 7,8 C 8,7 C 4,8 km/h (1 Bft)
18.03.2024 09:24 8,9 C 10,6 C 94 % 1016,9 hPa 0,0 l/m 4,1 km/h (1 Bft) W-SW 244 0 min 0,9 UV-I 169 W/m 8,0 C 8,9 C 6,4 km/h (2 Bft)
18.03.2024 09:27 9,1 C 11,7 C 94 % 1016,9 hPa 0,0 l/m 3,7 km/h (1 Bft) W-SW 244 3 min 0,9 UV-I 242 W/m 8,2 C 9,1 C 4,8 km/h (1 Bft)
18.03.2024 09:30 9,2 C 11,7 C 94 % 1016,8 hPa 0,0 l/m 2,9 km/h (1 Bft) W-SW 244 0 min 0,8 UV-I 227 W/m 8,3 C 9,2 C 4,8 km/h (1 Bft)
18.03.2024 09:33 9,3 C 11,7 C 93 % 1016,8 hPa 0,0 l/m 1,9 km/h (1 Bft) W-SW 244 0 min 0,8 UV-I 185 W/m 8,2 C 9,3 C 4,8 km/h (1 Bft)
18.03.2024 09:36 9,3 C 11,7 C 93 % 1017,0 hPa 0,0 l/m 2,0 km/h (1 Bft) W-SW 244 0 min 0,8 UV-I 213 W/m 8,2 C 9,3 C 3,2 km/h (1 Bft)
18.03.2024 09:39 9,4 C 11,7 C 93 % 1017,0 hPa 0,0 l/m 2,1 km/h (1 Bft) W-SW 244 0 min 0,8 UV-I 216 W/m 8,3 C 9,4 C 3,2 km/h (1 Bft)
18.03.2024 09:42 9,4 C 11,7 C 93 % 1017,1 hPa 0,0 l/m 0,4 km/h (0 Bft) W-SW 244 0 min 0,6 UV-I 152 W/m 8,3 C 9,4 C 1,6 km/h (1 Bft)
18.03.2024 09:45 9,5 C 11,7 C 93 % 1016,9 hPa 0,0 l/m 0,4 km/h (0 Bft) W-SW 244 0 min 0,6 UV-I 122 W/m 8,4 C 9,5 C 1,6 km/h (1 Bft)
18.03.2024 09:48 9,6 C 11,7 C 93 % 1017,0 hPa 0,0 l/m 0,0 km/h (0 Bft) W-SW 244 0 min 0,6 UV-I 137 W/m 8,5 C 9,6 C 1,6 km/h (1 Bft)
18.03.2024 09:51 9,7 C 11,1 C 93 % 1016,9 hPa 0,0 l/m 0,6 km/h (0 Bft) W-SW 244 0 min 0,4 UV-I 115 W/m 8,6 C 9,7 C 3,2 km/h (1 Bft)
18.03.2024 09:54 9,8 C 11,1 C 92 % 1017,0 hPa 0,0 l/m 3,5 km/h (1 Bft) S-SW 202 0 min 0,0 UV-I 76 W/m 8,6 C 9,8 C 9,7 km/h (2 Bft)
18.03.2024 09:57 9,7 C 10,6 C 92 % 1016,9 hPa 0,0 l/m 5,6 km/h (1 Bft) SW 215 0 min 0,0 UV-I 76 W/m 8,5 C 9,7 C 8,0 km/h (2 Bft)
18.03.2024 10:00 9,6 C 10,6 C 92 % 1017,0 hPa 0,0 l/m 5,2 km/h (1 Bft) SW 215 0 min 0,1 UV-I 83 W/m 8,4 C 9,6 C 9,7 km/h (2 Bft)
18.03.2024 10:03 9,6 C 10,6 C 92 % 1017,0 hPa 0,0 l/m 5,1 km/h (1 Bft) SW 215 0 min 0,6 UV-I 134 W/m 8,4 C 9,6 C 8,0 km/h (2 Bft)
18.03.2024 10:06 9,7 C 11,1 C 92 % 1017,0 hPa 0,0 l/m 2,8 km/h (1 Bft) SW 215 0 min 0,8 UV-I 171 W/m 8,5 C 9,7 C 4,8 km/h (1 Bft)
18.03.2024 10:09 9,8 C 11,7 C 92 % 1017,1 hPa 0,0 l/m 4,6 km/h (1 Bft) SW 215 0 min 0,8 UV-I 181 W/m 8,6 C 9,8 C 8,0 km/h (2 Bft)
18.03.2024 10:12 9,8 C 11,1 C 91 % 1017,1 hPa 0,0 l/m 6,3 km/h (2 Bft) S-SW 212 0 min 0,6 UV-I 139 W/m 8,4 C 9,8 C 8,0 km/h (2 Bft)
18.03.2024 10:15 9,8 C 10,6 C 91 % 1017,0 hPa 0,0 l/m 6,0 km/h (2 Bft) S-SW 213 0 min 0,4 UV-I 102 W/m 8,4 C 9,8 C 11,3 km/h (2 Bft)
18.03.2024 10:18 9,8 C 10,6 C 91 % 1017,0 hPa 0,0 l/m 5,0 km/h (1 Bft) S-SW 213 0 min 0,0 UV-I 70 W/m 8,4 C 9,8 C 6,4 km/h (2 Bft)
18.03.2024 10:21 9,8 C 10,0 C 91 % 1017,0 hPa 0,0 l/m 3,6 km/h (1 Bft) S-SW 213 0 min 0,3 UV-I 76 W/m 8,4 C 9,8 C 6,4 km/h (2 Bft)
18.03.2024 10:24 9,8 C 10,0 C 91 % 1017,0 hPa 0,0 l/m 6,3 km/h (2 Bft) S-SW 209 0 min 0,2 UV-I 89 W/m 8,4 C 9,8 C 8,0 km/h (2 Bft)
18.03.2024 10:27 9,7 C 10,6 C 91 % 1017,1 hPa 0,0 l/m 6,7 km/h (2 Bft) S-SW 207 0 min 0,6 UV-I 109 W/m 8,3 C 9,5 C 11,3 km/h (2 Bft)
18.03.2024 10:30 9,7 C 10,6 C 91 % 1017,0 hPa 0,0 l/m 5,8 km/h (2 Bft) SW 218 0 min 0,6 UV-I 120 W/m 8,3 C 9,7 C 9,7 km/h (2 Bft)
18.03.2024 10:33 9,9 C 11,7 C 91 % 1017,0 hPa 0,0 l/m 4,4 km/h (1 Bft) SW 217 0 min 0,9 UV-I 192 W/m 8,5 C 9,9 C 8,0 km/h (2 Bft)
18.03.2024 10:36 10,0 C 11,7 C 91 % 1017,0 hPa 0,0 l/m 6,3 km/h (2 Bft) S-SW 209 0 min 1,3 UV-I 214 W/m 8,6 C 10,0 C 9,7 km/h (2 Bft)
18.03.2024 10:39 10,1 C 11,7 C 91 % 1017,0 hPa 0,0 l/m 7,4 km/h (2 Bft) W 259 0 min 1,2 UV-I 185 W/m 8,7 C 9,4 C 12,9 km/h (3 Bft)
18.03.2024 10:42 10,3 C 12,2 C 91 % 1017,1 hPa 0,0 l/m 5,7 km/h (1 Bft) W 261 0 min 1,3 UV-I 282 W/m 8,9 C 10,3 C 11,3 km/h (2 Bft)
18.03.2024 10:45 10,5 C 13,3 C 90 % 1017,1 hPa 0,0 l/m 7,8 km/h (2 Bft) W-SW 240 0 min 1,2 UV-I 302 W/m 8,9 C 9,5 C 14,5 km/h (3 Bft)
18.03.2024 10:48 10,6 C 12,8 C 90 % 1017,1 hPa 0,0 l/m 9,1 km/h (2 Bft) W-SW 242 3 min 1,3 UV-I 337 W/m 9,0 C 8,8 C 12,9 km/h (3 Bft)
18.03.2024 10:51 10,6 C 13,9 C 90 % 1017,2 hPa 0,0 l/m 8,7 km/h (2 Bft) SW 226 3 min 1,7 UV-I 344 W/m 9,0 C 9,0 C 12,9 km/h (3 Bft)
18.03.2024 10:54 10,7 C 13,9 C 89 % 1017,3 hPa 0,0 l/m 8,4 km/h (2 Bft) S-SW 196 0 min 1,4 UV-I 301 W/m 9,0 C 9,3 C 11,3 km/h (2 Bft)
18.03.2024 10:57 10,7 C 12,8 C 89 % 1017,2 hPa 0,0 l/m 5,3 km/h (1 Bft) S-SW 210 0 min 0,9 UV-I 169 W/m 9,0 C 10,7 C 11,3 km/h (2 Bft)
18.03.2024 11:00 10,5 C 11,7 C 89 % 1017,4 hPa 0,0 l/m 10,5 km/h (2 Bft) SW 232 0 min 0,6 UV-I 118 W/m 8,8 C 7,9 C 12,9 km/h (3 Bft)
18.03.2024 11:03 10,3 C 11,1 C 89 % 1017,4 hPa 0,0 l/m 10,9 km/h (2 Bft) S 191 0 min 0,9 UV-I 145 W/m 8,6 C 7,4 C 14,5 km/h (3 Bft)
18.03.2024 11:06 10,3 C 11,1 C 89 % 1017,3 hPa 0,0 l/m 9,8 km/h (2 Bft) S-SW 203 0 min 1,0 UV-I 119 W/m 8,6 C 8,0 C 14,5 km/h (3 Bft)
18.03.2024 11:09 10,2 C 11,1 C 89 % 1017,3 hPa 0,0 l/m 9,3 km/h (2 Bft) S-SW 207 0 min 1,4 UV-I 115 W/m 8,5 C 8,2 C 14,5 km/h (3 Bft)
18.03.2024 11:12 10,4 C 15,0 C 90 % 1017,4 hPa 0,0 l/m 8,3 km/h (2 Bft) SW 219 0 min 2,3 UV-I 242 W/m 8,8 C 9,1 C 12,9 km/h (3 Bft)
18.03.2024 11:15 10,8 C 16,1 C 90 % 1017,3 hPa 0,0 l/m 8,1 km/h (2 Bft) S-SW 194 3 min 2,3 UV-I 544 W/m 9,2 C 9,6 C 11,3 km/h (2 Bft)
18.03.2024 11:18 10,9 C 17,8 C 89 % 1017,3 hPa 0,0 l/m 8,6 km/h (2 Bft) S 182 3 min 2,4 UV-I 409 W/m 9,2 C 9,4 C 12,9 km/h (3 Bft)
18.03.2024 11:21 11,3 C 17,2 C 88 % 1017,4 hPa 0,0 l/m 7,9 km/h (2 Bft) S-SW 202 3 min 2,1 UV-I 599 W/m 9,4 C 10,3 C 14,5 km/h (3 Bft)
18.03.2024 11:24 11,4 C 16,1 C 88 % 1017,2 hPa 0,0 l/m 8,3 km/h (2 Bft) S-SO 166 3 min 1,7 UV-I 376 W/m 9,5 C 10,1 C 12,9 km/h (3 Bft)
18.03.2024 11:27 11,4 C 13,9 C 87 % 1017,4 hPa 0,0 l/m 10,0 km/h (2 Bft) SW 215 0 min 0,9 UV-I 188 W/m 9,3 C 9,1 C 14,5 km/h (3 Bft)
18.03.2024 11:30 11,1 C 12,2 C 86 % 1017,3 hPa 0,0 l/m 11,0 km/h (2 Bft) SW 218 0 min 0,8 UV-I 153 W/m 8,8 C 8,3 C 14,5 km/h (3 Bft)
18.03.2024 11:33 10,9 C 11,7 C 86 % 1017,3 hPa 0,0 l/m 9,3 km/h (2 Bft) S-SW 208 0 min 0,9 UV-I 164 W/m 8,7 C 9,0 C 14,5 km/h (3 Bft)
18.03.2024 11:36 10,8 C 11,7 C 87 % 1017,4 hPa 0,0 l/m 10,6 km/h (2 Bft) S-SW 195 0 min 0,8 UV-I 139 W/m 8,7 C 8,2 C 14,5 km/h (3 Bft)
18.03.2024 11:39 10,8 C 11,7 C 87 % 1017,3 hPa 0,0 l/m 7,7 km/h (2 Bft) S-SW 196 0 min 1,1 UV-I 198 W/m 8,7 C 9,9 C 11,3 km/h (2 Bft)
18.03.2024 11:42 10,9 C 12,8 C 87 % 1017,4 hPa 0,0 l/m 7,0 km/h (2 Bft) S-SW 206 0 min 1,4 UV-I 266 W/m 8,8 C 10,5 C 9,7 km/h (2 Bft)
18.03.2024 11:45 11,2 C 13,3 C 88 % 1017,4 hPa 0,0 l/m 7,2 km/h (2 Bft) W 269 0 min 1,5 UV-I 264 W/m 9,3 C 10,6 C 14,5 km/h (3 Bft)
18.03.2024 11:48 11,2 C 12,8 C 86 % 1017,4 hPa 0,0 l/m 8,5 km/h (2 Bft) SW 229 0 min 1,5 UV-I 234 W/m 8,9 C 9,8 C 16,1 km/h (3 Bft)
18.03.2024 11:51 11,2 C 13,3 C 86 % 1017,4 hPa 0,0 l/m 8,3 km/h (2 Bft) W 278 0 min 1,6 UV-I 253 W/m 8,9 C 9,9 C 16,1 km/h (3 Bft)
18.03.2024 11:54 11,5 C 15,0 C 86 % 1017,6 hPa 0,0 l/m 5,7 km/h (1 Bft) W-SW 254 0 min 2,3 UV-I 285 W/m 9,2 C 11,5 C 12,9 km/h (3 Bft)
18.03.2024 11:57 11,8 C 16,7 C 85 % 1017,5 hPa 0,0 l/m 11,2 km/h (2 Bft) SW 235 0 min 2,4 UV-I 306 W/m 9,4 C 9,0 C 20,9 km/h (4 Bft)
18.03.2024 12:00 11,8 C 15,6 C 83 % 1017,5 hPa 0,0 l/m 13,4 km/h (3 Bft) W-SW 245 3 min 2,2 UV-I 361 W/m 9,0 C 8,0 C 20,9 km/h (4 Bft)
18.03.2024 12:03 11,9 C 16,7 C 84 % 1017,4 hPa 0,0 l/m 11,8 km/h (2 Bft) W 259 3 min 2,5 UV-I 417 W/m 9,3 C 8,8 C 17,7 km/h (3 Bft)
18.03.2024 12:06 12,6 C 22,2 C 83 % 1017,5 hPa 0,0 l/m 12,7 km/h (3 Bft) W-SW 244 3 min 3,1 UV-I 856 W/m 9,8 C 9,2 C 19,3 km/h (3 Bft)
18.03.2024 12:09 12,8 C 23,3 C 81 % 1017,5 hPa 0,0 l/m 8,1 km/h (2 Bft) SW 227 3 min 3,1 UV-I 636 W/m 9,6 C 11,7 C 14,5 km/h (3 Bft)
18.03.2024 12:12 12,9 C 22,2 C 81 % 1017,3 hPa 0,0 l/m 9,5 km/h (2 Bft) SW 236 3 min 2,7 UV-I 884 W/m 9,7 C 11,1 C 16,1 km/h (3 Bft)
18.03.2024 12:15 12,8 C 21,7 C 81 % 1017,6 hPa 0,0 l/m 10,1 km/h (2 Bft) SW 225 3 min 2,6 UV-I 828 W/m 9,6 C 10,6 C 17,7 km/h (3 Bft)
18.03.2024 12:18 12,7 C 17,8 C 80 % 1017,5 hPa 0,0 l/m 10,8 km/h (2 Bft) W-SW 253 3 min 1,6 UV-I 373 W/m 9,3 C 10,2 C 16,1 km/h (3 Bft)
18.03.2024 12:21 12,4 C 15,6 C 80 % 1017,5 hPa 0,0 l/m 6,0 km/h (2 Bft) W 269 0 min 1,1 UV-I 153 W/m 9,0 C 12,4 C 9,7 km/h (2 Bft)
18.03.2024 12:24 12,5 C 18,3 C 82 % 1017,5 hPa 0,0 l/m 4,4 km/h (1 Bft) W 259 3 min 2,3 UV-I 401 W/m 9,5 C 12,5 C 9,7 km/h (2 Bft)
18.03.2024 12:27 13,0 C 23,3 C 79 % 1017,5 hPa 0,0 l/m 7,4 km/h (2 Bft) W-SW 253 3 min 2,5 UV-I 822 W/m 9,4 C 12,4 C 17,7 km/h (3 Bft)
18.03.2024 12:30 12,8 C 18,3 C 77 % 1017,5 hPa 0,0 l/m 7,5 km/h (2 Bft) W-SW 244 0 min 1,8 UV-I 339 W/m 8,9 C 12,1 C 12,9 km/h (3 Bft)
18.03.2024 12:33 12,9 C 18,3 C 81 % 1017,5 hPa 0,0 l/m 6,3 km/h (2 Bft) W 275 0 min 2,4 UV-I 337 W/m 9,7 C 12,9 C 11,3 km/h (2 Bft)
18.03.2024 12:36 13,4 C 22,8 C 79 % 1017,5 hPa 0,0 l/m 11,9 km/h (2 Bft) W-SW 244 0 min 2,7 UV-I 341 W/m 9,8 C 10,5 C 19,3 km/h (3 Bft)
18.03.2024 12:39 13,5 C 20,6 C 77 % 1017,6 hPa 0,0 l/m 10,5 km/h (2 Bft) W 269 3 min 1,6 UV-I 579 W/m 9,5 C 11,2 C 17,7 km/h (3 Bft)
18.03.2024 12:42 12,9 C 19,4 C 77 % 1017,5 hPa 0,0 l/m 11,3 km/h (2 Bft) W-NW 298 0 min 1,4 UV-I 303 W/m 9,0 C 10,2 C 17,7 km/h (3 Bft)
18.03.2024 12:45 12,8 C 18,3 C 79 % 1017,6 hPa 0,0 l/m 7,9 km/h (2 Bft) W 273 0 min 1,8 UV-I 255 W/m 9,2 C 11,9 C 14,5 km/h (3 Bft)
18.03.2024 12:48 12,4 C 15,0 C 79 % 1017,6 hPa 0,0 l/m 12,2 km/h (2 Bft) W-NW 291 0 min 0,7 UV-I 135 W/m 8,9 C 9,2 C 17,7 km/h (3 Bft)
18.03.2024 12:51 11,9 C 13,9 C 80 % 1017,7 hPa 0,0 l/m 13,2 km/h (3 Bft) W-SW 246 0 min 0,5 UV-I 101 W/m 8,6 C 8,2 C 20,9 km/h (4 Bft)
18.03.2024 12:54 11,7 C 12,8 C 81 % 1017,7 hPa 0,0 l/m 7,4 km/h (2 Bft) W-NW 293 0 min 0,5 UV-I 97 W/m 8,5 C 11,0 C 16,1 km/h (3 Bft)
18.03.2024 12:57 11,6 C 12,8 C 82 % 1017,6 hPa 0,0 l/m 6,7 km/h (2 Bft) W 263 0 min 0,7 UV-I 127 W/m 8,6 C 11,4 C 12,9 km/h (3 Bft)
18.03.2024 13:00 11,4 C 12,8 C 82 % 1017,7 hPa 0,0 l/m 10,2 km/h (2 Bft) W 275 0 min 1,0 UV-I 172 W/m 8,4 C 9,0 C 16,1 km/h (3 Bft)
18.03.2024 13:03 11,4 C 13,3 C 82 % 1017,6 hPa 0,0 l/m 6,8 km/h (2 Bft) W 263 0 min 1,3 UV-I 182 W/m 8,4 C 11,1 C 12,9 km/h (3 Bft)
18.03.2024 13:06 11,7 C 15,6 C 83 % 1017,7 hPa 0,0 l/m 6,9 km/h (2 Bft) W-SW 249 3 min 2,3 UV-I 366 W/m 8,9 C 11,4 C 12,9 km/h (3 Bft)
18.03.2024 13:09 12,3 C 21,1 C 82 % 1017,6 hPa 0,0 l/m 7,3 km/h (2 Bft) W-SW 256 3 min 2,8 UV-I 642 W/m 9,3 C 11,7 C 14,5 km/h (3 Bft)
18.03.2024 13:12 12,8 C 23,9 C 81 % 1017,6 hPa 0,0 l/m 4,1 km/h (1 Bft) W-NW 301 3 min 2,9 UV-I 627 W/m 9,6 C 12,8 C 6,4 km/h (2 Bft)
18.03.2024 13:15 13,0 C 24,4 C 79 % 1017,5 hPa 0,0 l/m 4,3 km/h (1 Bft) W-SW 257 3 min 2,9 UV-I 627 W/m 9,4 C 13,0 C 12,9 km/h (3 Bft)
18.03.2024 13:18 12,9 C 23,3 C 79 % 1017,4 hPa 0,0 l/m 7,1 km/h (2 Bft) W-NW 291 3 min 2,9 UV-I 631 W/m 9,3 C 12,5 C 14,5 km/h (3 Bft)
18.03.2024 13:21 13,2 C 22,8 C 78 % 1017,4 hPa 0,0 l/m 9,3 km/h (2 Bft) W-NW 294 3 min 2,8 UV-I 659 W/m 9,4 C 11,5 C 17,7 km/h (3 Bft)
18.03.2024 13:24 13,0 C 18,3 C 76 % 1017,3 hPa 0,0 l/m 12,4 km/h (3 Bft) W 272 3 min 2,1 UV-I 422 W/m 8,9 C 9,8 C 27,4 km/h (4 Bft)
18.03.2024 13:27 12,9 C 20,0 C 76 % 1017,4 hPa 0,0 l/m 14,4 km/h (3 Bft) W-SW 252 3 min 2,9 UV-I 429 W/m 8,8 C 8,9 C 22,5 km/h (4 Bft)
18.03.2024 13:30 13,3 C 21,1 C 75 % 1017,4 hPa 0,0 l/m 12,3 km/h (3 Bft) W-SW 240 3 min 2,8 UV-I 628 W/m 9,0 C 10,2 C 19,3 km/h (3 Bft)
18.03.2024 13:33 13,4 C 21,7 C 75 % 1017,4 hPa 0,0 l/m 12,6 km/h (3 Bft) W 281 3 min 2,8 UV-I 639 W/m 9,1 C 10,2 C 19,3 km/h (3 Bft)
18.03.2024 13:36 13,5 C 22,2 C 76 % 1017,4 hPa 0,0 l/m 11,8 km/h (2 Bft) W 277 3 min 2,9 UV-I 651 W/m 9,4 C 10,6 C 17,7 km/h (3 Bft)
18.03.2024 13:39 13,7 C 21,7 C 74 % 1017,4 hPa 0,0 l/m 14,0 km/h (3 Bft) W 271 3 min 2,7 UV-I 672 W/m 9,2 C 10,0 C 22,5 km/h (4 Bft)
18.03.2024 13:42 13,2 C 17,2 C 72 % 1017,4 hPa 0,0 l/m 14,6 km/h (3 Bft) W-SW 242 0 min 1,6 UV-I 156 W/m 8,3 C 9,2 C 20,9 km/h (4 Bft)
18.03.2024 13:45 12,6 C 15,0 C 73 % 1017,4 hPa 0,0 l/m 12,2 km/h (2 Bft) W 267 0 min 1,5 UV-I 190 W/m 7,9 C 9,4 C 19,3 km/h (3 Bft)
18.03.2024 13:48 12,4 C 14,4 C 75 % 1017,4 hPa 0,0 l/m 12,0 km/h (2 Bft) W 274 0 min 1,4 UV-I 203 W/m 8,1 C 9,3 C 17,7 km/h (3 Bft)
18.03.2024 13:51 12,4 C 14,4 C 74 % 1017,3 hPa 0,0 l/m 12,6 km/h (3 Bft) W-SW 254 0 min 1,3 UV-I 194 W/m 7,9 C 9,0 C 19,3 km/h (3 Bft)
18.03.2024 13:54 12,6 C 14,4 C 75 % 1017,3 hPa 0,0 l/m 10,5 km/h (2 Bft) W-NW 292 0 min 1,5 UV-I 186 W/m 8,3 C 10,2 C 19,3 km/h (3 Bft)
18.03.2024 13:57 12,9 C 17,8 C 75 % 1017,3 hPa 0,0 l/m 6,9 km/h (2 Bft) W 275 3 min 2,0 UV-I 479 W/m 8,6 C 12,6 C 14,5 km/h (3 Bft)
18.03.2024 14:00 12,8 C 16,1 C 75 % 1017,3 hPa 0,0 l/m 7,7 km/h (2 Bft) W 265 0 min 1,2 UV-I 157 W/m 8,5 C 12,0 C 14,5 km/h (3 Bft)
18.03.2024 14:03 12,6 C 15,0 C 76 % 1017,3 hPa 0,0 l/m 8,1 km/h (2 Bft) W 273 0 min 1,2 UV-I 195 W/m 8,5 C 11,5 C 16,1 km/h (3 Bft)
18.03.2024 14:06 12,3 C 13,9 C 76 % 1017,3 hPa 0,0 l/m 10,7 km/h (2 Bft) W-SW 257 0 min 1,0 UV-I 176 W/m 8,2 C 9,8 C 16,1 km/h (3 Bft)
18.03.2024 14:09 12,3 C 16,1 C 76 % 1017,4 hPa 0,0 l/m 10,9 km/h (2 Bft) W-SW 247 0 min 1,4 UV-I 309 W/m 8,2 C 9,7 C 17,7 km/h (3 Bft)
18.03.2024 14:12 12,4 C 15,0 C 77 % 1017,3 hPa 0,0 l/m 11,7 km/h (2 Bft) W 275 0 min 1,3 UV-I 288 W/m 8,5 C 9,4 C 17,7 km/h (3 Bft)
18.03.2024 14:15 12,6 C 16,1 C 76 % 1017,2 hPa 0,0 l/m 9,9 km/h (2 Bft) W 262 3 min 1,7 UV-I 355 W/m 8,5 C 10,5 C 16,1 km/h (3 Bft)
18.03.2024 14:18 12,7 C 16,7 C 76 % 1017,4 hPa 0,0 l/m 11,4 km/h (2 Bft) SW 227 0 min 2,0 UV-I 239 W/m 8,6 C 9,9 C 20,9 km/h (4 Bft)
18.03.2024 14:21 13,1 C 19,4 C 77 % 1017,3 hPa 0,0 l/m 7,1 km/h (2 Bft) W 259 0 min 2,4 UV-I 239 W/m 9,2 C 12,7 C 14,5 km/h (3 Bft)
18.03.2024 14:24 13,3 C 21,7 C 75 % 1017,2 hPa 0,0 l/m 8,5 km/h (2 Bft) S-SW 202 3 min 2,3 UV-I 423 W/m 9,0 C 12,0 C 16,1 km/h (3 Bft)
18.03.2024 14:27 13,5 C 20,0 C 74 % 1017,2 hPa 0,0 l/m 6,4 km/h (2 Bft) W 279 3 min 1,9 UV-I 612 W/m 9,0 C 13,5 C 12,9 km/h (3 Bft)
18.03.2024 14:30 13,4 C 19,4 C 74 % 1017,3 hPa 0,0 l/m 9,5 km/h (2 Bft) SW 225 3 min 1,7 UV-I 612 W/m 8,9 C 11,6 C 17,7 km/h (3 Bft)
18.03.2024 14:33 13,1 C 17,2 C 72 % 1017,3 hPa 0,0 l/m 12,0 km/h (2 Bft) W-SW 250 0 min 1,6 UV-I 183 W/m 8,2 C 10,1 C 20,9 km/h (4 Bft)
18.03.2024 14:36 13,3 C 20,0 C 72 % 1017,3 hPa 0,0 l/m 12,9 km/h (3 Bft) W-SW 257 0 min 2,1 UV-I 149 W/m 8,4 C 9,9 C 20,9 km/h (4 Bft)
18.03.2024 14:39 13,8 C 22,2 C 71 % 1017,3 hPa 0,0 l/m 10,8 km/h (2 Bft) W-SW 243 3 min 2,4 UV-I 491 W/m 8,6 C 11,4 C 19,3 km/h (3 Bft)
18.03.2024 14:42 14,0 C 22,2 C 70 % 1017,2 hPa 0,0 l/m 13,0 km/h (3 Bft) SW 224 3 min 2,2 UV-I 604 W/m 8,6 C 10,7 C 20,9 km/h (4 Bft)
18.03.2024 14:45 13,7 C 18,3 C 71 % 1017,2 hPa 0,0 l/m 14,9 km/h (3 Bft) W 263 0 min 1,5 UV-I 253 W/m 8,5 C 9,7 C 22,5 km/h (4 Bft)
18.03.2024 14:48 13,4 C 16,1 C 71 % 1017,2 hPa 0,0 l/m 11,0 km/h (2 Bft) W-NW 285 0 min 1,5 UV-I 256 W/m 8,3 C 10,9 C 16,1 km/h (3 Bft)
18.03.2024 14:51 13,1 C 14,4 C 72 % 1017,3 hPa 0,0 l/m 10,7 km/h (2 Bft) W 260 0 min 1,1 UV-I 150 W/m 8,2 C 10,7 C 22,5 km/h (4 Bft)
18.03.2024 14:54 12,8 C 13,3 C 72 % 1017,4 hPa 0,0 l/m 14,1 km/h (3 Bft) W-SW 238 0 min 0,9 UV-I 114 W/m 7,9 C 8,9 C 22,5 km/h (4 Bft)
18.03.2024 14:57 12,4 C 12,8 C 72 % 1017,3 hPa 0,0 l/m 16,6 km/h (3 Bft) W 260 0 min 0,8 UV-I 115 W/m 7,5 C 7,5 C 27,4 km/h (4 Bft)
18.03.2024 15:00 12,2 C 12,2 C 72 % 1017,2 hPa 0,0 l/m 14,9 km/h (3 Bft) W-SW 254 0 min 0,8 UV-I 103 W/m 7,3 C 7,8 C 20,9 km/h (4 Bft)
18.03.2024 15:03 12,1 C 12,8 C 73 % 1017,3 hPa 0,0 l/m 12,4 km/h (3 Bft) SW 231 0 min 0,9 UV-I 117 W/m 7,4 C 8,8 C 24,1 km/h (4 Bft)
18.03.2024 15:06 12,2 C 14,4 C 74 % 1017,3 hPa 0,0 l/m 13,8 km/h (3 Bft) W 264 0 min 1,3 UV-I 171 W/m 7,7 C 8,3 C 22,5 km/h (4 Bft)
18.03.2024 15:09 12,6 C 17,8 C 74 % 1017,3 hPa 0,0 l/m 11,5 km/h (2 Bft) W 279 0 min 1,6 UV-I 204 W/m 8,1 C 9,7 C 19,3 km/h (3 Bft)
18.03.2024 15:12 13,2 C 20,0 C 72 % 1017,3 hPa 0,0 l/m 10,0 km/h (2 Bft) W-SW 239 3 min 1,9 UV-I 481 W/m 8,3 C 11,1 C 17,7 km/h (3 Bft)
18.03.2024 15:15 13,4 C 20,6 C 70 % 1017,2 hPa 0,0 l/m 16,3 km/h (3 Bft) W-SW 252 3 min 2,0 UV-I 540 W/m 8,0 C 8,8 C 27,4 km/h (4 Bft)
18.03.2024 15:18 13,3 C 20,6 C 69 % 1017,2 hPa 0,0 l/m 16,8 km/h (3 Bft) W-SW 244 3 min 1,9 UV-I 544 W/m 7,7 C 8,5 C 27,4 km/h (4 Bft)
18.03.2024 15:21 13,4 C 20,0 C 69 % 1017,3 hPa 0,0 l/m 14,3 km/h (3 Bft) SW 235 3 min 1,7 UV-I 427 W/m 7,8 C 9,5 C 22,5 km/h (4 Bft)
18.03.2024 15:24 13,3 C 20,6 C 69 % 1017,3 hPa 0,0 l/m 15,2 km/h (3 Bft) W 271 3 min 2,0 UV-I 422 W/m 7,7 C 9,1 C 24,1 km/h (4 Bft)
18.03.2024 15:27 13,5 C 21,7 C 70 % 1017,3 hPa 0,0 l/m 11,2 km/h (2 Bft) W 262 3 min 1,9 UV-I 518 W/m 8,1 C 10,9 C 22,5 km/h (4 Bft)
18.03.2024 15:30 13,6 C 21,1 C 68 % 1017,2 hPa 0,0 l/m 10,6 km/h (2 Bft) W 270 3 min 1,8 UV-I 494 W/m 7,8 C 11,3 C 16,1 km/h (3 Bft)
18.03.2024 15:33 13,5 C 21,1 C 69 % 1017,3 hPa 0,0 l/m 9,2 km/h (2 Bft) W 267 3 min 1,8 UV-I 397 W/m 7,9 C 11,9 C 16,1 km/h (3 Bft)
18.03.2024 15:36 13,3 C 18,9 C 69 % 1017,4 hPa 0,0 l/m 14,8 km/h (3 Bft) W-SW 248 3 min 1,3 UV-I 285 W/m 7,7 C 9,2 C 22,5 km/h (4 Bft)
18.03.2024 15:39 12,9 C 15,0 C 69 % 1017,3 hPa 0,0 l/m 10,9 km/h (2 Bft) SW 232 0 min 1,0 UV-I 145 W/m 7,4 C 10,4 C 20,9 km/h (4 Bft)
18.03.2024 15:42 12,7 C 14,4 C 70 % 1017,3 hPa 0,0 l/m 12,2 km/h (2 Bft) W 262 0 min 1,1 UV-I 169 W/m 7,4 C 9,5 C 19,3 km/h (3 Bft)
18.03.2024 15:45 12,5 C 13,9 C 69 % 1017,3 hPa 0,0 l/m 13,4 km/h (3 Bft) W 277 0 min 1,1 UV-I 179 W/m 7,0 C 8,8 C 20,9 km/h (4 Bft)
18.03.2024 15:48 12,4 C 14,4 C 70 % 1017,3 hPa 0,0 l/m 10,1 km/h (2 Bft) W 268 0 min 1,0 UV-I 158 W/m 7,1 C 10,2 C 16,1 km/h (3 Bft)
18.03.2024 15:51 12,4 C 15,0 C 71 % 1017,2 hPa 0,0 l/m 10,7 km/h (2 Bft) W-SW 253 0 min 1,1 UV-I 196 W/m 7,3 C 9,9 C 16,1 km/h (3 Bft)
18.03.2024 15:54 12,6 C 16,7 C 72 % 1017,3 hPa 0,0 l/m 13,6 km/h (3 Bft) W-SW 254 3 min 1,4 UV-I 267 W/m 7,7 C 8,8 C 17,7 km/h (3 Bft)
18.03.2024 15:57 12,8 C 17,2 C 73 % 1017,2 hPa 0,0 l/m 9,9 km/h (2 Bft) W 269 3 min 1,3 UV-I 458 W/m 8,1 C 10,7 C 17,7 km/h (3 Bft)
18.03.2024 16:00 12,9 C 18,3 C 72 % 1017,3 hPa 0,0 l/m 9,3 km/h (2 Bft) W 265 3 min 1,3 UV-I 246 W/m 8,0 C 11,2 C 20,9 km/h (4 Bft)
18.03.2024 16:03 12,9 C 18,3 C 72 % 1017,2 hPa 0,0 l/m 13,1 km/h (3 Bft) W 263 3 min 1,3 UV-I 345 W/m 8,0 C 9,4 C 19,3 km/h (3 Bft)
18.03.2024 16:06 12,8 C 16,1 C 71 % 1017,3 hPa 0,0 l/m 10,6 km/h (2 Bft) W-SW 258 0 min 0,9 UV-I 194 W/m 7,7 C 10,4 C 17,7 km/h (3 Bft)
18.03.2024 16:09 12,5 C 16,1 C 72 % 1017,3 hPa 0,0 l/m 7,9 km/h (2 Bft) W-SW 242 0 min 1,1 UV-I 122 W/m 7,6 C 11,5 C 14,5 km/h (3 Bft)
18.03.2024 16:12 12,8 C 20,6 C 73 % 1017,3 hPa 0,0 l/m 4,6 km/h (1 Bft) W-NW 288 3 min 1,4 UV-I 389 W/m 8,1 C 12,8 C 9,7 km/h (2 Bft)
18.03.2024 16:15 13,2 C 22,8 C 73 % 1017,2 hPa 0,0 l/m 1,9 km/h (1 Bft) W-NW 288 3 min 1,3 UV-I 369 W/m 8,5 C 13,2 C 4,8 km/h (1 Bft)
18.03.2024 16:18 13,3 C 22,2 C 71 % 1017,3 hPa 0,0 l/m 6,4 km/h (2 Bft) W 281 3 min 1,3 UV-I 346 W/m 8,2 C 13,3 C 11,3 km/h (2 Bft)
18.03.2024 16:21 13,2 C 21,7 C 69 % 1017,3 hPa 0,0 l/m 10,5 km/h (2 Bft) W 279 3 min 1,1 UV-I 345 W/m 7,6 C 10,9 C 19,3 km/h (3 Bft)
18.03.2024 16:24 12,8 C 16,7 C 70 % 1017,4 hPa 0,0 l/m 5,9 km/h (2 Bft) W 266 0 min 0,7 UV-I 143 W/m 7,5 C 12,8 C 11,3 km/h (2 Bft)
18.03.2024 16:27 12,4 C 13,9 C 70 % 1017,3 hPa 0,0 l/m 6,9 km/h (2 Bft) W 271 0 min 0,7 UV-I 65 W/m 7,1 C 12,1 C 14,5 km/h (3 Bft)
18.03.2024 16:30 12,2 C 12,8 C 70 % 1017,4 hPa 0,0 l/m 10,4 km/h (2 Bft) W-SW 239 0 min 0,7 UV-I 71 W/m 6,9 C 9,8 C 19,3 km/h (3 Bft)
18.03.2024 16:33 11,9 C 12,2 C 71 % 1017,5 hPa 0,0 l/m 7,5 km/h (2 Bft) W 261 0 min 0,6 UV-I 64 W/m 6,8 C 11,2 C 12,9 km/h (3 Bft)
18.03.2024 16:36 11,9 C 12,8 C 72 % 1017,4 hPa 0,0 l/m 5,8 km/h (2 Bft) W 277 0 min 0,8 UV-I 151 W/m 7,0 C 11,9 C 16,1 km/h (3 Bft)
18.03.2024 16:39 12,3 C 13,9 C 72 % 1017,4 hPa 0,0 l/m 6,1 km/h (2 Bft) W-NW 294 3 min 0,9 UV-I 332 W/m 7,4 C 12,3 C 16,1 km/h (3 Bft)
18.03.2024 16:42 12,6 C 15,0 C 70 % 1017,4 hPa 0,0 l/m 7,9 km/h (2 Bft) W 269 3 min 0,9 UV-I 282 W/m 7,3 C 11,6 C 19,3 km/h (3 Bft)
18.03.2024 16:45 12,7 C 16,1 C 70 % 1017,5 hPa 0,0 l/m 7,6 km/h (2 Bft) W 277 3 min 0,8 UV-I 279 W/m 7,4 C 11,9 C 17,7 km/h (3 Bft)
18.03.2024 16:48 12,8 C 17,8 C 70 % 1017,5 hPa 0,0 l/m 7,2 km/h (2 Bft) W 266 3 min 0,8 UV-I 297 W/m 7,5 C 12,3 C 12,9 km/h (3 Bft)
18.03.2024 16:51 12,6 C 17,2 C 71 % 1017,5 hPa 0,0 l/m 11,0 km/h (2 Bft) W 260 3 min 0,8 UV-I 222 W/m 7,5 C 10,0 C 19,3 km/h (3 Bft)
18.03.2024 16:54 12,6 C 18,3 C 71 % 1017,6 hPa 0,0 l/m 7,6 km/h (2 Bft) W 275 3 min 0,7 UV-I 229 W/m 7,5 C 11,8 C 12,9 km/h (3 Bft)
18.03.2024 16:57 12,4 C 16,1 C 72 % 1017,6 hPa 0,0 l/m 9,9 km/h (2 Bft) W 272 3 min 0,6 UV-I 182 W/m 7,5 C 10,3 C 14,5 km/h (3 Bft)
18.03.2024 17:00 12,2 C 13,9 C 72 % 1017,6 hPa 0,0 l/m 4,6 km/h (1 Bft) NW 304 0 min 0,5 UV-I 72 W/m 7,3 C 12,2 C 11,3 km/h (2 Bft)
18.03.2024 17:03 12,0 C 16,1 C 74 % 1017,6 hPa 0,0 l/m 3,6 km/h (1 Bft) W-NW 291 3 min 0,7 UV-I 168 W/m 7,5 C 12,0 C 6,4 km/h (2 Bft)
18.03.2024 17:06 12,1 C 17,8 C 73 % 1017,7 hPa 0,0 l/m 8,4 km/h (2 Bft) W 263 3 min 0,7 UV-I 225 W/m 7,4 C 10,8 C 14,5 km/h (3 Bft)
18.03.2024 17:09 12,1 C 18,9 C 72 % 1017,7 hPa 0,0 l/m 6,3 km/h (2 Bft) W 273 3 min 0,6 UV-I 216 W/m 7,2 C 12,1 C 12,9 km/h (3 Bft)
18.03.2024 17:12 12,0 C 16,1 C 72 % 1017,6 hPa 0,0 l/m 6,9 km/h (2 Bft) W 266 3 min 0,6 UV-I 193 W/m 7,1 C 11,7 C 12,9 km/h (3 Bft)
18.03.2024 17:15 11,9 C 13,3 C 73 % 1017,7 hPa 0,0 l/m 7,0 km/h (2 Bft) W-SW 254 3 min 0,6 UV-I 195 W/m 7,2 C 11,5 C 12,9 km/h (3 Bft)
18.03.2024 17:18 12,0 C 12,2 C 73 % 1017,7 hPa 0,0 l/m 3,9 km/h (1 Bft) W-SW 245 3 min 0,5 UV-I 187 W/m 7,3 C 12,0 C 8,0 km/h (2 Bft)
18.03.2024 17:21 12,0 C 11,7 C 72 % 1017,8 hPa 0,0 l/m 3,0 km/h (1 Bft) W-SW 247 3 min 0,5 UV-I 175 W/m 7,1 C 12,0 C 6,4 km/h (2 Bft)
18.03.2024 17:24 11,9 C 11,7 C 73 % 1017,8 hPa 0,0 l/m 3,5 km/h (1 Bft) W-SW 256 3 min 0,5 UV-I 164 W/m 7,2 C 11,9 C 9,7 km/h (2 Bft)
18.03.2024 17:27 11,8 C 11,1 C 72 % 1017,8 hPa 0,0 l/m 8,6 km/h (2 Bft) W 268 0 min 0,1 UV-I 80 W/m 6,9 C 10,4 C 12,9 km/h (3 Bft)
18.03.2024 17:30 11,7 C 12,2 C 72 % 1017,8 hPa 0,0 l/m 7,9 km/h (2 Bft) W-NW 285 0 min 0,0 UV-I 39 W/m 6,8 C 10,7 C 12,9 km/h (3 Bft)
18.03.2024 17:33 11,6 C 13,3 C 72 % 1017,9 hPa 0,0 l/m 8,1 km/h (2 Bft) W-SW 239 0 min 0,0 UV-I 37 W/m 6,7 C 10,5 C 14,5 km/h (3 Bft)
18.03.2024 17:36 11,4 C 11,7 C 72 % 1017,9 hPa 0,0 l/m 10,3 km/h (2 Bft) W 265 0 min 0,0 UV-I 34 W/m 6,5 C 9,0 C 19,3 km/h (3 Bft)
18.03.2024 17:39 11,3 C 11,1 C 73 % 1017,9 hPa 0,0 l/m 5,8 km/h (2 Bft) W-NW 288 0 min 0,0 UV-I 31 W/m 6,6 C 11,3 C 14,5 km/h (3 Bft)
18.03.2024 17:42 11,1 C 10,6 C 73 % 1017,9 hPa 0,0 l/m 4,8 km/h (1 Bft) W 276 0 min 0,0 UV-I 29 W/m 6,4 C 11,1 C 11,3 km/h (2 Bft)
18.03.2024 17:45 11,0 C 10,0 C 73 % 1017,9 hPa 0,0 l/m 5,0 km/h (1 Bft) W 261 0 min 0,0 UV-I 26 W/m 6,4 C 11,0 C 9,7 km/h (2 Bft)
18.03.2024 17:48 10,9 C 9,4 C 73 % 1017,9 hPa 0,0 l/m 4,0 km/h (1 Bft) W-SW 250 0 min 0,0 UV-I 25 W/m 6,3 C 10,9 C 11,3 km/h (2 Bft)
18.03.2024 17:51 10,8 C 9,4 C 74 % 1018,0 hPa 0,0 l/m 3,7 km/h (1 Bft) W-SW 250 0 min 0,0 UV-I 26 W/m 6,4 C 10,8 C 6,4 km/h (2 Bft)
18.03.2024 17:54 10,8 C 9,4 C 74 % 1018,0 hPa 0,0 l/m 3,8 km/h (1 Bft) W-SW 253 0 min 0,0 UV-I 27 W/m 6,4 C 10,8 C 6,4 km/h (2 Bft)
18.03.2024 17:57 10,7 C 8,9 C 74 % 1018,0 hPa 0,0 l/m 3,3 km/h (1 Bft) W-SW 253 0 min 0,0 UV-I 26 W/m 6,3 C 10,7 C 4,8 km/h (1 Bft)
18.03.2024 18:00 10,6 C 8,9 C 75 % 1018,0 hPa 0,0 l/m 4,2 km/h (1 Bft) W-SW 254 0 min 0,0 UV-I 26 W/m 6,4 C 10,6 C 8,0 km/h (2 Bft)
18.03.2024 18:03 10,6 C 8,9 C 75 % 1018,1 hPa 0,0 l/m 3,0 km/h (1 Bft) W-SW 254 0 min 0,0 UV-I 26 W/m 6,4 C 10,6 C 4,8 km/h (1 Bft)
18.03.2024 18:06 10,4 C 8,9 C 76 % 1018,2 hPa 0,0 l/m 2,6 km/h (1 Bft) W-SW 254 0 min 0,0 UV-I 25 W/m 6,4 C 10,4 C 6,4 km/h (2 Bft)
18.03.2024 18:09 10,4 C 8,3 C 76 % 1018,2 hPa 0,0 l/m 1,9 km/h (1 Bft) W-SW 255 0 min 0,0 UV-I 21 W/m 6,4 C 10,4 C 4,8 km/h (1 Bft)
18.03.2024 18:12 10,4 C 8,3 C 75 % 1018,3 hPa 0,0 l/m 2,5 km/h (1 Bft) W-SW 256 0 min 0,0 UV-I 19 W/m 6,2 C 10,4 C 6,4 km/h (2 Bft)
18.03.2024 18:15 10,3 C 8,3 C 75 % 1018,3 hPa 0,0 l/m 1,2 km/h (1 Bft) W-SW 256 0 min 0,0 UV-I 17 W/m 6,1 C 10,3 C 4,8 km/h (1 Bft)
18.03.2024 18:18 10,2 C 7,8 C 76 % 1018,3 hPa 0,0 l/m 0,9 km/h (0 Bft) W-SW 256 0 min 0,0 UV-I 16 W/m 6,2 C 10,2 C 3,2 km/h (1 Bft)
18.03.2024 18:21 10,1 C 7,2 C 76 % 1018,2 hPa 0,0 l/m 2,8 km/h (1 Bft) W 266 0 min 0,0 UV-I 13 W/m 6,1 C 10,1 C 9,7 km/h (2 Bft)
18.03.2024 18:24 10,0 C 7,8 C 76 % 1018,3 hPa 0,0 l/m 5,2 km/h (1 Bft) W 275 0 min 0,0 UV-I 12 W/m 6,0 C 10,0 C 9,7 km/h (2 Bft)
18.03.2024 18:27 9,8 C 7,2 C 76 % 1018,3 hPa 0,0 l/m 1,3 km/h (1 Bft) W 275 0 min 0,0 UV-I 10 W/m 5,8 C 9,8 C 3,2 km/h (1 Bft)
18.03.2024 18:30 9,7 C 6,7 C 77 % 1018,3 hPa 0,0 l/m 1,1 km/h (1 Bft) W 275 0 min 0,0 UV-I 7 W/m 5,9 C 9,7 C 3,2 km/h (1 Bft)
18.03.2024 18:33 9,6 C 6,7 C 78 % 1018,3 hPa 0,0 l/m 0,6 km/h (0 Bft) W 275 0 min 0,0 UV-I 6 W/m 6,0 C 9,6 C 3,2 km/h (1 Bft)
18.03.2024 18:36 9,5 C 6,1 C 78 % 1018,4 hPa 0,0 l/m 0,1 km/h (0 Bft) W 275 0 min 0,0 UV-I 5 W/m 5,9 C 9,5 C 1,6 km/h (1 Bft)
18.03.2024 18:39 9,4 C 6,1 C 78 % 1018,4 hPa 0,0 l/m 0,4 km/h (0 Bft) W 275 0 min 0,0 UV-I 3 W/m 5,8 C 9,4 C 1,6 km/h (1 Bft)
18.03.2024 18:42 9,3 C 6,1 C 78 % 1018,4 hPa 0,0 l/m 0,0 km/h (0 Bft) W 275 0 min 0,0 UV-I 0 W/m 5,7 C 9,3 C 0,0 km/h (0 Bft)
18.03.2024 18:45 9,1 C 6,1 C 79 % 1018,4 hPa 0,0 l/m 0,2 km/h (0 Bft) W 275 0 min 0,0 UV-I 0 W/m 5,7 C 9,1 C 1,6 km/h (1 Bft)
18.03.2024 18:48 8,9 C 6,1 C 79 % 1018,4 hPa 0,0 l/m 1,0 km/h (0 Bft) W 275 0 min 0,0 UV-I 0 W/m 5,5 C 8,9 C 3,2 km/h (1 Bft)
18.03.2024 18:51 8,7 C 6,1 C 80 % 1018,4 hPa 0,0 l/m 0,2 km/h (0 Bft) W 275 0 min 0,0 UV-I 0 W/m 5,4 C 8,7 C 1,6 km/h (1 Bft)
18.03.2024 18:54 8,7 C 6,1 C 80 % 1018,5 hPa 0,0 l/m 0,2 km/h (0 Bft) W 275 0 min 0,0 UV-I 0 W/m 5,4 C 8,7 C 1,6 km/h (1 Bft)
18.03.2024 18:57 8,6 C 5,6 C 81 % 1018,5 hPa 0,0 l/m 0,0 km/h (0 Bft) W 275 0 min 0,0 UV-I 0 W/m 5,5 C 8,6 C 1,6 km/h (1 Bft)
18.03.2024 19:00 8,4 C 5,6 C 81 % 1018,5 hPa 0,0 l/m 1,3 km/h (1 Bft) W 275 0 min 0,0 UV-I 0 W/m 5,3 C 8,4 C 3,2 km/h (1 Bft)
18.03.2024 19:03 8,2 C 5,6 C 81 % 1018,6 hPa 0,0 l/m 1,3 km/h (1 Bft) W 275 0 min 0,0 UV-I 0 W/m 5,1 C 8,2 C 3,2 km/h (1 Bft)
18.03.2024 19:06 8,1 C 5,6 C 82 % 1018,5 hPa 0,0 l/m 0,9 km/h (0 Bft) W 275 0 min 0,0 UV-I 0 W/m 5,2 C 8,1 C 3,2 km/h (1 Bft)
18.03.2024 19:09 8,1 C 5,0 C 82 % 1018,5 hPa 0,0 l/m 0,2 km/h (0 Bft) W 275 0 min 0,0 UV-I 0 W/m 5,2 C 8,1 C 1,6 km/h (1 Bft)
18.03.2024 19:12 8,0 C 5,0 C 83 % 1018,7 hPa 0,0 l/m 1,3 km/h (1 Bft) W 275 0 min 0,0 UV-I 0 W/m 5,3 C 8,0 C 3,2 km/h (1 Bft)
18.03.2024 19:15 7,9 C 5,0 C 83 % 1018,6 hPa 0,0 l/m 1,9 km/h (1 Bft) W 275 0 min 0,0 UV-I 0 W/m 5,2 C 7,9 C 3,2 km/h (1 Bft)
18.03.2024 19:18 7,8 C 5,0 C 83 % 1018,8 hPa 0,0 l/m 1,3 km/h (1 Bft) W 275 0 min 0,0 UV-I 0 W/m 5,1 C 7,8 C 3,2 km/h (1 Bft)
18.03.2024 19:21 7,8 C 5,0 C 83 % 1018,7 hPa 0,0 l/m 0,4 km/h (0 Bft) W 275 0 min 0,0 UV-I 0 W/m 5,1 C 7,8 C 1,6 km/h (1 Bft)
18.03.2024 19:24 7,6 C 4,4 C 84 % 1018,7 hPa 0,0 l/m 0,0 km/h (0 Bft) W 275 0 min 0,0 UV-I 0 W/m 5,1 C 7,6 C 1,6 km/h (1 Bft)
18.03.2024 19:27 7,1 C 4,4 C 84 % 1018,7 hPa 0,0 l/m 0,0 km/h (0 Bft) W 275 0 min 0,0 UV-I 0 W/m 4,6 C 7,1 C 0,0 km/h (0 Bft)
18.03.2024 19:30 6,8 C 3,9 C 84 % 1018,8 hPa 0,0 l/m 0,0 km/h (0 Bft) W 275 0 min 0,0 UV-I 0 W/m 4,3 C 6,8 C 0,0 km/h (0 Bft)
18.03.2024 19:33 6,6 C 3,9 C 85 % 1018,7 hPa 0,0 l/m 0,1 km/h (0 Bft) W 275 0 min 0,0 UV-I 0 W/m 4,3 C 6,6 C 1,6 km/h (1 Bft)
18.03.2024 19:36 6,6 C 3,9 C 86 % 1018,7 hPa 0,0 l/m 0,2 km/h (0 Bft) W 275 0 min 0,0 UV-I 0 W/m 4,4 C 6,6 C 1,6 km/h (1 Bft)
18.03.2024 19:39 6,3 C 3,3 C 85 % 1018,7 hPa 0,0 l/m 1,0 km/h (0 Bft) W 275 0 min 0,0 UV-I 0 W/m 4,0 C 6,3 C 1,6 km/h (1 Bft)
18.03.2024 19:42 6,3 C 3,9 C 86 % 1018,8 hPa 0,0 l/m 0,6 km/h (0 Bft) W 275 0 min 0,0 UV-I 0 W/m 4,1 C 6,3 C 3,2 km/h (1 Bft)
18.03.2024 19:45 6,4 C 3,9 C 87 % 1018,8 hPa 0,0 l/m 0,4 km/h (0 Bft) W 275 0 min 0,0 UV-I 0 W/m 4,4 C 6,4 C 1,6 km/h (1 Bft)
18.03.2024 19:48 6,3 C 3,9 C 87 % 1018,8 hPa 0,0 l/m 0,0 km/h (0 Bft) W 275 0 min 0,0 UV-I 0 W/m 4,3 C 6,3 C 0,0 km/h (0 Bft)
18.03.2024 19:51 6,3 C 3,9 C 87 % 1018,9 hPa 0,0 l/m 0,3 km/h (0 Bft) W 275 0 min 0,0 UV-I 0 W/m 4,3 C 6,3 C 1,6 km/h (1 Bft)
18.03.2024 19:54 6,4 C 3,3 C 87 % 1018,8 hPa 0,0 l/m 0,5 km/h (0 Bft) W 275 0 min 0,0 UV-I 0 W/m 4,4 C 6,4 C 1,6 km/h (1 Bft)
18.03.2024 19:57 6,4 C 3,3 C 87 % 1018,9 hPa 0,0 l/m 0,0 km/h (0 Bft) W 275 0 min 0,0 UV-I 0 W/m 4,4 C 6,4 C 0,0 km/h (0 Bft)
18.03.2024 20:00 6,3 C 3,3 C 87 % 1018,9 hPa 0,0 l/m 0,0 km/h (0 Bft) W 275 0 min 0,0 UV-I 0 W/m 4,3 C 6,3 C 0,0 km/h (0 Bft)
18.03.2024 20:03 6,3 C 3,3 C 87 % 1019,0 hPa 0,0 l/m 0,0 km/h (0 Bft) W 275 0 min 0,0 UV-I 0 W/m 4,3 C 6,3 C 0,0 km/h (0 Bft)
18.03.2024 20:07 6,1 C 3,3 C 87 % 1019,1 hPa 0,0 l/m 0,0 km/h (0 Bft) W 275 0 min 0,0 UV-I 0 W/m 4,1 C 6,1 C 0,0 km/h (0 Bft)
18.03.2024 20:09 5,8 C 2,8 C 87 % 1019,1 hPa 0,0 l/m 0,0 km/h (0 Bft) W 275 0 min 0,0 UV-I 0 W/m 3,8 C 5,8 C 0,0 km/h (0 Bft)
18.03.2024 20:12 5,8 C 3,3 C 88 % 1019,1 hPa 0,0 l/m 0,0 km/h (0 Bft) W 275 0 min 0,0 UV-I 0 W/m 4,0 C 5,8 C 0,0 km/h (0 Bft)
18.03.2024 20:15 5,8 C 2,8 C 88 % 1019,2 hPa 0,0 l/m 0,0 km/h (0 Bft) W 275 0 min 0,0 UV-I 0 W/m 4,0 C 5,8 C 0,0 km/h (0 Bft)
18.03.2024 20:18 5,7 C 2,8 C 88 % 1019,3 hPa 0,0 l/m 0,0 km/h (0 Bft) W 275 0 min 0,0 UV-I 0 W/m 3,9 C 5,7 C 0,0 km/h (0 Bft)
18.03.2024 20:21 5,7 C 2,8 C 88 % 1019,3 hPa 0,0 l/m 0,0 km/h (0 Bft) W 275 0 min 0,0 UV-I 0 W/m 3,9 C 5,7 C 0,0 km/h (0 Bft)
18.03.2024 20:24 5,7 C 2,8 C 88 % 1019,3 hPa 0,0 l/m 0,4 km/h (0 Bft) W 275 0 min 0,0 UV-I 0 W/m 3,9 C 5,7 C 1,6 km/h (1 Bft)
18.03.2024 20:27 5,5 C 2,8 C 88 % 1019,4 hPa 0,0 l/m 1,4 km/h (1 Bft) W 275 0 min 0,0 UV-I 0 W/m 3,7 C 5,5 C 3,2 km/h (1 Bft)
18.03.2024 20:30 5,4 C 2,8 C 88 % 1019,4 hPa 0,0 l/m 1,6 km/h (1 Bft) W 275 0 min 0,0 UV-I 0 W/m 3,6 C 5,4 C 3,2 km/h (1 Bft)
18.03.2024 20:33 5,4 C 2,8 C 89 % 1019,5 hPa 0,0 l/m 1,4 km/h (1 Bft) W 275 0 min 0,0 UV-I 0 W/m 3,7 C 5,4 C 3,2 km/h (1 Bft)
18.03.2024 20:36 5,3 C 2,2 C 89 % 1019,5 hPa 0,0 l/m 1,5 km/h (1 Bft) W 275 0 min 0,0 UV-I 0 W/m 3,6 C 5,3 C 3,2 km/h (1 Bft)
18.03.2024 20:39 5,3 C 2,8 C 89 % 1019,5 hPa 0,0 l/m 1,3 km/h (1 Bft) W 275 0 min 0,0 UV-I 0 W/m 3,6 C 5,3 C 3,2 km/h (1 Bft)
18.03.2024 20:42 5,2 C 2,2 C 89 % 1019,6 hPa 0,0 l/m 0,9 km/h (0 Bft) W 275 0 min 0,0 UV-I 0 W/m 3,5 C 5,2 C 1,6 km/h (1 Bft)
18.03.2024 20:45 5,1 C 2,8 C 89 % 1019,6 hPa 0,0 l/m 0,7 km/h (0 Bft) W 275 0 min 0,0 UV-I 0 W/m 3,4 C 5,1 C 1,6 km/h (1 Bft)
18.03.2024 20:48 5,0 C 2,8 C 89 % 1019,5 hPa 0,0 l/m 1,4 km/h (1 Bft) W 275 0 min 0,0 UV-I 0 W/m 3,3 C 5,0 C 3,2 km/h (1 Bft)
18.03.2024 20:51 4,9 C 2,8 C 89 % 1019,5 hPa 0,0 l/m 0,6 km/h (0 Bft) W 275 0 min 0,0 UV-I 0 W/m 3,2 C 4,9 C 1,6 km/h (1 Bft)
18.03.2024 20:54 4,8 C 2,2 C 89 % 1019,6 hPa 0,0 l/m 0,0 km/h (0 Bft) W 275 0 min 0,0 UV-I 0 W/m 3,1 C 4,8 C 0,0 km/h (0 Bft)
18.03.2024 20:57 4,8 C 2,2 C 89 % 1019,6 hPa 0,0 l/m 0,2 km/h (0 Bft) W 275 0 min 0,0 UV-I 0 W/m 3,1 C 4,8 C 1,6 km/h (1 Bft)
18.03.2024 21:00 4,8 C 2,2 C 90 % 1019,6 hPa 0,0 l/m 0,5 km/h (0 Bft) W 275 0 min 0,0 UV-I 0 W/m 3,3 C 4,8 C 3,2 km/h (1 Bft)
18.03.2024 21:03 4,7 C 2,2 C 89 % 1019,7 hPa 0,0 l/m 0,0 km/h (0 Bft) W 275 0 min 0,0 UV-I 0 W/m 3,0 C 4,7 C 1,6 km/h (1 Bft)
18.03.2024 21:06 4,6 C 2,2 C 90 % 1019,6 hPa 0,0 l/m 0,0 km/h (0 Bft) W 275 0 min 0,0 UV-I 0 W/m 3,1 C 4,6 C 0,0 km/h (0 Bft)
18.03.2024 21:09 4,5 C 1,7 C 89 % 1019,6 hPa 0,0 l/m 0,0 km/h (0 Bft) W 275 0 min 0,0 UV-I 0 W/m 2,8 C 4,5 C 0,0 km/h (0 Bft)
18.03.2024 21:12 4,3 C 1,7 C 90 % 1019,6 hPa 0,0 l/m 0,8 km/h (0 Bft) W 275 0 min 0,0 UV-I 0 W/m 2,8 C 4,3 C 1,6 km/h (1 Bft)
18.03.2024 21:15 4,2 C 1,7 C 90 % 1019,6 hPa 0,0 l/m 1,5 km/h (1 Bft) W 275 0 min 0,0 UV-I 0 W/m 2,7 C 4,2 C 3,2 km/h (1 Bft)
18.03.2024 21:18 3,9 C 1,1 C 89 % 1019,7 hPa 0,0 l/m 0,2 km/h (0 Bft) W 275 0 min 0,0 UV-I 0 W/m 2,3 C 3,9 C 1,6 km/h (1 Bft)
18.03.2024 21:21 3,6 C 1,1 C 89 % 1019,7 hPa 0,0 l/m 0,0 km/h (0 Bft) W 275 0 min 0,0 UV-I 0 W/m 2,0 C 3,6 C 1,6 km/h (1 Bft)
18.03.2024 21:24 3,4 C 1,1 C 90 % 1019,8 hPa 0,0 l/m 0,0 km/h (0 Bft) W 275 0 min 0,0 UV-I 0 W/m 1,9 C 3,4 C 1,6 km/h (1 Bft)
18.03.2024 21:27 3,4 C 1,7 C 90 % 1019,7 hPa 0,0 l/m 0,0 km/h (0 Bft) W 275 0 min 0,0 UV-I 0 W/m 1,9 C 3,4 C 0,0 km/h (0 Bft)
18.03.2024 21:30 3,4 C 1,7 C 90 % 1019,7 hPa 0,0 l/m 1,1 km/h (1 Bft) W 275 0 min 0,0 UV-I 0 W/m 1,9 C 3,4 C 3,2 km/h (1 Bft)
18.03.2024 21:33 3,6 C 1,7 C 91 % 1019,8 hPa 0,0 l/m 1,9 km/h (1 Bft) W 275 0 min 0,0 UV-I 0 W/m 2,3 C 3,6 C 3,2 km/h (1 Bft)
18.03.2024 21:36 3,6 C 1,7 C 91 % 1019,7 hPa 0,0 l/m 3,2 km/h (1 Bft) W 275 0 min 0,0 UV-I 0 W/m 2,3 C 3,6 C 4,8 km/h (1 Bft)
18.03.2024 21:39 3,8 C 1,7 C 91 % 1019,6 hPa 0,0 l/m 2,9 km/h (1 Bft) W 275 0 min 0,0 UV-I 0 W/m 2,5 C 3,8 C 4,8 km/h (1 Bft)
18.03.2024 21:42 3,7 C 1,1 C 91 % 1019,8 hPa 0,0 l/m 1,5 km/h (1 Bft) W 275 0 min 0,0 UV-I 0 W/m 2,4 C 3,7 C 3,2 km/h (1 Bft)
18.03.2024 21:45 3,5 C 1,1 C 91 % 1019,7 hPa 0,0 l/m 1,9 km/h (1 Bft) W 275 0 min 0,0 UV-I 0 W/m 2,2 C 3,5 C 3,2 km/h (1 Bft)
18.03.2024 21:48 3,5 C 1,7 C 91 % 1019,7 hPa 0,0 l/m 1,9 km/h (1 Bft) W 275 0 min 0,0 UV-I 0 W/m 2,2 C 3,5 C 3,2 km/h (1 Bft)
18.03.2024 21:51 3,6 C 1,7 C 91 % 1019,6 hPa 0,0 l/m 2,1 km/h (1 Bft) W 275 0 min 0,0 UV-I 0 W/m 2,3 C 3,6 C 3,2 km/h (1 Bft)
18.03.2024 21:54 3,6 C 1,1 C 91 % 1019,7 hPa 0,0 l/m 2,3 km/h (1 Bft) W 275 0 min 0,0 UV-I 0 W/m 2,3 C 3,6 C 3,2 km/h (1 Bft)
18.03.2024 21:57 3,4 C 1,1 C 91 % 1019,6 hPa 0,0 l/m 1,0 km/h (0 Bft) W 275 0 min 0,0 UV-I 0 W/m 2,1 C 3,4 C 1,6 km/h (1 Bft)
18.03.2024 22:00 3,3 C 1,1 C 91 % 1019,6 hPa 0,0 l/m 0,8 km/h (0 Bft) W 275 0 min 0,0 UV-I 0 W/m 2,0 C 3,3 C 1,6 km/h (1 Bft)
18.03.2024 22:03 3,4 C 1,1 C 91 % 1019,8 hPa 0,0 l/m 0,0 km/h (0 Bft) W 275 0 min 0,0 UV-I 0 W/m 2,1 C 3,4 C 1,6 km/h (1 Bft)
18.03.2024 22:06 3,4 C 1,1 C 91 % 1019,6 hPa 0,0 l/m 0,0 km/h (0 Bft) W 275 0 min 0,0 UV-I 0 W/m 2,1 C 3,4 C 0,0 km/h (0 Bft)
18.03.2024 22:09 3,2 C 1,1 C 91 % 1019,6 hPa 0,0 l/m 0,0 km/h (0 Bft) W 275 0 min 0,0 UV-I 0 W/m 1,9 C 3,2 C 0,0 km/h (0 Bft)
18.03.2024 22:12 3,2 C 1,1 C 91 % 1019,6 hPa 0,0 l/m 0,0 km/h (0 Bft) W 275 0 min 0,0 UV-I 0 W/m 1,9 C 3,2 C 0,0 km/h (0 Bft)
18.03.2024 22:15 3,2 C 1,1 C 91 % 1019,7 hPa 0,0 l/m 0,0 km/h (0 Bft) W 275 0 min 0,0 UV-I 0 W/m 1,9 C 3,2 C 0,0 km/h (0 Bft)
18.03.2024 22:18 3,2 C 1,1 C 91 % 1019,6 hPa 0,0 l/m 0,3 km/h (0 Bft) W 275 0 min 0,0 UV-I 0 W/m 1,9 C 3,2 C 1,6 km/h (1 Bft)
18.03.2024 22:21 3,6 C 1,7 C 92 % 1019,7 hPa 0,0 l/m 0,8 km/h (0 Bft) W 275 0 min 0,0 UV-I 0 W/m 2,4 C 3,6 C 1,6 km/h (1 Bft)
18.03.2024 22:24 3,1 C 1,1 C 91 % 1019,7 hPa 0,0 l/m 0,1 km/h (0 Bft) W 275 0 min 0,0 UV-I 0 W/m 1,8 C 3,1 C 1,6 km/h (1 Bft)
18.03.2024 22:27 2,9 C 0,6 C 91 % 1019,6 hPa 0,0 l/m 0,5 km/h (0 Bft) W 275 0 min 0,0 UV-I 0 W/m 1,6 C 2,9 C 1,6 km/h (1 Bft)
18.03.2024 22:30 2,7 C 0,6 C 91 % 1019,7 hPa 0,0 l/m 1,5 km/h (1 Bft) W 275 0 min 0,0 UV-I 0 W/m 1,4 C 2,7 C 3,2 km/h (1 Bft)
18.03.2024 22:33 2,7 C 0,0 C 91 % 1019,7 hPa 0,0 l/m 1,8 km/h (1 Bft) W 275 0 min 0,0 UV-I 0 W/m 1,4 C 2,7 C 3,2 km/h (1 Bft)
18.03.2024 22:36 2,5 C 0,0 C 91 % 1019,7 hPa 0,0 l/m 0,6 km/h (0 Bft) W 275 0 min 0,0 UV-I 0 W/m 1,2 C 2,5 C 1,6 km/h (1 Bft)
18.03.2024 22:39 2,4 C 0,6 C 91 % 1019,8 hPa 0,0 l/m 0,0 km/h (0 Bft) W 275 0 min 0,0 UV-I 0 W/m 1,1 C 2,4 C 0,0 km/h (0 Bft)
18.03.2024 22:42 2,4 C 1,1 C 91 % 1019,7 hPa 0,0 l/m 0,0 km/h (0 Bft) W 275 0 min 0,0 UV-I 0 W/m 1,1 C 2,4 C 0,0 km/h (0 Bft)
18.03.2024 22:45 2,5 C 1,1 C 92 % 1019,9 hPa 0,0 l/m 0,0 km/h (0 Bft) W 275 0 min 0,0 UV-I 0 W/m 1,3 C 2,5 C 0,0 km/h (0 Bft)
18.03.2024 22:48 2,6 C 1,1 C 92 % 1019,9 hPa 0,0 l/m 0,0 km/h (0 Bft) W 275 0 min 0,0 UV-I 0 W/m 1,4 C 2,6 C 0,0 km/h (0 Bft)
18.03.2024 22:51 2,6 C 1,1 C 92 % 1019,8 hPa 0,0 l/m 0,3 km/h (0 Bft) W 275 0 min 0,0 UV-I 0 W/m 1,4 C 2,6 C 1,6 km/h (1 Bft)
18.03.2024 22:54 2,7 C 1,7 C 92 % 1019,8 hPa 0,0 l/m 0,0 km/h (0 Bft) W 275 0 min 0,0 UV-I 0 W/m 1,5 C 2,7 C 1,6 km/h (1 Bft)
18.03.2024 22:57 2,7 C 1,7 C 92 % 1019,8 hPa 0,0 l/m 0,0 km/h (0 Bft) W 275 0 min 0,0 UV-I 0 W/m 1,5 C 2,7 C 0,0 km/h (0 Bft)
18.03.2024 23:00 2,7 C 1,1 C 92 % 1019,8 hPa 0,0 l/m 0,0 km/h (0 Bft) W 275 0 min 0,0 UV-I 0 W/m 1,5 C 2,7 C 0,0 km/h (0 Bft)
18.03.2024 23:03 2,7 C 1,1 C 92 % 1019,8 hPa 0,0 l/m 0,0 km/h (0 Bft) W 275 0 min 0,0 UV-I 0 W/m 1,5 C 2,7 C 0,0 km/h (0 Bft)
18.03.2024 23:06 2,6 C 1,1 C 92 % 1019,8 hPa 0,0 l/m 0,0 km/h (0 Bft) W 275 0 min 0,0 UV-I 0 W/m 1,4 C 2,6 C 0,0 km/h (0 Bft)
18.03.2024 23:09 2,5 C 1,1 C 92 % 1019,8 hPa 0,0 l/m 0,0 km/h (0 Bft) W 275 0 min 0,0 UV-I 0 W/m 1,3 C 2,5 C 0,0 km/h (0 Bft)
18.03.2024 23:12 2,6 C 1,1 C 92 % 1019,9 hPa 0,0 l/m 0,0 km/h (0 Bft) W 275 0 min 0,0 UV-I 0 W/m 1,4 C 2,6 C 0,0 km/h (0 Bft)
18.03.2024 23:15 2,5 C 1,1 C 92 % 1019,9 hPa 0,0 l/m 0,0 km/h (0 Bft) W 275 0 min 0,0 UV-I 0 W/m 1,3 C 2,5 C 0,0 km/h (0 Bft)
18.03.2024 23:18 2,5 C 1,1 C 92 % 1019,9 hPa 0,0 l/m 0,0 km/h (0 Bft) W 275 0 min 0,0 UV-I 0 W/m 1,3 C 2,5 C 0,0 km/h (0 Bft)
18.03.2024 23:21 2,4 C 1,1 C 92 % 1019,8 hPa 0,0 l/m 0,5 km/h (0 Bft) W 275 0 min 0,0 UV-I 0 W/m 1,2 C 2,4 C 1,6 km/h (1 Bft)
18.03.2024 23:24 2,4 C 1,1 C 92 % 1019,8 hPa 0,0 l/m 0,0 km/h (0 Bft) W 275 0 min 0,0 UV-I 0 W/m 1,2 C 2,4 C 0,0 km/h (0 Bft)
18.03.2024 23:27 2,4 C 1,1 C 92 % 1019,9 hPa 0,0 l/m 0,3 km/h (0 Bft) W 275 0 min 0,0 UV-I 0 W/m 1,2 C 2,4 C 1,6 km/h (1 Bft)
18.03.2024 23:30 2,5 C 1,7 C 92 % 1019,8 hPa 0,0 l/m 1,7 km/h (1 Bft) W 275 0 min 0,0 UV-I 0 W/m 1,3 C 2,5 C 3,2 km/h (1 Bft)
18.03.2024 23:33 2,6 C 1,7 C 92 % 1019,9 hPa 0,0 l/m 1,1 km/h (1 Bft) W 275 0 min 0,0 UV-I 0 W/m 1,4 C 2,6 C 1,6 km/h (1 Bft)
18.03.2024 23:36 2,7 C 1,7 C 92 % 1019,9 hPa 0,0 l/m 0,0 km/h (0 Bft) W 275 0 min 0,0 UV-I 0 W/m 1,5 C 2,7 C 1,6 km/h (1 Bft)
18.03.2024 23:39 2,7 C 2,2 C 92 % 1019,8 hPa 0,0 l/m 0,0 km/h (0 Bft) W 275 0 min 0,0 UV-I 0 W/m 1,5 C 2,7 C 0,0 km/h (0 Bft)
18.03.2024 23:42 2,7 C 2,2 C 92 % 1019,8 hPa 0,0 l/m 0,0 km/h (0 Bft) W 275 0 min 0,0 UV-I 0 W/m 1,5 C 2,7 C 0,0 km/h (0 Bft)
18.03.2024 23:45 2,7 C 2,2 C 92 % 1019,8 hPa 0,0 l/m 0,0 km/h (0 Bft) W 275 0 min 0,0 UV-I 0 W/m 1,5 C 2,7 C 0,0 km/h (0 Bft)
18.03.2024 23:48 2,6 C 1,7 C 92 % 1019,7 hPa 0,0 l/m 0,0 km/h (0 Bft) W 275 0 min 0,0 UV-I 0 W/m 1,4 C 2,6 C 0,0 km/h (0 Bft)
18.03.2024 23:51 2,5 C 1,7 C 92 % 1019,8 hPa 0,0 l/m 0,0 km/h (0 Bft) W 275 0 min 0,0 UV-I 0 W/m 1,3 C 2,5 C 0,0 km/h (0 Bft)
18.03.2024 23:54 2,6 C 1,7 C 92 % 1019,8 hPa 0,0 l/m 0,0 km/h (0 Bft) W 275 0 min 0,0 UV-I 0 W/m 1,4 C 2,6 C 0,0 km/h (0 Bft)
18.03.2024 23:57 2,8 C 2,2 C 92 % 1019,8 hPa 0,0 l/m 0,6 km/h (0 Bft) W 275 0 min 0,0 UV-I 0 W/m 1,6 C 2,8 C 1,6 km/h (1 Bft)
18.03.2024 23:58 2,8 C 2,2 C 92 % 1019,9 hPa 0,0 l/m 1,6 km/h (1 Bft) W 270 0 min 0,0 UV-I 0 W/m 1,6 C 2,8 C 3,2 km/h (1 Bft)
18.03.2024 23:59 2,9 C 2,2 C 92 % 1019,9 hPa 0,0 l/m 1,6 km/h (1 Bft) W 270 0 min 0,0 UV-I 0 W/m 1,7 C 2,9 C 3,2 km/h (1 Bft)
_ Min-Zeit 22:42 22:33 15:30 05:03 - 02:16 - - - - - 22:39 22:39 02:18
Minimum _ 2,3 C 0,0 C 68 % 1016,5 hPa - 0,0 km/h (0 Bft) - - - - - 1,1 C 2,4 C 0,0 km/h (0 Bft)
_ Max-Zeit 14:42 13:15 05:30 22:45 00:22 15:18 - - 09:27 12:06 12:12 12:36 14:27 13:24
Maximum _ 14,1 C 24,4 C 94 % 1019,9 hPa 0,2 l/m 16,8 km/h
W-SW (3 Bft)
- - 3 min 3,1 UV-I 884 W/m 9,8 C 13,5 C 27,4 km/h
W-SW (4 Bft)
Durchschnitt _ 8,6 C 9,2 C 87 % 1017,9 hPa #0,8 l/m 4,2 km/h (1 Bft) S - #3:24 h 1,3 UV-I 209 W/m 6,5 C 8,1 C 7,3 km/h (2 Bft)